[[{"header":{"parameterUnit":"m.s-1","parameterCategory":1,"la1":30.6,"la2":29.2853,"lo1":-89.7004,"lo2":-87.6739,"dy":0.0162,"dx":0.0183,"nx":112,"ny":82,"refTime":"2024-09-10T06:00:00:Z","depth":0,"parameterNumber":2,"parameterNumberName":"U-component_of_WINDS"},"data":[0.0,0.0,0.0,0.0,0.0,0.0,0.0,0.0,0.0,0.0,0.0,0.0,0.0,0.0,0.0,0.0,0.0,0.0,0.0,0.0,0.0,0.0,0.0,0.0,0.0,0.0,0.0,0.0,0.0,0.0,0.0,0.0,0.0,0.0,0.0,0.0,0.0,0.0,0.0,0.0,0.0,0.0,0.0,0.0,0.0,0.0,0.0,0.0,0.0,0.0,0.0,0.0,0.0,0.0,0.0,0.0,0.0,0.0,0.0,0.0,0.0,0.0,0.0,0.0,0.0,0.0,0.0,0.0,0.0,0.0,0.0,0.0,0.0,0.0,0.0,0.0,0.0,0.0,0.0,0.0,0.0,0.0,0.0,0.0,0.0,0.0,0.0,0.0,0.0,0.0,-8.9806,-9.4332,-10.061,-10.41,-10.3219,-10.131,-9.5611,-8.5098,0.0,0.0,0.0,0.0,0.0,0.0,0.0,0.0,0.0,0.0,0.0,0.0,0.0,0.0,0.0,0.0,0.0,0.0,0.0,0.0,0.0,0.0,0.0,0.0,0.0,0.0,0.0,0.0,0.0,0.0,0.0,0.0,0.0,0.0,0.0,0.0,0.0,0.0,0.0,0.0,0.0,0.0,0.0,0.0,0.0,0.0,0.0,0.0,0.0,0.0,0.0,0.0,0.0,0.0,0.0,0.0,0.0,0.0,0.0,0.0,0.0,0.0,0.0,0.0,0.0,0.0,0.0,0.0,0.0,0.0,0.0,0.0,0.0,0.0,0.0,0.0,0.0,0.0,0.0,0.0,0.0,0.0,0.0,0.0,0.0,0.0,0.0,0.0,0.0,0.0,0.0,0.0,0.0,0.0,0.0,0.0,0.0,0.0,0.0,0.0,0.0,0.0,0.0,0.0,-9.2675,-10.3217,-10.5961,-10.6376,-10.4908,-10.142,-9.5502,-8.6631,0.0,0.0,0.0,0.0,0.0,0.0,0.0,0.0,0.0,0.0,0.0,0.0,0.0,0.0,0.0,0.0,0.0,0.0,0.0,0.0,0.0,0.0,0.0,0.0,0.0,0.0,0.0,0.0,0.0,0.0,0.0,0.0,0.0,0.0,0.0,0.0,0.0,0.0,0.0,0.0,0.0,0.0,0.0,0.0,0.0,0.0,0.0,0.0,0.0,0.0,0.0,0.0,0.0,0.0,0.0,0.0,0.0,0.0,0.0,0.0,0.0,0.0,0.0,0.0,0.0,0.0,0.0,0.0,0.0,0.0,0.0,0.0,0.0,0.0,0.0,0.0,0.0,0.0,0.0,0.0,0.0,0.0,0.0,0.0,0.0,0.0,0.0,0.0,0.0,0.0,0.0,0.0,0.0,0.0,0.0,0.0,0.0,0.0,0.0,0.0,0.0,0.0,0.0,-9.24,-9.7777,-10.6695,-10.7587,-10.689,-10.5201,-10.142,-9.5502,-8.6952,-8.156,0.0,0.0,0.0,0.0,0.0,0.0,0.0,0.0,0.0,0.0,0.0,0.0,0.0,0.0,0.0,0.0,0.0,0.0,0.0,0.0,0.0,0.0,0.0,0.0,0.0,0.0,0.0,0.0,0.0,0.0,0.0,0.0,0.0,0.0,0.0,0.0,0.0,0.0,0.0,0.0,0.0,0.0,0.0,0.0,0.0,0.0,0.0,0.0,0.0,0.0,0.0,0.0,0.0,0.0,0.0,0.0,0.0,0.0,0.0,0.0,0.0,0.0,0.0,0.0,0.0,0.0,0.0,0.0,0.0,0.0,0.0,0.0,0.0,0.0,0.0,0.0,0.0,0.0,0.0,0.0,0.0,0.0,0.0,0.0,0.0,0.0,0.0,0.0,0.0,0.0,0.0,0.0,0.0,0.0,0.0,0.0,0.0,0.0,0.0,0.0,0.0,0.0,-9.975,-10.3219,-10.8799,-10.8505,-10.7183,-10.5495,-10.0723,-9.4409,-8.6631,-7.9423,0.0,0.0,0.0,0.0,0.0,0.0,0.0,0.0,0.0,0.0,0.0,0.0,0.0,0.0,0.0,0.0,0.0,0.0,0.0,0.0,0.0,0.0,0.0,0.0,0.0,0.0,0.0,0.0,0.0,0.0,0.0,0.0,0.0,0.0,0.0,0.0,0.0,0.0,0.0,0.0,0.0,0.0,0.0,0.0,0.0,0.0,0.0,0.0,0.0,0.0,0.0,0.0,0.0,0.0,0.0,0.0,0.0,0.0,0.0,0.0,0.0,0.0,0.0,0.0,0.0,0.0,0.0,0.0,0.0,0.0,0.0,0.0,0.0,0.0,0.0,0.0,0.0,0.0,0.0,0.0,0.0,0.0,0.0,0.0,0.0,0.0,0.0,0.0,0.0,0.0,0.0,0.0,0.0,0.0,0.0,0.0,0.0,0.0,0.0,0.0,0.0,0.0,-10.2244,-10.7991,-11.0707,-10.9606,-10.8101,-10.6413,-9.8447,-9.1202,-8.5752,-7.6036,0.0,0.0,0.0,0.0,0.0,0.0,0.0,0.0,0.0,0.0,0.0,0.0,0.0,0.0,0.0,0.0,0.0,0.0,0.0,0.0,0.0,0.0,0.0,0.0,0.0,0.0,0.0,0.0,0.0,0.0,0.0,0.0,0.0,0.0,0.0,0.0,0.0,0.0,0.0,0.0,0.0,0.0,0.0,0.0,0.0,0.0,0.0,0.0,0.0,0.0,0.0,0.0,0.0,0.0,0.0,0.0,0.0,0.0,0.0,0.0,0.0,0.0,0.0,0.0,0.0,0.0,0.0,0.0,0.0,0.0,0.0,0.0,0.0,0.0,0.0,0.0,0.0,0.0,0.0,0.0,0.0,0.0,0.0,0.0,0.0,0.0,0.0,0.0,0.0,0.0,0.0,0.0,0.0,0.0,0.0,0.0,0.0,0.0,0.0,0.0,0.0,0.0,-10.1148,-10.678,-11.0817,-10.979,-10.8101,-10.6486,-10.0503,-9.3352,-8.5145,0.0,0.0,0.0,0.0,0.0,0.0,0.0,0.0,0.0,0.0,0.0,0.0,0.0,0.0,0.0,0.0,0.0,0.0,0.0,0.0,0.0,0.0,0.0,0.0,0.0,0.0,0.0,0.0,0.0,0.0,0.0,0.0,0.0,0.0,0.0,0.0,0.0,0.0,0.0,0.0,0.0,0.0,0.0,0.0,0.0,0.0,0.0,0.0,0.0,0.0,0.0,0.0,0.0,0.0,0.0,0.0,0.0,0.0,0.0,0.0,0.0,0.0,0.0,0.0,0.0,0.0,0.0,0.0,0.0,0.0,0.0,0.0,0.0,0.0,0.0,0.0,0.0,0.0,0.0,0.0,0.0,0.0,0.0,0.0,0.0,0.0,0.0,0.0,0.0,0.0,0.0,0.0,0.0,0.0,0.0,0.0,0.0,0.0,0.0,0.0,0.0,0.0,-9.4758,-10.1424,-10.689,-11.0817,-10.979,-10.8101,-10.6486,-10.0723,-9.3352,-8.4396,0.0,0.0,0.0,0.0,0.0,0.0,0.0,0.0,0.0,0.0,0.0,0.0,0.0,0.0,0.0,0.0,0.0,0.0,0.0,0.0,0.0,0.0,0.0,0.0,0.0,0.0,0.0,0.0,0.0,0.0,0.0,0.0,0.0,0.0,0.0,0.0,0.0,0.0,0.0,0.0,0.0,0.0,0.0,0.0,0.0,0.0,0.0,0.0,0.0,0.0,0.0,0.0,0.0,0.0,0.0,0.0,0.0,0.0,0.0,0.0,0.0,0.0,0.0,0.0,0.0,0.0,0.0,0.0,0.0,0.0,0.0,0.0,0.0,0.0,0.0,0.0,0.0,0.0,0.0,0.0,0.0,0.0,0.0,0.0,0.0,0.0,0.0,0.0,0.0,0.0,0.0,0.0,0.0,0.0,0.0,0.0,0.0,0.0,0.0,0.0,0.0,0.0,-9.6061,-10.3806,-10.9386,-11.1001,-10.979,-10.8101,-10.6486,-9.8264,-9.0255,0.0,0.0,0.0,0.0,0.0,0.0,0.0,0.0,0.0,0.0,0.0,0.0,0.0,0.0,0.0,0.0,0.0,0.0,0.0,0.0,0.0,0.0,0.0,0.0,0.0,0.0,0.0,0.0,0.0,0.0,0.0,0.0,0.0,0.0,0.0,0.0,0.0,0.0,0.0,0.0,0.0,0.0,0.0,0.0,0.0,0.0,0.0,0.0,0.0,0.0,0.0,0.0,0.0,0.0,0.0,0.0,0.0,0.0,0.0,0.0,0.0,0.0,0.0,0.0,0.0,0.0,0.0,0.0,0.0,0.0,0.0,0.0,0.0,0.0,0.0,0.0,0.0,0.0,0.0,0.0,0.0,0.0,0.0,0.0,0.0,0.0,0.0,0.0,0.0,0.0,0.0,0.0,0.0,0.0,0.0,0.0,0.0,0.0,0.0,0.0,0.0,0.0,0.0,-9.6061,-10.3806,-10.9386,-11.1001,-10.979,-10.8101,-10.6486,-10.0283,-9.2713,-8.3762,0.0,0.0,0.0,0.0,0.0,0.0,0.0,0.0,0.0,0.0,0.0,0.0,0.0,0.0,0.0,0.0,0.0,0.0,0.0,0.0,0.0,0.0,0.0,0.0,0.0,0.0,0.0,0.0,0.0,0.0,0.0,0.0,0.0,0.0,0.0,0.0,0.0,0.0,0.0,0.0,0.0,0.0,0.0,0.0,0.0,0.0,0.0,0.0,0.0,0.0,0.0,0.0,0.0,0.0,0.0,0.0,0.0,0.0,0.0,0.0,0.0,0.0,0.0,0.0,0.0,0.0,0.0,0.0,0.0,0.0,0.0,0.0,0.0,0.0,0.0,0.0,0.0,0.0,0.0,0.0,0.0,0.0,0.0,0.0,0.0,0.0,0.0,0.0,0.0,0.0,0.0,0.0,0.0,0.0,0.0,0.0,0.0,0.0,0.0,0.0,0.0,0.0,-9.6502,-10.399,-10.9386,-11.1001,-10.979,-10.8101,-10.6486,-10.1494,-9.4326,-8.4861,0.0,0.0,0.0,0.0,0.0,0.0,0.0,0.0,0.0,0.0,0.0,0.0,0.0,0.0,0.0,0.0,0.0,0.0,0.0,0.0,0.0,0.0,0.0,0.0,0.0,0.0,0.0,0.0,0.0,0.0,0.0,0.0,0.0,0.0,0.0,0.0,0.0,0.0,0.0,0.0,0.0,0.0,0.0,0.0,0.0,0.0,0.0,0.0,0.0,0.0,0.0,0.0,0.0,0.0,0.0,0.0,0.0,0.0,0.0,0.0,0.0,0.0,0.0,0.0,0.0,0.0,0.0,0.0,0.0,0.0,0.0,0.0,0.0,0.0,0.0,0.0,0.0,0.0,0.0,0.0,0.0,0.0,0.0,0.0,0.0,0.0,0.0,0.0,0.0,0.0,0.0,0.0,0.0,0.0,0.0,0.0,0.0,0.0,0.0,0.0,0.0,0.0,-9.7163,-10.4293,-10.9362,-11.0891,-10.9606,-10.8101,-10.6486,-10.1898,-9.5423,-8.6824,0.0,0.0,0.0,0.0,0.0,0.0,0.0,0.0,0.0,0.0,0.0,0.0,0.0,0.0,0.0,0.0,0.0,0.0,0.0,0.0,0.0,0.0,0.0,0.0,0.0,0.0,0.0,0.0,0.0,0.0,0.0,0.0,0.0,0.0,0.0,0.0,0.0,0.0,0.0,0.0,0.0,0.0,0.0,0.0,0.0,0.0,0.0,0.0,0.0,0.0,0.0,0.0,0.0,0.0,0.0,0.0,0.0,0.0,0.0,0.0,-9.1864,-8.7802,0.0,0.0,0.0,0.0,0.0,0.0,0.0,0.0,0.0,0.0,0.0,0.0,0.0,0.0,0.0,0.0,0.0,0.0,0.0,0.0,0.0,0.0,0.0,0.0,0.0,0.0,0.0,0.0,0.0,0.0,0.0,0.0,0.0,0.0,0.0,0.0,0.0,0.0,0.0,0.0,-9.7279,-10.4269,-10.9162,-11.017,-10.8799,-10.7477,-10.6486,-10.1898,-9.6645,-9.0924,-8.2716,0.0,0.0,0.0,0.0,0.0,0.0,0.0,0.0,0.0,0.0,0.0,0.0,0.0,0.0,0.0,0.0,0.0,0.0,0.0,0.0,0.0,0.0,0.0,0.0,0.0,0.0,0.0,0.0,0.0,0.0,0.0,0.0,0.0,0.0,0.0,0.0,0.0,0.0,0.0,0.0,0.0,0.0,0.0,0.0,0.0,0.0,0.0,0.0,0.0,0.0,0.0,0.0,0.0,0.0,0.0,0.0,0.0,0.0,0.0,-9.9804,-9.6172,0.0,0.0,0.0,0.0,0.0,0.0,0.0,0.0,0.0,0.0,0.0,0.0,0.0,0.0,0.0,0.0,0.0,0.0,0.0,0.0,0.0,0.0,0.0,0.0,0.0,0.0,0.0,0.0,0.0,0.0,0.0,0.0,0.0,0.0,0.0,0.0,0.0,0.0,0.0,0.0,-9.8944,-10.4987,-10.93,-11.0532,-10.8477,-10.6706,-10.5789,-10.2008,-9.7787,-9.3308,-8.6532,0.0,0.0,0.0,0.0,0.0,0.0,0.0,0.0,0.0,0.0,0.0,0.0,0.0,0.0,0.0,0.0,0.0,0.0,0.0,0.0,0.0,0.0,0.0,0.0,0.0,0.0,0.0,0.0,0.0,0.0,0.0,0.0,0.0,0.0,0.0,0.0,0.0,0.0,0.0,0.0,0.0,0.0,0.0,0.0,0.0,0.0,0.0,0.0,0.0,0.0,0.0,0.0,0.0,-10.7886,-10.9492,-11.2187,-11.1484,-11.2304,-11.4101,-10.8789,-10.6406,-10.5703,-9.9375,0.0,0.0,0.0,0.0,0.0,0.0,0.0,0.0,0.0,0.0,0.0,0.0,0.0,0.0,0.0,0.0,0.0,0.0,0.0,0.0,0.0,0.0,-9.5315,-9.6548,-9.8979,-9.8096,-8.7658,0.0,0.0,0.0,0.0,0.0,0.0,0.0,0.0,0.0,0.0,0.0,-10.0994,-10.6006,-10.9487,-11.0722,-10.8157,-10.5956,-10.5201,-10.2301,-9.8961,-9.5364,-9.0812,-8.6017,0.0,0.0,0.0,0.0,0.0,0.0,0.0,0.0,0.0,0.0,0.0,0.0,0.0,0.0,0.0,0.0,0.0,0.0,0.0,0.0,0.0,0.0,0.0,0.0,0.0,0.0,0.0,0.0,0.0,0.0,0.0,0.0,-8.902,-9.109,0.0,0.0,0.0,0.0,0.0,0.0,0.0,0.0,0.0,0.0,0.0,0.0,0.0,-10.6406,-10.8983,-11.4492,-11.7382,-11.7694,-12.1406,-12.3398,-12.3789,-12.3711,-12.3789,-12.3984,-12.1797,0.0,-10.8515,-10.4609,0.0,0.0,0.0,0.0,0.0,0.0,0.0,0.0,0.0,0.0,0.0,0.0,0.0,0.0,0.0,0.0,0.0,0.0,0.0,0.0,0.0,0.0,-10.4815,-10.4304,-10.4283,-10.3828,-10.1519,-9.4714,-8.8303,-8.555,-8.2872,-8.0159,0.0,0.0,0.0,0.0,0.0,0.0,-10.1799,-10.6884,-10.9833,-10.9193,-10.7479,-10.6022,-10.5211,-10.2815,-10.0503,-9.8594,-9.5254,-9.206,-8.9128,-8.4207,0.0,0.0,0.0,0.0,0.0,0.0,0.0,0.0,0.0,0.0,0.0,0.0,0.0,0.0,0.0,0.0,0.0,0.0,0.0,0.0,0.0,0.0,0.0,0.0,0.0,0.0,0.0,0.0,0.0,-8.8594,-9.3398,-9.2695,-9.3633,-9.2695,0.0,0.0,0.0,0.0,0.0,0.0,0.0,0.0,0.0,-11.4297,-11.4218,-11.539,-11.8593,-12.2109,-12.4218,-12.4687,-12.7109,-12.8398,-12.8906,-12.8906,-12.8711,-12.8086,-12.6914,-12.3281,-11.7695,-11.1211,-10.6289,-10.25,0.0,0.0,0.0,0.0,-9.8035,-9.8813,-10.2699,-10.281,-10.1007,-9.9914,0.0,0.0,0.0,0.0,0.0,0.0,0.0,-9.6449,-9.9345,-10.3415,-10.723,-10.8819,-10.9299,-10.929,-10.8906,-10.4905,-9.9481,-9.3256,-9.1989,-8.9573,-8.2104,-8.3122,0.0,0.0,0.0,-9.9203,-10.3611,-10.7691,-10.9714,-10.8284,-10.6721,-10.521,-10.3889,-10.2375,-10.0796,-9.9218,-9.7787,-9.5694,-9.2794,-8.9423,-8.53,0.0,0.0,0.0,0.0,0.0,0.0,0.0,0.0,0.0,0.0,0.0,0.0,0.0,0.0,0.0,0.0,0.0,0.0,0.0,0.0,0.0,0.0,0.0,0.0,0.0,0.0,0.0,0.0,-9.3789,-9.7265,-9.4844,-9.7773,-9.7617,0.0,0.0,0.0,0.0,0.0,0.0,-10.8515,-11.0,-11.3515,-11.9804,-12.1406,-12.3711,-12.6718,-12.8203,-12.9297,-12.9883,-13.0586,-13.1211,-13.1914,-13.1914,-13.1406,-13.0508,-12.9492,-12.789,-12.539,-11.7187,-11.2812,-11.0586,-10.6015,-10.3711,-10.3203,-10.539,-10.6015,-10.6484,-11.0781,-11.1406,-10.9804,-10.6702,-10.3988,-10.0883,-9.444,0.0,0.0,0.0,0.0,-10.0409,-10.4311,-10.678,-10.8996,-11.1681,-11.2724,-11.3076,-11.3027,-11.2099,-10.8906,-10.1019,-10.0404,-9.8135,-8.8845,-9.0145,0.0,-9.0342,-9.6501,-10.2509,-10.583,-10.8498,-10.9604,-10.8189,-10.6255,-10.4611,-10.3075,-10.1911,-10.0613,-9.9181,-9.9108,-9.786,-9.5034,-9.3749,-9.0631,-8.5301,0.0,0.0,0.0,0.0,0.0,0.0,0.0,0.0,0.0,0.0,0.0,0.0,0.0,0.0,0.0,0.0,0.0,0.0,0.0,0.0,0.0,0.0,0.0,0.0,0.0,0.0,0.0,0.0,0.0,-10.0117,-10.3711,0.0,0.0,0.0,0.0,-10.4687,-10.8008,-11.2187,-11.7383,-12.0,-12.3398,-12.789,-12.8906,-13.0312,-13.2109,-13.3008,-13.3515,-13.3515,-13.3593,-13.3593,-13.3711,-13.3711,-13.3203,-13.2304,-13.0781,-12.9492,-12.789,-12.1797,-11.9297,-11.8906,-11.3515,-11.0781,-11.0195,-11.1211,-11.25,-11.3789,-11.3281,-11.3086,-11.3086,-11.3711,-11.0885,-10.6896,-10.4897,-10.2386,0.0,0.0,-10.3991,-10.6622,-10.9488,-11.129,-11.2605,-11.332,-11.39,-11.4229,-11.3997,-11.3907,-11.2714,-10.8983,-10.579,-10.2789,-9.975,0.0,-9.8596,-9.9327,-10.1903,-10.4903,-10.8287,-10.9594,-10.9911,-10.888,-10.6674,-10.4817,-10.3903,-10.1677,-9.9989,-9.9145,-9.9108,-9.8337,-9.6649,-9.6502,-9.452,-9.03,-8.4791,0.0,0.0,0.0,0.0,0.0,0.0,0.0,0.0,0.0,0.0,0.0,0.0,0.0,0.0,0.0,0.0,0.0,0.0,0.0,0.0,0.0,0.0,0.0,0.0,0.0,0.0,0.0,0.0,-10.6211,-11.039,0.0,-10.5703,-10.7812,-11.0586,-11.3515,-11.6406,-12.0117,-12.4687,-12.5781,-12.7812,-13.1015,-13.1406,-13.2109,-13.3281,-13.3593,-13.3789,-13.3789,-13.3789,-13.3789,-13.3789,-13.3789,-13.3203,-13.2109,-13.1289,-13.0,-12.8398,-12.5703,-12.3984,-12.2812,-11.9687,-11.8281,-11.8008,-11.7812,-11.8086,-11.8593,-11.8281,-11.7812,-11.7109,-11.5703,-11.3397,-11.1087,-11.0501,-10.9592,-10.8992,-10.999,-11.0498,-11.1087,-11.2695,-11.3293,-11.3724,-11.4293,-11.4793,-11.5273,-11.5576,-11.5599,-11.5215,-11.3984,-11.1483,-10.8098,-10.3405,-10.4097,-10.4482,-10.2097,-10.4405,-10.679,-10.7982,-10.8906,-10.8613,-10.6681,-10.6191,-10.5172,-10.3299,-10.1941,-10.0278,-9.8488,-9.8337,-9.7383,-9.5217,-9.5658,-9.4483,-9.1436,-8.8397,-8.3573,0.0,0.0,0.0,0.0,0.0,0.0,0.0,0.0,0.0,0.0,0.0,0.0,0.0,0.0,0.0,0.0,0.0,0.0,0.0,0.0,0.0,0.0,0.0,0.0,0.0,-10.7383,-11.1992,-11.1211,-11.6093,-11.7695,-11.2812,-11.5781,-11.8984,-12.1601,-12.3711,-12.6289,-12.9687,-13.0195,-13.1093,-13.289,-13.289,-13.3203,-13.3789,-13.3789,-13.3789,-13.3789,-13.3789,-13.3789,-13.3789,-13.3789,-13.3398,-13.2617,-13.1797,-13.0703,-12.9414,-12.8203,-12.7109,-12.5898,-12.4218,-12.3281,-12.3008,-12.2383,-12.1992,-12.1718,-12.1093,-12.0117,-11.8906,-11.7109,-11.5781,-11.4804,-11.4218,-11.4297,-11.4492,-11.4492,-11.4297,-11.4101,-11.4414,-11.4795,-11.4999,-11.501,-11.5715,-11.6289,-11.6582,-11.6599,-11.6407,-11.6099,-11.4714,-11.2214,-10.7982,-10.8906,-10.9098,-10.6097,-10.729,-10.8482,-10.8482,-10.8482,-10.7932,-10.6222,-10.6018,-10.5192,-10.3301,-10.1376,-9.9563,-9.795,-9.6619,-9.5254,-9.3932,-9.3859,-9.2941,-9.1033,-8.8904,-8.5306,-8.0204,0.0,0.0,0.0,0.0,0.0,0.0,0.0,0.0,0.0,0.0,0.0,0.0,0.0,0.0,0.0,0.0,0.0,0.0,0.0,0.0,0.0,0.0,0.0,-10.7108,-11.2187,-11.5781,-11.4999,-12.0898,-12.3281,-11.9101,-12.25,-12.6093,-12.8515,-12.9492,-13.0781,-13.25,-13.3281,-13.3789,-13.3789,-13.3789,-13.3789,-13.3789,-13.3789,-13.3789,-13.3789,-13.3789,-13.3789,-13.3789,-13.3789,-13.3789,-13.3711,-13.25,-13.1718,-13.1015,-12.9297,-12.8593,-12.8398,-12.6718,-12.5508,-12.4804,-12.4804,-12.4218,-12.3203,-12.1484,-11.9804,-11.8281,-11.8281,-11.8281,-11.8008,-11.6289,-11.6406,-11.6718,-11.5,-11.5117,-11.5508,-11.4804,-11.5781,-11.6716,-11.5584,-11.6374,-11.731,-11.7015,-11.6721,-11.6176,-11.5368,-11.5291,-11.4984,-11.4099,-11.3291,-11.2406,-11.1598,-11.0714,0.0,-11.0175,-10.8713,-10.7713,-10.7713,-10.6184,-10.4799,-10.3998,-10.0165,-9.7897,-9.7756,-9.4035,-9.217,-9.3015,-9.151,-9.0298,-8.9564,-8.6407,-8.4389,-8.3478,0.0,0.0,0.0,0.0,0.0,0.0,0.0,0.0,0.0,0.0,0.0,0.0,0.0,0.0,0.0,0.0,0.0,0.0,0.0,0.0,0.0,-10.8205,-11.3093,-11.398,-11.861,-12.2503,-12.4182,-12.7197,-12.8603,-12.7392,-12.9207,-13.0703,-13.1406,-13.2187,-13.289,-13.3398,-13.3711,-13.3789,-13.3789,-13.3789,-13.3789,-13.3789,-13.3789,-13.3789,-13.3789,-13.3789,-13.3789,-13.3789,-13.3789,-13.3789,-13.3711,-13.2812,-13.1718,-13.0508,-12.9804,-12.9218,-12.8515,-12.7383,-12.6406,-12.5586,-12.5,-12.3789,-12.2383,-12.1289,-12.0195,-11.9101,-11.8515,-11.8281,-11.8086,-11.6992,-11.6797,-11.6914,-11.6406,-11.6093,-11.5898,-11.6211,-11.6718,-11.6911,-11.6404,-11.6819,-11.7206,-11.6272,-11.5781,-11.5407,-11.4522,-11.4407,-11.4099,-11.3214,-11.2906,-11.2406,-11.1598,-11.0214,-10.929,-10.929,-10.779,-10.679,-10.679,-10.5801,-10.4799,-10.3998,-10.0692,-9.8009,-9.6154,-9.3407,-9.1913,-9.2134,-9.1693,-9.1657,-9.2097,-9.0041,-8.7959,0.0,0.0,0.0,0.0,0.0,0.0,0.0,0.0,0.0,0.0,0.0,0.0,0.0,0.0,0.0,0.0,0.0,0.0,0.0,0.0,0.0,0.0,-11.4611,-11.9783,-12.2215,-12.4619,-12.6993,-12.9311,-13.0714,-13.1494,-13.1494,-13.2302,-13.2696,-13.2614,-13.3309,-13.3709,-13.3612,-13.3708,-13.3789,-13.3789,-13.3789,-13.3789,-13.3789,-13.3789,-13.3789,-13.3789,-13.3789,-13.3789,-13.3789,-13.3789,-13.3789,-13.3789,-13.289,-13.1797,-13.0586,-13.0117,-12.9414,-12.8515,0.0,0.0,0.0,0.0,-12.3398,-12.2109,-12.1211,-12.0312,-11.9492,-11.8593,-11.8281,-11.8086,-11.6797,-11.6992,-11.7383,-11.6718,-11.6601,-11.6914,-11.6992,-11.7304,-11.7381,-11.6886,-11.7116,-11.7201,-11.6607,-11.582,-11.4984,-11.4214,-11.3714,0.0,-11.2791,-11.2714,-11.2522,-11.2099,-11.0214,-10.8906,-10.8906,-10.7405,-10.6405,-10.6405,-10.5991,-10.5303,-10.45,-10.1107,0.0,0.0,0.0,-9.1803,-9.1803,-9.1803,0.0,0.0,0.0,0.0,0.0,-9.3316,0.0,0.0,-8.9481,-8.8968,0.0,0.0,0.0,0.0,0.0,0.0,0.0,0.0,0.0,0.0,0.0,0.0,0.0,0.0,0.0,0.0,-12.0921,-12.6209,-12.99,-12.9724,-12.9801,-13.1411,-13.2216,-13.2605,-13.2605,-13.2918,-13.3011,-13.2721,-13.3306,-13.3617,-13.3205,-13.3617,0.0,0.0,0.0,-13.3789,-13.3789,-13.3789,-13.3789,-13.3789,-13.3789,-13.3789,-13.3789,-13.3789,-13.3711,-13.3593,-13.289,-13.1992,-13.1015,-13.0312,-12.9492,-12.8593,-12.8398,-12.7383,-12.5781,-12.4101,-12.289,-12.2109,-12.1289,0.0,0.0,-11.8711,-11.8398,-11.8008,-11.6289,-11.6914,-11.7695,-11.6289,-11.6914,-11.789,-11.7304,-11.7695,-11.8086,-11.7304,-11.7321,-11.7408,-11.7286,-11.6301,-11.511,-11.4176,-11.3407,-11.2829,-11.2791,-11.2714,-11.2599,-11.2714,-11.0598,-10.8983,-10.8983,-10.7598,-10.6521,-10.6521,-10.6518,0.0,-10.5213,-10.1713,-9.9462,-9.9368,-9.5202,-9.2794,-9.2758,-9.3015,-9.4153,-9.6282,-9.7199,-9.9365,-10.2815,-10.3696,-10.4614,-10.5081,-9.5361,-9.3647,0.0,0.0,0.0,0.0,0.0,0.0,0.0,0.0,0.0,0.0,0.0,0.0,0.0,0.0,0.0,-11.9481,-12.4394,-12.8225,-13.0977,-13.1286,-13.1387,-13.1983,-13.221,-13.2287,-13.2287,-13.259,-13.2808,-13.2696,-13.3083,-13.3306,-13.3193,-13.3617,-13.3789,-13.3789,-13.3789,-13.3789,-13.3789,-13.3789,-13.3789,-13.3789,-13.3789,0.0,-13.3789,-13.3789,-13.3398,-13.2812,-13.3281,-13.2304,-13.0195,-13.0703,-13.0,-12.8515,-12.7109,-12.6289,-12.5781,-12.4101,-12.289,-12.2187,-12.1992,-12.0898,-11.9609,-11.9414,-11.8906,-11.8086,-11.7109,-11.6484,0.0,-11.6718,-11.6484,-11.6601,-11.7695,-11.8203,-11.8281,-11.8086,-11.7889,-11.7608,-11.6611,-11.6007,-11.5281,-11.4186,-11.3868,-11.3714,-11.3714,-11.2599,-11.2022,-11.2599,-11.1098,-10.9906,-10.9906,-10.8482,-10.7405,-10.7405,-10.6775,-10.5992,-10.5172,-10.3184,-10.1769,-10.1065,-9.9605,-9.8685,-9.8709,-10.0503,-10.1494,-10.131,-10.2705,-10.3513,-10.3696,-10.5201,-10.6302,-10.7073,-10.4278,-10.3571,0.0,0.0,0.0,0.0,0.0,0.0,0.0,0.0,0.0,0.0,0.0,-10.2187,-10.7309,0.0,-11.7986,-12.3503,-12.7091,-12.9794,-13.1487,-13.1679,-13.1828,-13.1878,-13.1884,-13.1884,-13.1884,-13.2293,-13.2391,-13.2179,-13.2815,-13.3113,-13.2996,-13.3516,-13.3789,-13.3789,-13.3789,-13.3789,-13.3789,-13.3789,-13.3789,-13.3789,-13.3789,-13.3789,-13.3789,-13.3789,-13.3593,-13.3203,-13.3086,-13.2187,-13.0508,-13.0117,-12.9414,-12.8515,-12.7187,-12.6718,-12.6406,-12.4804,-12.4101,-12.3906,-12.2617,-12.1914,-12.1289,-12.0,-11.9297,-11.8711,-11.7383,-11.6992,-11.6992,-11.6992,-11.6992,-11.7187,-11.8086,-11.8281,-11.8281,-11.8281,-11.8097,-11.7677,-11.7203,-11.6312,-11.5498,-11.5011,-11.4427,-11.3984,-11.4022,-11.333,-11.2714,-11.2714,-11.1291,-11.0214,-11.0214,-10.9098,-10.829,-10.829,-10.7609,-10.7027,-10.6979,-10.6018,-10.4818,-10.3504,-10.3102,-10.2797,-10.275,-10.3917,-10.4687,-10.5091,-10.6302,-10.7,-10.7,-10.8211,-10.8982,-10.9386,-10.8982,-10.8578,0.0,0.0,0.0,0.0,0.0,0.0,0.0,-9.4729,-9.663,-10.1879,-10.6018,-10.9887,-11.4196,-11.8798,-12.3004,-12.6573,-12.9179,-13.0987,-13.1602,-13.1679,-13.1602,-13.1487,-13.1602,-13.1679,-13.1679,-13.1923,-13.201,-13.1691,-13.2473,-13.2995,-13.2889,-13.3412,-13.3784,-13.3901,-13.3788,-13.3789,-13.3789,-13.3789,-13.3789,-13.3789,-13.3789,-13.3789,-13.3789,-13.3789,-13.3711,-13.3515,-13.2383,-13.1718,-13.1093,-12.9297,-12.8593,-12.8515,-12.7812,-12.7617,-12.7304,-12.5508,-12.5195,-12.539,-12.3203,-12.2695,-12.2617,-12.0508,-11.9609,-11.9101,-11.7695,-11.7617,-11.789,-11.7383,-11.7617,-11.8086,-11.8281,-11.8281,-11.8281,-11.8281,-11.8107,-11.8004,-11.7906,-11.7,-11.6094,-11.5979,-11.5206,-11.4599,-11.4484,-11.4407,-11.3907,-11.2906,-11.1598,-11.0598,-11.0483,-10.9713,-10.9213,-10.9213,-10.8598,-10.8482,-10.929,-10.8891,-10.7887,-10.661,-10.6524,-10.64,-10.635,-10.6093,-10.678,-10.8285,-10.8909,-10.9606,-11.0193,-11.0891,-11.1221,-11.1221,-11.1221,-11.0891,-8.6153,-8.7456,-8.9729,-9.5007,-9.4737,-9.6551,0.0,-10.9607,-10.8682,-11.4498,-11.7309,-11.9312,-12.1423,-12.4118,-12.6688,-12.8602,-13.041,-13.1602,-13.1679,-13.1679,-13.141,-13.0718,-13.1295,-13.1679,-13.1679,-13.1691,-13.1702,-13.1679,-13.2098,-13.2598,-13.3378,-13.3307,-13.3608,-13.4388,-13.4012,-13.3789,-13.3789,-13.3789,-13.3789,-13.3789,-13.3789,-13.3789,-13.3789,-13.3789,-13.3398,-13.2617,-13.0898,-13.0586,-13.1093,-12.9297,-12.8593,-12.8593,-12.8515,-12.8515,-12.8203,-12.5703,-12.4883,-12.4804,-12.3711,-12.2383,-12.1093,-12.0781,-11.9687,-11.8398,-11.8203,-11.7695,-11.7304,-11.8008,-11.7695,-11.7304,-11.8086,-11.8281,-11.8281,-11.8281,-11.8281,-11.8196,-11.8004,-11.7794,-11.7521,-11.6996,-11.6789,-11.6599,-11.6292,-11.5599,-11.4599,-11.2906,-11.2522,-11.2214,-11.1406,-11.0598,-11.0098,-11.0098,-10.9983,-11.0291,-11.1098,-11.1132,-11.1008,-11.0699,-11.0718,-11.0695,-11.0607,-10.9944,-10.99,-11.0817,-11.0891,-11.1001,-11.1111,-11.1184,-11.1221,-11.1221,-11.1221,-11.1184,-9.448,-9.5749,-9.6865,-10.0404,-10.2712,-10.5597,-11.1714,-11.2791,-11.3791,-11.7715,-12.0716,-12.2716,-12.3485,-12.5717,-12.7794,-12.8986,-13.0217,-13.0987,-13.0987,-13.0602,-12.9794,-12.8409,-12.8602,-12.941,-13.091,-13.0987,-13.1179,-13.1679,-13.1971,-13.2412,-13.2683,-13.28,-13.3188,-13.37,-13.36,-13.3612,-13.3789,-13.3789,-13.3789,-13.3789,-13.3789,-13.3789,-13.3789,-13.3789,-13.3281,-13.2383,-13.1211,-13.0586,-13.0312,-12.9101,-12.8593,-12.8593,-12.8593,-12.8593,-12.8281,-12.6289,-12.5781,-12.6015,-12.4101,-12.3008,-12.2187,-12.1211,-12.0117,-11.8984,-11.8515,-11.8008,-11.7812,-11.8203,-11.8008,-11.7812,-11.8203,-11.8281,-11.8281,-11.8281,-11.8281,-11.828,-11.8189,-11.7992,-11.7781,-11.7603,-11.721,-11.6789,-11.6093,-11.5969,-11.5176,-11.3022,-11.2714,-11.2406,-11.1598,-11.1214,-11.0791,-11.0291,-11.0714,-11.1098,-11.1522,-11.2406,-11.2905,-11.29,-11.3289,-11.3099,-11.1989,-11.1632,-11.1394,-11.1184,-11.1221,-11.1221,-11.1221,-11.1221,-11.1221,-11.1221,-11.1221,-11.1221,-9.875,-10.0789,-10.2597,-10.4982,-10.9098,-11.2906,-11.4022,-11.5715,-11.7677,-11.9985,-12.2408,-12.4101,-12.4101,-12.5794,-12.7486,-12.8409,-12.9217,-12.9794,-12.9794,-12.8986,-12.7909,-12.6178,-12.5794,-12.6486,-12.8486,-12.9602,-13.0487,-13.1295,-13.1801,-13.2214,-13.2366,-13.2507,-13.2787,-13.3288,-13.3089,-13.3205,-13.3582,-13.3585,-13.3706,-13.3789,-13.3789,-13.3789,-13.3789,-13.3789,-13.3515,-13.2812,-13.1718,-13.0781,-13.0195,-12.9101,-12.8593,-12.8593,-12.8593,-12.8515,-12.8086,-12.6601,-12.6406,-12.6601,-12.4297,-12.3203,-12.2617,-12.1289,-12.0117,-11.9101,-11.8515,-11.8281,-11.8281,-11.8281,-11.8281,-11.8281,-11.8281,-11.8281,-11.8281,-11.8281,-11.8281,-11.8281,-11.8281,-11.8107,-11.7992,-11.7913,-11.7507,-11.7016,-11.6198,-11.6402,-11.5888,-11.3719,-11.3214,-11.2714,-11.1598,-11.1522,-11.1291,-11.0906,-11.1483,-11.1906,-11.2214,-11.3483,-11.4418,-11.4579,-11.4977,-11.4573,-11.3323,-11.2814,-11.2189,-11.1631,-11.1323,-11.1221,-11.1221,-11.1221,-11.1221,-11.1221,-11.1221,-11.1221,-9.5826,-9.9404,-10.4789,-10.8983,-11.2599,-11.6292,-12.0408,-12.1408,-12.1908,-12.3601,-12.3985,-12.4101,-12.4101,-12.4909,-12.5794,-12.6601,-12.7486,-12.8025,-12.8025,-12.7294,-12.6101,-12.4409,-12.3485,-12.3408,-12.4216,-12.7294,-12.9602,-13.0487,-13.1295,-13.2114,-13.2923,-13.2478,-13.2604,-13.3495,-13.2999,-13.2897,-13.3205,-13.3205,-13.3384,-13.3789,-13.3789,-13.3789,-13.3789,-13.3789,-13.3789,-13.3711,-13.1914,-13.1211,-13.1015,-12.9297,-12.8593,-12.8593,-12.8593,-12.8086,-12.7187,-12.6289,-12.6015,-12.5781,-12.4101,-12.2383,-12.1015,-12.0898,-11.9687,-11.8281,-11.8281,-11.8281,-11.8281,-11.8281,-11.8281,-11.8281,-11.8281,-11.8281,-11.8281,-11.8281,-11.8281,-11.8281,-11.8281,-11.8281,-11.8203,-11.8007,-11.7889,-11.7702,-11.7095,-11.6982,-11.6591,-11.5379,-11.4484,-11.3407,-11.1714,-11.1522,-11.1791,-11.2522,-11.2599,-11.3022,-11.3907,-11.4714,-11.5599,-11.6407,-11.5663,-11.521,-11.5116,-11.3427,-11.2509,-11.2468,-11.1557,-11.1221,-11.1221,-11.1221,-11.1221,-11.1221,-11.1221,-11.1221,-10.1597,-10.5713,-10.979,-11.3483,-11.6484,-11.91,-12.11,-12.16,-12.16,-12.16,-12.16,-12.1408,-12.0908,-12.1485,-12.2716,-12.4716,-12.5717,-12.6409,-12.6986,-12.7294,-12.5986,-12.21,-12.2793,-12.2908,-12.0985,-12.3793,-12.6909,-12.941,-12.991,-13.0679,-13.2102,-13.1992,-13.2121,-13.2605,-13.2481,-13.2503,-13.2897,-13.2897,-13.2898,-13.3106,-13.3106,-13.3106,-13.3106,-13.3106,-13.3191,-13.3306,-13.2195,-13.1894,-13.1914,-13.0195,-12.9492,-12.9297,-12.8203,-12.7617,-12.7109,-12.5703,-12.5195,-12.5,-12.3203,-12.1914,-12.0781,-12.0195,-11.9218,-11.8281,-11.8281,-11.8281,-11.8281,-11.8281,-11.8281,-11.8281,-11.8281,-11.8281,-11.8281,-11.8281,-11.8281,-11.8281,-11.8281,-11.8281,-11.8281,-11.8203,-11.8013,-11.7807,-11.7602,-11.7297,-11.6627,-11.5489,-11.4599,-11.3599,-11.2406,-11.2291,-11.2406,-11.2714,-11.2714,-11.2791,-11.3099,-11.4484,-11.5407,-11.5676,-11.5916,-11.5766,-11.5172,-11.4573,-11.3701,-11.2471,-11.2152,-11.181,-11.1221,-11.1221,-11.1221,-11.1221,-11.1221,-11.1221,-10.6521,-11.0021,-11.2906,-11.6907,-11.9292,-12.0908,-12.1485,-12.11,-12.0408,-11.9177,-11.8215,-11.7292,-11.6484,-11.6599,-11.7792,-12.1293,-12.2601,-12.3793,-12.5486,-12.6217,-12.5216,-12.1716,-12.2408,-12.2485,-12.06,-12.2408,-12.4986,-12.8102,-12.9217,-13.0294,-13.1602,-13.1679,-13.18,-13.2014,-13.2014,-13.218,-13.2503,-13.2503,-13.26,-13.2696,-13.2696,-13.2696,-13.2696,-13.2696,-13.2808,-13.3015,-13.2214,-13.1788,-13.1703,-13.0297,-12.9604,-12.9297,-12.789,-12.7109,-12.6718,-12.5312,-12.4609,-12.4101,-12.2695,-12.1601,-12.0781,-11.9883,-11.8984,-11.8281,-11.8281,-11.8281,-11.8281,-11.8281,-11.8281,-11.8281,-11.8281,-11.8281,-11.8281,-11.8281,-11.8281,-11.8281,-11.8281,-11.8281,-11.8281,-11.8281,-11.8189,-11.7999,-11.7882,-11.7414,-11.6476,-11.5164,-11.4883,-11.4599,-11.3714,-11.3099,-11.2791,-11.3099,-11.2906,-11.2791,-11.3099,-11.4214,-11.5099,-11.5676,-11.5907,-11.5878,-11.5715,-11.5413,-11.4709,-11.3534,-11.2814,-11.2232,-11.1679,-11.136,-11.1221,-11.1221,-11.1221,-11.1221,-11.0021,-11.2291,-11.4214,-11.91,-12.0908,-12.1485,-12.1408,-11.9985,-11.8292,-11.6484,-11.4099,-11.2022,-11.1098,-11.0483,-11.1791,-11.6792,-11.8484,-12.0408,-12.3793,-12.4293,-12.3985,-12.3101,-12.2408,-12.2216,-12.2908,-12.3101,-12.4216,-12.6601,-12.8986,-13.0794,-13.1679,-13.1679,-13.1679,-13.1679,-13.1679,-13.1895,-13.2219,-13.2219,-13.2284,-13.2605,-13.2605,-13.2605,-13.2605,-13.2605,-13.2683,-13.2605,-13.1814,-13.1182,-13.0683,-12.9798,-12.9096,-12.8593,-12.7617,-12.6718,-12.5898,-12.5,-12.4218,-12.3398,-12.25,-12.1601,-12.0703,-11.9804,-11.8984,-11.8281,-11.8281,-11.8281,-11.8281,-11.8281,-11.8281,-11.8281,-11.8281,-11.8281,-11.8281,-11.8281,-11.8281,-11.8281,-11.8281,-11.8281,-11.8281,-11.8281,-11.8281,-11.8203,-11.789,-11.739,-11.6522,-11.479,-11.5707,-11.6221,-11.5291,-11.3791,-11.3099,-11.3907,-11.3214,-11.3099,-11.3907,-11.3984,-11.4791,-11.6407,-11.5792,-11.5676,-11.6484,-11.5715,-11.5228,-11.521,-11.3496,-11.2586,-11.2509,-11.1679,-11.1236,-11.1221,-11.1221,-11.1221,-11.2291,-11.5792,-11.8715,-11.9985,-12.0485,-12.0292,-11.91,-11.6484,-11.3714,-11.1291,-10.829,-10.5713,-10.4212,-10.679,-11.0483,-11.4291,-11.8292,-12.2177,-12.5601,-12.7101,-12.7101,-12.4986,-12.6217,-12.6294,-12.3985,-12.5524,-12.6909,-12.7525,-12.8217,-12.9487,-13.1602,-13.1679,-13.1679,-13.1679,-13.1679,-13.1702,-13.1809,-13.1809,-13.1903,-13.2,-13.2,-13.2,-13.2,-13.2,-13.2077,-13.2276,-13.1704,-13.1607,-13.1616,-13.0314,-12.9684,-12.9414,-12.7187,-12.6211,-12.5781,-12.4414,-12.3711,-12.3281,-12.1797,-12.1093,-12.0586,-11.9101,-11.8515,-11.8281,-11.8281,-11.8281,-11.8281,-11.8281,-11.8281,-11.8281,-11.8281,-11.8281,-11.8281,-11.8281,-11.8281,-11.8281,-11.8281,-11.8281,-11.8281,-11.8281,-11.8281,-11.82,-11.7882,-11.782,-11.739,-11.6515,-11.6585,-11.6287,-11.4566,-11.3907,-11.3791,-11.3984,-11.3214,-11.3099,-11.3907,-11.4599,-11.5407,-11.6407,-11.6292,-11.6292,-11.6484,-11.6309,-11.5893,-11.5172,-11.4693,-11.3798,-11.2509,-11.2269,-11.1819,-11.1221,-11.1221,-11.1221,-11.5215,-11.7984,-11.9792,-11.9792,-11.9215,-11.7792,-11.4599,-11.1791,-10.8598,-10.3789,-10.1597,-9.9827,-9.7326,-10.1597,-10.6713,-11.0098,-11.5907,-12.1408,-12.5486,-12.7602,-12.8217,-12.7217,-12.8294,-12.8409,-12.6486,-12.7602,-12.8602,-12.8986,-12.8986,-12.9794,-13.1602,-13.1679,-13.1679,-13.1679,-13.1679,-13.1679,-13.1679,-13.1679,-13.1679,-13.1679,-13.1679,-13.1679,-13.1679,-13.1679,-13.1795,-13.1884,-13.1326,-13.1113,-13.1086,-12.9889,-12.9181,-12.8593,-12.6718,-12.5781,-12.5312,-12.3984,-12.3515,-12.3281,-12.1914,-12.1211,-12.0586,-11.8906,-11.8281,-11.8281,-11.8281,-11.8281,-11.8281,-11.8281,-11.8281,-11.8281,-11.8281,-11.8281,-11.8281,-11.8281,-11.8281,-11.8281,-11.8281,-11.8281,-11.8281,-11.8281,-11.8281,-11.8319,-11.8097,-11.8014,-11.7715,-11.6897,-11.69,-11.6276,-11.4395,-11.4116,-11.3907,-11.3483,-11.2983,-11.3099,-11.3907,-11.4407,-11.5215,-11.6407,-11.6176,-11.6099,-11.6484,-11.6484,-11.6309,-11.5804,-11.5375,-11.4731,-11.3739,-11.2926,-11.2195,-11.1847,-11.141,-11.1221,-11.8215,-11.9292,-11.9215,-11.8985,-11.7407,-11.4676,-10.9598,-10.6713,-10.3097,-9.5826,-9.4749,-9.4172,-9.1095,-9.6057,-10.1904,-10.579,-11.2599,-11.9408,-12.4986,-12.6986,-12.8294,-12.941,-12.9487,-12.9487,-12.9487,-12.9487,-12.991,-13.0794,-13.0794,-13.1102,-13.1679,-13.1679,-13.1679,-13.1679,-13.1679,-13.1679,-13.1679,-13.1679,-13.1679,-13.1679,-13.1679,-13.1679,-13.1679,-13.1679,-13.1679,-13.1679,-13.0817,-13.028,-13.0089,-12.9218,-12.8183,-12.7303,-12.6406,-12.5586,-12.5,-12.3984,-12.3711,-12.3515,-12.2695,-12.1797,-12.0781,-11.8984,-11.8398,-11.8281,-11.8281,-11.8281,-11.8281,-11.8281,-11.8281,-11.8281,-11.8281,-11.8281,-11.8281,-11.8281,-11.8281,-11.8281,-11.8281,-11.8281,-11.8281,-11.8281,-11.8281,-11.8281,-11.8281,-11.8097,-11.7682,-11.6891,-11.6913,-11.6483,-11.479,-11.4278,-11.3791,-11.2983,-11.2906,-11.3214,-11.4099,-11.4214,-11.4791,-11.6407,-11.5792,-11.5792,-11.6484,-11.6484,-11.6484,-11.6484,-11.5804,-11.5321,-11.521,-11.3634,-11.2664,-11.2546,-11.1689,-11.1323,-11.9485,-12.01,-11.9792,-11.8407,-11.5715,-11.1983,-10.6905,-10.2289,-9.748,-9.1941,-8.9787,-8.8556,-8.7248,-9.2556,-9.9211,-10.5405,-11.1714,-11.8484,-12.6409,-12.7717,-12.8717,-13.0987,-13.1295,-13.1295,-13.1295,-13.1295,-13.1602,-13.2487,-13.2603,-13.2295,-13.1679,-13.1679,-13.1679,-13.1679,-13.1679,-13.1679,-13.1679,-13.1679,-13.1679,-13.1679,-13.1679,-13.1679,-13.1679,-13.1679,-13.1679,-13.1614,-13.0383,-12.9818,-12.9724,-12.8689,-12.8107,-12.7822,-12.6518,-12.6406,-12.6718,-12.5117,-12.4609,-12.4414,-12.3593,-12.2695,-12.1718,-11.9883,-11.8906,-11.8281,-11.8281,-11.8281,-11.8281,-11.8281,-11.8281,-11.8281,-11.8281,-11.8281,-11.8281,-11.8281,-11.8281,-11.8281,-11.8281,-11.8281,-11.8281,-11.8281,-11.8281,-11.8281,-11.8281,-11.8319,-11.8111,-11.7682,-11.7507,-11.6921,-11.563,-11.5166,-11.4714,-11.3907,-11.3791,-11.4099,-11.4984,-11.5099,-11.5484,-11.6407,-11.6407,-11.6407,-11.6484,-11.6484,-11.6484,-11.6484,-11.6393,-11.5905,-11.521,-11.4887,-11.4005,-11.2509,-11.2274,-11.1856,-12.0023,-12.0023,-11.9292,-11.76,-11.3907,-10.9021,-10.2597,-9.7904,-9.3095,-8.6632,-8.5747,-8.5555,-8.3824,-8.9787,-9.6172,-9.9865,-10.6213,-11.3791,-12.2716,-12.4293,-12.6409,-13.1102,-13.1679,-13.191,-13.2295,-13.241,-13.2679,-13.3603,-13.368,-13.3487,-13.3103,-13.3103,-13.2795,-13.241,-13.241,-13.2179,-13.1679,-13.1679,-13.1679,-13.1679,-13.1679,-13.1679,-13.1679,-13.1679,-13.1679,-13.1564,-13.063,-13.0005,-12.9622,-12.8724,-12.791,-12.739,-12.6707,-12.6512,-12.6484,-12.5703,-12.539,-12.539,-12.4883,-12.3984,-12.2695,-12.1914,-12.0703,-11.9609,-11.9101,-11.8984,-11.8906,-11.8398,-11.8281,-11.8281,-11.8281,-11.8281,-11.8281,-11.8281,-11.8281,-11.8281,-11.8281,-11.8281,-11.8281,-11.8281,-11.8281,-11.8281,-11.8281,-11.8281,-11.8319,-11.8102,-11.7884,-11.7216,-11.6079,-11.6112,-11.559,-11.422,-11.4407,-11.4791,-11.5291,-11.5676,-11.6099,-11.6484,-11.6484,-11.6484,-11.6484,-11.6907,-11.6984,-11.6484,-11.7407,-11.7192,-11.5905,-11.5926,-11.5208,-11.394,-11.2851,-11.2269,-11.9861,-11.96,-11.86,-11.6676,-11.2291,-10.6405,-9.8942,-9.4364,-8.9671,-8.2554,-8.2708,-8.3516,-8.1708,-8.7094,-9.2556,-9.4903,-10.0904,-10.879,-11.8715,-12.11,-12.4293,-13.0679,-13.1795,-13.2179,-13.291,-13.318,-13.3603,-13.4487,-13.4718,-13.4718,-13.4295,-13.4295,-13.3987,-13.3295,-13.3295,-13.291,-13.1987,-13.1987,-13.191,-13.1679,-13.1679,-13.1679,-13.1679,-13.1679,-13.1679,-13.1679,-13.0794,-13.0198,-12.9508,-12.8696,-12.7811,-12.6911,-12.6807,-12.6698,-12.6401,-12.6288,-12.6289,-12.6289,-12.6289,-12.5195,-12.3789,-12.3789,-12.25,-12.0703,-11.9883,-11.9609,-11.9414,-11.8515,-11.8281,-11.8281,-11.8281,-11.8281,-11.8281,-11.8281,-11.8398,-11.8515,-11.8281,-11.8398,-11.8515,-11.8281,-11.8281,-11.8281,-11.8281,-11.8281,-11.8281,-11.8281,-11.8091,-11.7612,-11.6709,-11.6921,-11.6499,-11.4815,-11.5225,-11.5599,-11.5599,-11.6099,-11.6599,-11.6792,-11.6792,-11.6907,-11.6984,-11.7715,-11.7792,-11.71,-11.8215,-11.81,-11.6792,-11.6813,-11.6177,-11.521,-11.4078,-11.3225,-11.9215,-11.9215,-11.8523,-11.5984,-11.0983,-10.4789,-9.798,-9.2595,-8.7517,-8.2208,-8.1285,-8.1593,-8.2093,-8.4132,-8.8017,-9.5057,-9.9327,-10.5905,-11.76,-12.1293,-12.4716,-12.9987,-13.1987,-13.291,-13.2987,-13.368,-13.4487,-13.5295,-13.6103,-13.5911,-13.4411,-13.4295,-13.4295,-13.4218,-13.4218,-13.3795,-13.2872,-13.2872,-13.2487,-13.1679,-13.1679,-13.1679,-13.1679,-13.1679,-13.1679,-13.1679,-13.0794,-12.9998,-12.921,-12.8617,-12.7878,-12.7081,-12.6876,-12.7312,-12.7802,-12.7414,-12.7187,-12.7187,-12.7187,-12.6093,-12.4687,-12.4687,-12.3008,-12.0703,-11.9883,-11.9609,-11.9414,-11.8515,-11.8281,-11.8281,-11.8281,-11.8281,-11.8281,-11.8281,-11.8906,-11.9297,-11.8515,-11.8906,-11.9218,-11.8515,-11.8281,-11.8281,-11.8281,-11.8281,-11.8281,-11.8281,-11.8091,-11.7895,-11.7806,-11.7488,-11.7193,-11.6804,-11.6476,-11.6407,-11.6407,-11.6484,-11.6792,-11.76,-11.7715,-11.8023,-11.8792,-11.8908,-11.8908,-11.8908,-11.8215,-11.7792,-11.7715,-11.7708,-11.6798,-11.521,-11.6622,-11.5535,-11.84,-11.8669,-11.783,-11.583,-11.0829,-10.4597,-9.7827,-9.2364,-8.7248,-8.2131,-8.1093,-8.1208,-8.1516,-8.2554,-8.517,-9.0825,-9.3249,-9.825,-10.9098,-11.2906,-11.7484,-12.5717,-12.8602,-13.1102,-13.418,-13.4795,-13.5411,-13.618,-13.6603,-13.6488,-13.5795,-13.5795,-13.5603,-13.4988,-13.4988,-13.4411,-13.2987,-13.2987,-13.2603,-13.1679,-13.1679,-13.1679,-13.1679,-13.1679,-13.1679,-13.1679,-13.141,-13.0794,-12.9871,-12.9235,-12.8536,-12.7798,-12.7404,-12.7591,-12.8104,-12.8117,-12.8086,-12.8086,-12.8086,-12.6992,-12.5508,-12.5508,-12.4101,-12.2187,-12.0781,-12.039,-12.0117,-11.8711,-11.8281,-11.8281,-11.8281,-11.8281,-11.8281,-11.8281,-11.8593,-11.8711,-11.8398,-11.8593,-11.8711,-11.8398,-11.8281,-11.8281,-11.8281,-11.8281,-11.8281,-11.8281,-11.8198,-11.8091,-11.7906,-11.7793,-11.7488,-11.7103,-11.69,-11.671,-11.649,-11.6984,-11.7407,-11.7792,-11.8292,-11.8715,-11.91,-11.96,-11.96,-11.91,-11.9792,-11.96,-11.86,-11.91,-11.8691,-11.7603,-11.818,-11.7512,-11.6316,-11.7285,-11.7023,-11.5016,-11.0397,-10.4593,-9.752,-9.2172,-8.7281,-8.2131,-8.1093,-8.1093,-8.1093,-8.1747,-8.3632,-8.7671,-8.9633,-9.4249,-10.4405,-10.829,-11.3407,-12.2716,-12.5794,-12.8986,-13.3603,-13.518,-13.6103,-13.6796,-13.6796,-13.6796,-13.6796,-13.6796,-13.6411,-13.5488,-13.5488,-13.468,-13.2987,-13.2987,-13.2603,-13.1679,-13.1679,-13.1679,-13.1679,-13.1679,-13.1679,-13.1679,-13.1679,-13.1179,-13.0487,-12.9794,-12.9073,-12.8192,-12.7915,-12.7879,-12.7988,-12.8283,-12.8513,-12.8593,-12.8593,-12.75,-12.6015,-12.6015,-12.4883,-12.3203,-12.1406,-12.1093,-12.0898,-11.8906,-11.8281,-11.8281,-11.8281,-11.8281,-11.8281,-11.8281,-11.8515,-11.8593,-11.8398,-11.8515,-11.8593,-11.8398,-11.8281,-11.8281,-11.8281,-11.8281,-11.8281,-11.8281,-11.8281,-11.82,-11.7999,-11.7992,-11.7781,-11.7297,-11.721,-11.7003,-11.6534,-11.71,-11.76,-11.8215,-11.8792,-11.9292,-11.9792,-12.0408,-12.0408,-11.9908,-12.0677,-12.06,-11.9485,-11.9985,-11.9985,-11.9523,-11.9929,-11.967,-11.2274,-11.4593,-11.5907,-11.3395,-10.9502,-10.439,-9.6751,-9.1745,-8.7237,-8.2131,-8.1093,-8.1093,-8.1093,-8.1747,-8.3401,-8.6863,-9.0248,-9.6019,-10.6213,-11.0598,-11.5215,-12.21,-12.4409,-12.6794,-13.0217,-13.4295,-13.6796,-13.6796,-13.6796,-13.6796,-13.6796,-13.6796,-13.6411,-13.5488,-13.5488,-13.468,-13.2987,-13.2987,-13.2603,-13.1679,-13.1679,-13.1679,-13.1679,-13.1679,-13.1679,-13.1679,-13.1679,-13.1179,-13.0487,-13.0487,-12.9487,-12.7881,-12.8308,-12.8077,-12.7607,-12.8012,-12.8283,-12.8593,-12.8593,-12.75,-12.6015,-12.6015,-12.4883,-12.3203,-12.1406,-12.1484,-12.1601,-11.8984,-11.8281,-11.8281,-11.8281,-11.8281,-11.8281,-11.8281,-11.8984,-11.9414,-11.8515,-11.8984,-11.9297,-11.8515,-11.8281,-11.8281,-11.8281,-11.8281,-11.8281,-11.8281,-11.8281,-11.8281,-11.8281,-11.8281,-11.8196,-11.7906,-11.7603,-11.72,-11.6573,-11.6484,-11.7176,-11.8985,-11.91,-11.9792,-12.1485,-12.16,-12.16,-12.16,-12.0716,-12.0292,-12.0292,-12.0292,-12.0292,-12.0292,-12.21,-12.241,-10.427,-10.592,-10.6221,-10.3097,-10.0913,-9.7963,-9.2065,-8.9186,-8.6709,-8.2747,-8.1939,-8.1939,-8.1939,-8.2631,-8.5247,-9.1556,-9.4018,-9.8057,-10.6521,-11.1598,-11.6407,-12.1408,-12.8602,-13.3603,-13.468,-13.5988,-13.6988,-13.7603,-13.7103,-13.7103,-13.768,-13.7103,-13.668,-13.6411,-13.6411,-13.5603,-13.391,-13.391,-13.318,-13.1679,-13.1679,-13.1679,-13.1679,-13.1679,-13.1679,-13.1679,-13.1679,-13.1602,-13.1295,-13.0718,-13.0217,-12.9575,-12.8693,-12.8689,-12.8931,-12.8089,-12.8324,-12.9119,-12.8494,-12.7285,-12.6015,-12.6015,-12.4883,-12.3281,-12.2109,-12.1601,-12.1015,-11.9609,-11.8789,-11.8398,-11.8984,-11.8711,-11.8281,-11.8281,-11.8515,-11.8593,-11.8398,-11.8515,-11.8593,-11.8398,-11.8281,-11.8281,-11.8281,-11.8281,-11.8281,-11.8281,-11.8281,-11.8281,-11.8281,-11.8281,-11.8196,-11.7917,-11.7807,-11.7506,-11.6898,-11.7202,-11.7907,-11.8985,-11.96,-12.0408,-12.16,-12.16,-12.1293,-12.0716,-12.0985,-12.0908,-12.0292,-12.0908,-12.1485,-12.21,-12.1985,-12.1489,-9.7786,-9.9785,-10.0095,-9.7672,-9.6213,-9.4062,-8.9305,-8.7302,-8.5588,-8.2477,-8.183,-8.1946,-8.2215,-8.3016,-8.5593,-9.1633,-9.4134,-9.8096,-10.6097,-11.1291,-11.6484,-12.2293,-12.9987,-13.4911,-13.4911,-13.5988,-13.6988,-13.7603,-13.7103,-13.6988,-13.7603,-13.7103,-13.6796,-13.6796,-13.6488,-13.568,-13.4295,-13.3987,-13.3295,-13.2179,-13.191,-13.1679,-13.1679,-13.1679,-13.1679,-13.1679,-13.1679,-13.1679,0.0,-13.1179,-13.0794,-13.0421,-12.9215,-12.8888,-12.9118,-12.7876,-12.8011,-12.8682,-12.8211,-12.7314,-12.6313,-12.6092,-12.4609,-12.289,-12.2383,-12.1601,-12.0781,-12.0195,-11.9492,-11.8789,-11.9101,-11.8711,-11.8281,-11.8281,-11.8281,-11.8281,-11.8281,-11.8281,-11.8281,-11.8281,-11.8281,-11.8281,-11.8281,-11.8281,-11.8281,-11.8281,-11.8281,-11.8281,-11.8281,-11.8281,-11.82,-11.8091,-11.8004,-11.781,-11.7705,-11.7596,-11.7973,-11.8985,-11.96,-12.0408,-12.16,-12.1293,-12.0908,-12.0292,-12.0793,-12.0793,-12.0292,-12.1485,-12.2408,-12.2908,-12.2293,-12.1793,0.0,-9.5307,-9.6352,-9.5463,-9.408,-9.194,-8.7868,-8.5824,0.0,-8.1701,-8.1177,-8.1523,-8.2529,-8.3292,-8.5055,-8.8974,-9.2287,-9.7326,-10.5713,-11.0791,-11.6792,-12.4986,-12.9602,-13.2102,-13.2102,-13.4988,-13.6796,-13.6988,-13.6911,-13.6796,-13.6911,-13.6796,-13.6796,-13.6796,-13.5988,-13.5103,-13.4295,-13.3603,-13.3103,-13.2872,-13.2102,-13.1795,-13.1679,-13.1679,-13.1679,-13.1679,-13.1679,-13.1679,-13.1679,-13.1679,-13.1179,-13.041,-12.9487,-12.8894,-12.8309,-12.7418,-12.7308,-12.7676,-12.7902,-12.7509,-12.6688,-12.6083,-12.4296,-12.2304,-12.2304,-12.1601,-12.0898,-12.1015,-12.0312,-11.9414,-11.8711,-11.8398,-11.8281,-11.8281,-11.8281,-11.8281,-11.8281,-11.8281,-11.8281,-11.8281,-11.8281,-11.8281,-11.8281,-11.8281,-11.8281,-11.8281,-11.8281,-11.8281,-11.8281,-11.8281,-11.8281,-11.8281,-11.8091,-11.8119,-11.8614,-11.7676,-11.7675,-11.9107,-11.9215,-11.9908,-12.1408,-12.0716,-12.0292,-12.0216,-12.0292,-12.0292,-12.0408,-12.1985,-12.2793,-12.2793,-12.2793,-12.2793,-8.3939,0.0,-8.7364,-8.5221,-8.5337,-8.5375,0.0,-8.3279,-8.3541,-8.2278,-8.2047,-8.3086,-8.6576,-8.628,-8.832,-9.6922,-10.0131,-10.3789,-11.0291,-11.8292,-12.5601,-13.1487,-13.4218,-13.5911,-13.6488,-13.668,-13.7296,-13.8604,-13.7488,-13.7103,-13.7796,-13.718,-13.6796,-13.6796,-13.5988,-13.5103,-13.4295,-13.4718,-13.391,-13.1987,-13.2487,-13.2295,-13.1679,-13.1679,-13.1679,-13.1679,-13.1679,-13.1679,-13.1679,-13.1679,-13.1179,-13.041,-12.9487,-12.9123,-12.8803,-12.73,-12.7377,-12.8095,-12.7495,-12.6913,-12.6175,-12.5115,-12.3999,-12.3203,-12.3203,-12.2109,-12.1015,-12.1718,-12.0781,-11.9687,-12.0195,-11.9297,-11.8281,-11.8281,-11.8281,-11.8281,-11.8281,-11.8281,-11.8281,-11.8281,-11.8281,-11.8281,-11.8281,-11.8281,-11.8281,-11.8281,-11.8281,-11.8281,-11.8281,-11.8281,-11.8281,-11.8281,-11.82,-11.8214,-11.808,-11.7997,-11.8487,-11.9915,-11.9985,-12.0216,-12.06,-12.0408,-11.9985,-11.9408,-11.9985,-12.06,-12.1293,-12.1677,-12.1908,-12.1908,-12.1908,-12.1908,-8.1093,-8.3233,-8.5144,-8.3734,-8.4073,-8.4497,-8.358,-8.2925,-8.2317,-8.1855,-8.1778,-8.2964,-8.6801,-8.7396,-9.0133,-9.873,-10.2321,-10.6912,-11.5566,-12.3485,-12.991,-13.3795,-13.5795,-13.7103,-13.7988,-13.768,-13.7796,-13.8681,-13.7911,-13.7411,-13.7488,-13.7103,-13.6796,-13.6796,-13.5988,-13.5295,-13.4911,-13.4487,-13.368,-13.2295,-13.241,-13.2179,-13.1679,-13.1679,-13.1679,-13.1679,-13.1679,-13.1679,-13.1679,-13.1295,-13.1102,-13.091,-12.9717,-12.9217,-12.8986,-12.7717,-12.7415,-12.7606,-12.7225,-12.6486,-12.5583,-12.458,-12.3605,-12.2715,-12.2889,-12.1992,-12.1015,-12.1484,-12.0586,-11.9609,-11.9687,-11.8984,-11.8281,-11.8281,-11.8281,-11.8281,-11.8281,-11.8281,-11.8281,-11.8281,-11.8281,-11.8281,-11.8281,-11.8281,-11.8281,-11.8281,-11.8281,-11.8281,-11.8281,-11.8281,-11.8281,-11.8281,-11.8281,-11.831,-11.8414,-11.8579,-11.8821,-11.9298,-11.9196,-11.9292,-11.9715,-11.9715,-11.9715,-11.9715,-11.9715,-12.0408,-12.16,-12.16,-12.16,-12.16,-12.16,-12.16,-8.19,-8.4516,-8.6791,-8.578,-8.5928,-8.6197,-8.5799,-8.3503,-8.1477,-8.1477,-8.1701,-8.2964,-8.6601,-8.8671,-9.2136,-9.9046,-10.3283,-10.9688,-12.1006,-12.6996,-13.1295,-13.4103,-13.5911,-13.7103,-13.7988,-13.7988,-13.7988,-13.8104,-13.7988,-13.7603,-13.6796,-13.6796,-13.668,-13.6603,-13.5795,-13.5295,-13.5103,-13.3987,-13.318,-13.2795,-13.2295,-13.1987,-13.1679,-13.1679,-13.1679,-13.1679,-13.1679,-13.1602,-13.1487,-13.0794,-13.0718,-13.0987,-12.9602,-12.8909,-12.8717,-12.7986,-12.7294,-12.6698,-12.6797,-12.5995,-12.4889,-12.4186,-12.2903,-12.1708,-12.19,-12.1286,-12.0583,-12.0703,-12.0195,-11.9414,-11.8711,-11.8398,-11.8281,-11.8281,-11.8281,-11.8281,-11.8281,-11.8281,-11.8281,-11.8281,-11.8281,-11.8281,-11.8281,-11.8281,-11.8281,-11.8281,-11.8281,-11.8281,-11.8281,-11.8281,-11.8281,-11.8281,-11.8281,-11.8508,-11.8902,-11.8921,-11.8712,-11.8097,-11.8101,-11.8382,-11.91,-11.8985,-11.9292,-12.0292,-11.96,-11.9985,-12.16,-12.16,-12.16,-12.16,-12.16,-12.16,-8.544,-8.8882,-9.006,-8.4327,-8.5054,-8.6621,-8.4472,-8.358,-8.3233,-8.3233,-8.4342,-8.6832,-9.1701,-9.4005,-9.7596,-10.51,-11.092,-11.7279,-12.562,-12.8112,-13.0679,-13.4795,-13.618,-13.7103,-13.7988,-13.7411,-13.7296,-13.7988,-13.7411,-13.6911,-13.6796,-13.6796,-13.6488,-13.5719,-13.4911,-13.4103,-13.341,-13.4487,-13.3987,-13.191,-13.3295,-13.3103,-13.1679,-13.1679,-13.1679,-13.1679,-13.1679,-13.1295,-13.0679,-13.0602,-12.9717,-12.8486,-12.8217,-12.7717,-12.7101,-12.6909,-12.6794,-12.6563,-12.5889,-12.5211,-12.4383,-12.2899,-12.1922,-12.1306,-12.081,-12.0122,-11.9514,-11.9685,-11.9687,-11.9609,-11.9414,-11.8906,-11.8281,-11.8281,-11.8281,-11.8281,-11.8281,-11.8281,-11.8281,-11.8281,-11.8281,-11.8281,-11.8281,-11.8281,-11.8281,-11.8281,-11.8281,-11.8281,-11.8281,-11.8281,-11.8281,-11.8281,-11.8281,-11.8281,-11.8396,-11.8194,-11.7881,-11.7512,-11.8601,-11.9183,-11.9061,-11.8407,-11.8715,-12.0292,-12.0216,-12.06,-12.16,-12.16,-12.16,-12.16,-12.16,-12.16,-8.2449,-8.6374,-8.92,-8.6004,-8.9112,-9.2345,-9.0287,-8.8727,-8.7732,-8.7693,-8.8303,-9.0114,-9.4348,-9.7219,-10.1902,-11.0778,-11.6441,-12.1319,-12.6213,-12.8796,-13.141,-13.4334,-13.5911,-13.7103,-13.7988,-13.768,-13.768,-13.8104,-13.768,-13.7296,-13.6796,-13.6411,-13.5911,-13.5488,-13.4295,-13.341,-13.2987,-13.3795,-13.3295,-13.1679,-13.2487,-13.2487,-13.1679,-13.1679,-13.1679,-13.1679,-13.1679,-13.1179,-13.0487,-12.9987,-12.9294,-12.8602,-12.8102,-12.7717,-12.7294,-12.6909,-12.6409,-12.5909,-12.4986,-12.4287,-12.339,-12.1923,-12.0889,-12.0197,-11.9689,-11.8924,-11.8317,-11.8405,-11.8598,-11.8906,-11.8906,-11.8593,-11.8281,-11.8281,-11.8281,-11.8281,-11.8281,-11.8281,-11.8281,-11.8281,-11.8281,-11.8281,-11.8281,-11.8281,-11.8281,-11.8281,-11.8281,-11.8281,-11.8281,-11.8281,-11.8281,-11.8281,-11.8281,-11.8281,-11.8281,-11.8193,-11.7806,-11.7217,-11.7594,-11.7977,-11.8407,-11.76,-11.81,-12.0292,-11.9908,-12.0292,-12.16,-12.21,-12.2293,-12.2293,-12.2293,-12.2485,-8.0415,-8.4193,-8.8035,-8.8552,-9.2492,-9.612,-9.599,-9.3829,-9.2144,-9.3066,-9.3524,-9.4548,-9.6942,-10.107,-10.6983,-11.5588,-12.0414,-12.3797,-12.6297,-12.8995,-13.1499,-13.3422,-13.5089,-13.6411,-13.7103,-13.7411,-13.7411,-13.718,-13.7411,-13.718,-13.6488,-13.5911,-13.5411,-13.5218,-13.3795,-13.2872,-13.2679,-13.2679,-13.241,-13.1679,-13.191,-13.191,-13.1679,-13.1679,-13.1679,-13.1679,-13.1679,-13.1102,-13.0102,-12.9487,-12.8986,-12.8486,-12.7909,-12.7602,-12.7486,-12.6678,-12.5986,-12.5216,-12.4216,-12.3408,-12.2732,-12.1193,-12.011,-11.9294,-11.881,-11.7984,-11.7309,-11.7419,-11.791,-11.8297,-11.8102,-11.8111,-11.8196,-11.8196,-11.8319,-11.8281,-11.8281,-11.8281,-11.8281,-11.8281,-11.8281,-11.8281,-11.8281,-11.8281,-11.8281,-11.8281,-11.8281,-11.8281,-11.8281,-11.8281,-11.8281,-11.8281,-11.8281,-11.8281,-11.8281,-11.82,-11.7906,-11.7103,-11.6789,-11.7001,-11.7792,-11.6984,-11.7677,-12.0292,-11.9485,-11.9985,-12.1908,-12.2601,-12.3024,-12.3216,-12.3216,-12.3485,-8.3974,-8.6422,-8.8517,-9.0963,-9.1833,-9.3136,-9.7432,-9.5908,-9.4691,-9.8492,-10.0483,-10.152,-10.1019,-10.7473,-11.4397,-11.8806,-12.2403,-12.5427,-12.8004,-12.8556,-12.9711,-13.2213,-13.3499,-13.4205,-13.4282,-13.5103,-13.5411,-13.4603,-13.5295,-13.568,-13.5603,-13.5488,-13.5218,-13.4411,-13.3487,-13.2603,-13.1795,-13.1795,-13.1795,-13.1679,-13.2487,-13.2487,-13.1679,-13.1679,-13.1679,-13.1679,-13.1679,-13.0794,-12.9294,-12.9217,-12.8294,-12.6909,-12.6794,-12.6794,-12.6678,-12.5794,-12.5486,-12.5178,-12.3485,-12.2908,-12.2601,-12.0877,-11.9761,-11.9009,-11.8404,-11.769,-11.7089,-11.7309,-11.8009,-11.8519,-11.7701,-11.7709,-11.7917,-11.7917,-11.8102,-11.8281,-11.8281,-11.8281,-11.8281,-11.8281,-11.8281,-11.8281,-11.8281,-11.8281,-11.8281,-11.8281,-11.8281,-11.8281,-11.8281,-11.8281,-11.8281,-11.8281,-11.8281,-11.8281,-11.8281,-11.8091,-11.7793,-11.738,-11.7112,-11.7213,-11.7792,-11.6984,-11.7677,-12.0292,-11.9485,-12.0292,-12.2793,-12.2908,-12.3293,-12.3985,-12.3985,-12.3985,-7.9948,-8.4509,-8.9092,-9.0083,-9.3296,-9.6843,-9.9145,-10.0326,-10.183,-10.5422,-10.6571,-10.708,-10.7361,-11.1224,-11.5607,-11.9128,-12.2001,-12.4703,-12.7206,-12.8125,-12.9108,-13.0461,-13.164,-13.2477,-13.3123,-13.3474,-13.391,-13.4295,-13.4988,-13.5295,-13.4795,-13.4795,-13.4411,-13.3487,-13.2603,-13.1987,-13.1679,-13.1679,-13.1679,-13.1679,-13.1987,-13.1987,-13.1679,-13.1679,-13.1679,-13.1679,-13.1179,-13.0294,-12.9217,-12.8602,-12.7717,-12.6678,-12.6678,-12.6678,-12.6601,-12.5678,-12.5101,-12.4409,-12.3293,-12.2485,-12.1908,-12.0716,-12.01,-11.9607,-11.8324,-11.8095,-11.8175,-11.7793,-11.8292,-11.8706,-11.7673,-11.7916,-11.8283,-11.7989,-11.8014,-11.8097,-11.8319,-11.8281,-11.8281,-11.8281,-11.8281,-11.8281,-11.8281,-11.8281,-11.8281,-11.8281,-11.8281,-11.8281,-11.8281,-11.8281,-11.8281,-11.8281,-11.8281,-11.8281,-11.8281,-11.8196,-11.7999,-11.7686,-11.7283,-11.7018,-11.7029,-11.7215,-11.7984,-11.9485,-11.9715,-12.06,-12.21,-12.2601,-12.3293,-12.4101,-12.4101,-12.4716,-7.8846,-8.3838,-8.9271,-9.0335,-9.4703,-9.9475,-10.2301,-10.4483,-10.7132,-11.1247,-11.1632,-11.1441,-11.2467,-11.4028,-11.6247,-11.9554,-12.2075,-12.4336,-12.6297,-12.7206,-12.793,-12.8729,-12.9669,-13.0566,-13.1276,-13.1908,-13.2526,-13.3026,-13.4103,-13.4487,-13.391,-13.391,-13.3603,-13.2987,-13.2179,-13.1679,-13.1679,-13.1679,-13.1679,-13.1679,-13.141,-13.1487,-13.1679,-13.141,-13.1487,-13.1602,-13.0602,-12.9794,-12.9102,-12.8294,-12.7409,-12.6678,-12.6409,-12.6294,-12.6178,-12.4986,-12.4216,-12.3601,-12.2793,-12.21,-12.1485,-12.0908,-12.0485,-12.01,-11.8908,-11.8792,-11.8985,-11.8407,-11.8792,-11.9202,-11.8188,-11.8199,-11.8397,-11.7781,-11.7818,-11.8004,-11.8107,-11.82,-11.8281,-11.8281,-11.8281,-11.8281,-11.8281,-11.8281,-11.8281,-11.8281,-11.8281,-11.8281,-11.8281,-11.8281,-11.8281,-11.8281,-11.8281,-11.8281,-11.8281,-11.8281,-11.8193,-11.7906,-11.7818,-11.7392,-11.6707,-11.7689,-11.8484,-11.91,-11.9908,-12.0908,-12.1985,-12.2601,-12.3485,-12.4486,-12.4486,-12.5293,-8.2186,-8.5123,-8.9014,-9.2281,-9.5584,-9.9916,-10.7183,-10.8211,-10.9519,-11.5913,-11.5291,-11.4213,-11.571,-11.6019,-11.7147,-12.042,-12.2869,-12.4777,-12.561,-12.5684,-12.604,-12.6738,-12.7857,-12.8445,-12.8372,-13.0269,-13.1077,-13.0282,-13.191,-13.2987,-13.2987,-13.2987,-13.2987,-13.2987,-13.2179,-13.1679,-13.1679,-13.1679,-13.1679,-13.1679,-13.091,-13.091,-13.1679,-13.091,-13.091,-13.1602,-12.991,-12.9217,-12.9102,-12.8217,-12.7409,-12.6601,-12.5678,-12.5409,-12.5216,-12.3485,-12.2908,-12.2793,-12.1908,-12.16,-12.16,-12.16,-12.0985,-12.0292,-12.0292,-11.9715,-11.91,-11.91,-11.9715,-12.01,-11.9292,-11.8719,-11.8005,-11.7192,-11.7503,-11.7895,-11.7895,-11.8102,-11.8281,-11.8281,-11.8281,-11.8281,-11.8281,-11.8281,-11.8281,-11.8281,-11.8281,-11.8281,-11.8281,-11.8281,-11.8281,-11.8281,-11.8281,-11.8281,-11.8281,-11.8281,-11.8193,-11.7906,-11.8715,-11.8499,-11.7109,-11.8404,-11.91,-11.91,-11.9908,-12.1216,-12.2908,-12.2908,-12.3716,-12.5409,-12.5409,-12.5794,-8.1122,-8.549,-9.1253,-9.3418,-9.9805,-10.6596,-11.0487,-11.1603,-11.324,-11.873,-11.9193,-11.8693,-11.8596,-11.8989,-12.0016,-12.1525,-12.3284,-12.4777,-12.561,-12.5684,-12.5757,-12.604,-12.6297,-12.6738,-12.7463,-12.8764,-12.9683,-13.0166,-13.191,-13.2679,-13.2102,-13.2679,-13.2679,-13.2102,-13.1795,-13.1679,-13.1679,-13.1102,-13.091,-13.0794,-12.9987,-12.9987,-13.0794,-12.9987,-12.9717,-12.991,-12.8794,-12.8294,-12.8217,-12.7409,-12.6601,-12.5794,-12.5486,-12.4986,-12.4409,-12.3293,-12.2908,-12.2793,-12.1908,-12.1985,-12.2408,-12.1793,-12.1793,-12.1793,-11.9985,-12.01,-12.06,-11.9408,-12.01,-12.0908,-11.9485,-11.9004,-11.8677,-11.8013,-11.7699,-11.7621,-11.7794,-11.8102,-11.8281,-11.8281,-11.8281,-11.8281,-11.8281,-11.8281,-11.8281,-11.8281,-11.8281,-11.8281,-11.8281,-11.8281,-11.8281,-11.8281,-11.8281,-11.8281,-11.8281,-11.8281,-11.8319,-11.8193,-11.9389,-11.9396,-11.7884,-11.8793,-11.9607,-11.9908,-12.0216,-12.0908,-12.1985,-12.1985,-12.2793,-12.4486,-12.3909,-12.4409,-8.6334,-9.0519,-9.5658,-9.9548,-10.4908,-11.0304,-11.4305,-11.6158,-11.7885,-12.1207,-12.1573,-12.1316,-12.107,-12.1154,-12.1708,-12.2891,-12.409,-12.507,-12.561,-12.5684,-12.561,-12.5317,-12.55,-12.5757,-12.615,-12.7647,-12.8989,-12.9614,-13.141,-13.2295,-13.1679,-13.2179,-13.2179,-13.1679,-13.141,-13.1179,-13.1179,-13.041,-12.9987,-12.9987,-12.9102,-12.8986,-12.941,-12.8909,-12.8909,-12.9217,-12.8294,-12.7717,-12.7409,-12.6486,-12.5909,-12.5293,-12.4716,-12.4101,-12.3485,-12.2716,-12.2408,-12.2293,-12.1793,-12.1908,-12.2293,-12.1793,-12.1985,-12.21,-12.06,-12.0793,-12.1408,-12.0408,-12.0793,-12.1408,-12.0408,-11.9792,-11.919,-11.7908,-11.75,-11.7485,-11.7677,-11.7999,-11.8281,-11.8281,-11.8281,-11.8281,-11.8281,-11.8281,-11.8281,-11.8281,-11.8281,-11.8281,-11.8281,-11.8281,-11.8281,-11.8281,-11.8281,-11.8281,-11.8281,-11.8281,-11.8281,-11.8281,-11.9708,-12.0096,-11.9122,-11.9711,-11.9992,-11.9988,-12.0198,-12.06,-12.11,-12.1408,-12.2485,-12.4101,-12.3601,-12.4293,-9.4446,-9.753,-10.0796,-10.8101,-11.0377,-11.2396,-11.8489,-12.1007,-12.233,-12.3089,-12.2745,-12.2572,-12.3367,-12.2928,-12.2928,-12.4446,-12.5243,-12.5684,-12.561,-12.561,-12.5317,-12.452,-12.5023,-12.5206,-12.452,-12.6948,-12.8653,-12.8486,-13.0398,-13.1602,-13.1487,-13.1487,-13.1602,-13.1602,-13.091,-13.0487,-13.0487,-12.9602,-12.9102,-12.9102,-12.8102,-12.7717,-12.7794,-12.7794,-12.8217,-12.8909,-12.8102,-12.7294,-12.6486,-12.5601,-12.5216,-12.4986,-12.3485,-12.2908,-12.2716,-12.1908,-12.16,-12.16,-12.16,-12.1677,-12.1677,-12.16,-12.1677,-12.1677,-12.1485,-12.1485,-12.16,-12.1485,-12.1485,-12.16,-12.1485,-12.0793,-11.96,-11.7176,-11.7114,-11.7474,-11.7403,-11.7895,-11.8281,-11.8281,-11.8281,-11.8281,-11.8281,-11.8281,-11.8281,-11.8281,-11.8281,-11.8281,-11.8281,-11.8281,-11.8281,-11.8281,-11.8281,-11.8281,-11.8281,-11.8281,-11.8281,-11.8281,-11.9883,-12.0693,-12.0493,-12.0614,-12.0402,-11.9593,-11.9908,-12.01,-12.0292,-12.11,-12.2293,-12.3985,-12.3985,-12.4793,-9.0592,-9.496,-10.0723,-10.7404,-11.3313,-11.8195,-12.0875,-12.1793,-12.2307,-12.3089,-12.375,-12.4163,-12.496,-12.496,-12.496,-12.5427,-12.561,-12.55,-12.4777,-12.4777,-12.452,-12.3724,-12.3665,-12.3689,-12.3614,-12.615,-12.7472,-12.6783,-12.9206,-13.0475,-12.9821,-13.0398,-13.0833,-13.0833,-13.0602,-13.0487,-13.0487,-12.8986,-12.8217,-12.8217,-12.6717,-12.6294,-12.6986,-12.6986,-12.7101,-12.7178,-12.6294,-12.5794,-12.5601,-12.4716,-12.3985,-12.3408,-12.3024,-12.2485,-12.1908,-12.1677,-12.16,-12.16,-12.16,-12.1985,-12.2485,-12.1793,-12.21,-12.2408,-12.0985,-12.11,-12.1485,-12.0793,-12.11,-12.1408,-12.0793,-11.9985,-11.8985,-11.7792,-11.7793,-11.7918,-11.7512,-11.7686,-11.8006,-11.8319,-11.8281,-11.8281,-11.8281,-11.8281,-11.8281,-11.8281,-11.8281,-11.8281,-11.8281,-11.8281,-11.8281,-11.8281,-11.8281,-11.8281,-11.8281,-11.8281,-11.8281,-11.8281,-11.9297,-12.0195,-12.0815,-12.0405,-12.0286,-12.0484,-11.9098,-11.8985,-12.0292,-12.0485,-12.1485,-12.3216,-12.3216,-12.3408,-9.2905,-9.764,-10.3219,-11.0891,-11.592,-11.948,-12.1095,-12.0875,-12.0691,-12.194,-12.3089,-12.4116,-12.452,-12.463,-12.463,-12.463,-12.463,-12.4446,-12.398,-12.3958,-12.3555,-12.2759,-12.3065,-12.3125,-12.2857,-12.4816,-12.6177,-12.6207,-12.8014,-12.9179,-12.9179,-12.9602,-12.991,-12.9859,-12.9475,-12.9333,-12.9294,-12.7986,-12.7101,-12.6717,-12.5794,-12.5409,-12.5486,-12.5909,-12.6101,-12.5986,-12.5178,-12.4793,-12.4716,-12.3909,-12.3293,-12.2908,-12.2408,-12.1985,-12.16,-12.16,-12.16,-12.16,-12.16,-12.1908,-12.2216,-12.1677,-12.1908,-12.21,-12.1177,-12.1177,-12.1485,-12.11,-12.0908,-12.0908,-12.0408,-11.9715,-11.8908,-11.8023,-11.7715,-11.749,-11.7317,-11.7605,-11.7917,-11.8091,-11.8198,-11.8281,-11.8281,-11.8281,-11.8281,-11.8281,-11.8281,-11.8281,-11.8281,-11.8281,-11.8281,-11.8281,-11.8281,-11.8281,-11.8281,-11.8281,-11.8281,-11.8281,-11.9101,-11.9804,-12.0312,-11.9897,-11.9902,-12.0413,-11.9216,-11.9021,-11.9715,-12.01,-12.1216,-12.2908,-12.2908,-12.3101,-9.485,-10.0503,-10.6192,-11.4818,-11.7608,-11.8599,-12.0104,-11.9407,-11.8783,-12.0214,-12.1829,-12.2906,-12.3101,-12.3211,-12.3321,-12.3284,-12.3284,-12.3174,-12.2917,-12.2857,-12.25,-12.1595,-12.1963,-12.2242,-12.1705,-12.3221,-12.4579,-12.5529,-12.649,-12.7419,-12.8305,-12.8486,-12.8602,-12.8794,-12.8091,-12.7783,-12.7909,-12.6986,-12.6101,-12.5409,-12.5216,-12.4716,-12.3909,-12.4601,-12.4986,-12.5101,-12.4293,-12.3909,-12.3793,-12.2985,-12.2716,-12.2601,-12.1908,-12.16,-12.16,-12.16,-12.1485,-12.1408,-12.1408,-12.1408,-12.1408,-12.1408,-12.1485,-12.16,-12.16,-12.1485,-12.1408,-12.1408,-12.0793,-12.01,-12.01,-11.9485,-11.8715,-11.8023,-11.7288,-11.6895,-11.6998,-11.738,-11.7781,-11.7895,-11.8102,-11.8281,-11.8281,-11.8281,-11.8281,-11.8281,-11.8281,-11.8281,-11.8281,-11.8281,-11.8281,-11.8281,-11.8281,-11.8281,-11.8281,-11.8281,-11.8281,-11.8281,-11.8984,-11.9414,-11.9609,-11.9385,-11.951,-11.9902,-11.9297,-11.9221,-11.9389,-11.9877,-12.0985,-12.2716,-12.2793,-12.3216,-8.7545,-9.6612,-10.6706,-11.4305,-11.6801,-11.7608,-11.8489,-11.8599,-11.8489,-11.8709,-12.0104,-12.1426,-12.2062,-12.2759,-12.3298,-12.3308,-12.3272,-12.2831,-12.1426,-12.1205,-12.0618,-11.9106,-11.9033,-11.9289,-11.9935,-12.0985,-12.1991,-12.2895,-12.389,-12.4591,-12.4783,-12.5476,-12.6332,-12.6986,-12.6898,-12.7168,-12.7909,-12.6409,-12.5486,-12.5409,-12.4601,-12.3793,-12.3101,-12.3216,-12.3601,-12.4216,-12.3408,-12.3101,-12.2985,-12.21,-12.1793,-12.1793,-12.16,-12.16,-12.16,-12.16,-12.11,-12.0485,-12.0485,-12.0485,-12.0485,-12.0485,-12.0985,-12.16,-12.16,-12.11,-12.0485,-12.0485,-11.9908,-11.9292,-11.9292,-11.86,-11.7907,-11.7792,-11.7183,-11.6589,-11.6895,-11.7206,-11.7605,-11.7794,-11.8102,-11.8281,-11.8281,-11.8281,-11.8281,-11.8281,-11.8281,-11.8281,-11.8281,-11.8281,-11.8281,-11.8281,-11.8281,-11.8281,-11.8281,-11.8281,-11.8281,-11.8281,-11.8398,-11.8789,-11.9609,-11.9608,-11.9508,-11.9315,-11.8009,-11.8397,-12.0571,-11.9712,-12.01,-12.1793,-12.2485,-12.2601,-9.1436,-9.8668,-10.5605,-11.3387,-11.5296,-11.5589,-11.7314,-11.7021,-11.6617,-11.7498,-11.8012,-11.8526,-11.9788,-12.0265,-12.0559,-12.0655,-12.0618,-12.0265,-11.9546,-11.948,-11.9171,-11.8452,-11.8379,-11.8452,-11.8914,-11.9443,-12.0178,-12.1696,-12.2176,-12.3024,-12.3985,-12.4533,-12.4803,-12.5187,-12.5178,-12.5409,-12.5832,-12.5024,-12.4409,-12.3985,-12.3101,-12.2485,-12.2216,-12.2216,-12.2601,-12.3408,-12.2485,-12.2216,-12.21,-12.1793,-12.16,-12.16,-12.16,-12.16,-12.16,-12.16,-12.0985,-12.0292,-12.0292,-11.9985,-11.96,-11.96,-11.9908,-12.0216,-12.0216,-12.0216,-12.0216,-11.9792,-11.9408,-11.8985,-11.8484,-11.7715,-11.71,-11.71,-11.6792,-11.6496,-11.6709,-11.7003,-11.7284,-11.7807,-11.8102,-11.8281,-11.8281,-11.8281,-11.8281,-11.8281,-11.8281,-11.8281,-11.8281,-11.8281,-11.8281,-11.8281,-11.8281,-11.8281,-11.8281,-11.8281,-11.8281,-11.8281,-11.8281,-11.8515,-11.8906,-11.8906,-11.8982,-11.9396,-11.8622,-11.8606,-11.9322,-11.9299,-11.9908,-12.0908,-12.1293,-12.1216,-9.2391,-9.7346,-10.142,-10.99,-11.2102,-11.28,-11.5626,-11.5406,-11.4818,-11.5993,-11.581,-11.581,-11.6964,-11.7771,-11.8395,-11.841,-11.8373,-11.8263,-11.7823,-11.7755,-11.7683,-11.75,-11.7316,-11.7426,-11.8033,-11.7661,-11.8416,-12.0463,-12.0419,-12.1023,-12.2724,-12.2801,-12.2994,-12.3494,-12.3485,-12.3716,-12.4101,-12.3716,-12.3101,-12.2216,-12.16,-12.1293,-12.1293,-12.1485,-12.1985,-12.2485,-12.1908,-12.16,-12.16,-12.16,-12.16,-12.16,-12.1408,-12.1293,-12.1177,-12.0985,-12.0408,-11.9715,-11.9715,-11.9292,-11.8792,-11.8792,-11.8908,-11.91,-11.91,-11.9408,-11.9485,-11.8908,-11.86,-11.8292,-11.76,-11.6984,-11.6484,-11.6484,-11.6484,-11.649,-11.6582,-11.6898,-11.7283,-11.7807,-11.8102,-11.8281,-11.8281,-11.8281,-11.8281,-11.8281,-11.8281,-11.8281,-11.8281,-11.8281,-11.8281,-11.8281,-11.8281,-11.8281,-11.8281,-11.8281,-11.8281,-11.8281,-11.8281,-11.8281,-11.8281,-11.8281,-11.8593,-11.9297,-11.9112,-11.891,-11.8782,-11.909,-11.96,-12.0093,-12.0093,-12.0082,-8.3691,-8.7692,-9.2427,-10.2081,-10.6192,-10.8872,-11.2873,-11.3681,-11.3681,-11.3791,-11.3791,-11.3791,-11.3791,-11.625,-11.8436,-11.8416,-11.8362,-11.7904,-11.6287,-11.6103,-11.581,-11.5094,-11.4305,-11.4672,-11.6967,-11.592,-11.603,-11.8585,-11.8129,-11.8123,-11.9131,-11.9323,-12.0092,-12.1677,-12.1677,-12.2532,-12.4118,-12.2532,-12.1293,-12.0408,-12.0408,-12.0408,-12.0408,-12.1177,-12.16,-12.1677,-12.16,-12.16,-12.16,-12.16,-12.16,-12.1485,-12.0677,-12.0408,-12.0292,-11.9485,-11.8715,-11.7907,-11.7907,-11.7907,-11.7907,-11.7907,-11.8407,-11.91,-11.91,-11.86,-11.7907,-11.7907,-11.7292,-11.6599,-11.6599,-11.6484,-11.6484,-11.6484,-11.6484,-11.662,-11.6898,-11.72,-11.7506,-11.7781,-11.8102,-11.8281,-11.8281,-11.8281,-11.8281,-11.8281,-11.8281,-11.8281,-11.8281,-11.8281,-11.8281,-11.8281,-11.8281,-11.8281,-11.8281,-11.8281,-11.8281,-11.8281,-11.8281,-11.8281,-11.8281,-11.8281,-11.8281,-11.8398,-11.8398,-11.9005,-12.0278,-11.9222,-11.9004,-11.9484,-11.9484,-11.9416,-8.2751,-8.582,-8.905,-9.7236,-10.1494,-10.4467,-10.7514,-11.0193,-11.2212,-11.2689,-11.28,-11.2983,-11.3497,-11.4488,-11.5296,-11.5332,-11.5277,-11.5094,-11.4488,-11.4451,-11.4411,-11.4064,-11.381,-11.414,-11.5494,-11.4708,-11.4947,-11.6893,-11.6847,-11.7132,-11.8085,-11.8677,-11.9415,-11.9992,-12.0485,-12.1293,-12.2494,-12.187,-12.1408,-12.11,-12.11,-12.0793,-12.0292,-12.1177,-12.1293,-12.0793,-12.1408,-12.16,-12.16,-12.0985,-12.11,-12.1485,-12.01,-11.9792,-12.0216,-11.9408,-11.8523,-11.7792,-11.7792,-11.7407,-11.6984,-11.6984,-11.7176,-11.7407,-11.7407,-11.76,-11.7715,-11.71,-11.71,-11.7215,-11.6599,-11.6484,-11.6484,-11.6484,-11.6484,-11.649,-11.6704,-11.693,-11.7179,-11.7508,-11.7794,-11.8097,-11.8281,-11.8281,-11.8281,-11.8281,-11.8281,-11.8281,-11.8281,-11.8281,-11.8281,-11.8281,-11.8281,-11.8281,-11.8281,-11.8281,-11.8281,-11.8281,-11.8281,-11.8281,-11.8281,-11.8281,-11.8281,-11.8281,-11.8281,-11.8502,-11.8793,-11.8885,-11.8988,-11.8993,-11.8993,-11.8788,-7.9725,-8.2445,-8.5657,-9.3858,-9.6869,-9.9255,-10.4687,-10.722,-10.8909,-11.0781,-11.1405,-11.1808,-11.2616,-11.28,-11.2983,-11.3534,-11.3627,-11.3499,-11.3169,-11.3219,-11.325,-11.325,-11.302,-11.324,-11.4332,-11.3937,-11.4085,-11.5203,-11.5625,-11.6101,-11.677,-11.7414,-11.8183,-11.9113,-11.9908,-12.0639,-12.1216,-12.1216,-12.0908,-12.0331,-12.0908,-12.0677,-11.9908,-12.11,-12.1293,-12.0793,-12.1293,-12.16,-12.16,-12.0985,-12.0908,-12.0985,-11.96,-11.9215,-11.9408,-11.8484,-11.7907,-11.7407,-11.7407,-11.6984,-11.6484,-11.6484,-11.6484,-11.6484,-11.6484,-11.6907,-11.7215,-11.6676,-11.6907,-11.7215,-11.6676,-11.6484,-11.6484,-11.6484,-11.6484,-11.6484,-11.6484,-11.6827,-11.7096,-11.7179,-11.7603,-11.8004,-11.8107,-11.82,-11.8281,-11.8281,-11.8281,-11.8281,-11.8281,-11.8281,-11.8281,-11.8281,-11.8281,-11.8281,-11.8281,-11.8281,-11.8281,-11.8281,-11.8281,-11.8281,-11.8281,-11.8281,-11.8281,-11.8281,-11.8281,-11.8198,-11.7999,-11.8577,-11.8703,-11.8384,-11.8384,-11.8189,0.0,0.0,0.0,-9.14,-9.2134,-9.3345,-10.4504,-10.4687,-10.3586,-10.7807,-10.9202,-11.001,-11.1001,-11.1221,-11.1698,-11.333,-11.346,-11.333,-11.2485,-11.2375,-11.2375,-11.2375,-11.175,-11.1824,-11.3434,-11.348,-11.3553,-11.3655,-11.4405,-11.4907,-11.4977,-11.5086,-11.6407,-11.8998,-11.9792,-12.0207,-12.0284,-12.0284,-11.94,-11.79,-11.9523,-11.9869,-11.9215,-12.0793,-12.16,-12.16,-12.16,-12.16,-12.16,-12.1485,-12.0985,-12.0216,-11.9408,-11.8484,-11.7715,-11.6792,-11.6484,-11.6484,-11.6484,-11.6484,-11.6484,-11.6484,-11.6484,-11.6484,-11.6484,-11.6484,-11.6484,-11.6484,-11.6484,-11.6484,-11.6484,-11.6484,-11.6484,-11.6484,-11.6484,-11.6484,-11.6484,-11.6789,-11.6998,-11.6998,-11.7503,-11.7884,-11.7895,-11.8102,-11.8281,-11.8281,-11.8281,-11.8281,-11.8281,-11.8281,-11.8281,-11.8281,-11.8281,-11.8281,-11.8281,-11.8281,-11.8281,-11.8281,-11.8281,-11.8281,-11.8281,-11.8281,-11.8281,-11.8281,-11.8281,-11.8281,-11.8281,-11.8281,-11.8189,-11.7906,-11.7895,-11.7605,-7.2367,0.0,0.0,0.0,0.0,0.0,-9.3013,-9.5144,-9.7419,-10.3219,-10.41,-10.5201,-10.9496,-11.0304,-11.0671,-11.1698,-11.1882,-11.1808,-11.1552,-11.1478,-11.1478,-11.1478,-11.1295,-11.1552,-11.261,-11.2176,-11.2123,-11.2729,-11.3036,-11.3166,-11.3222,-11.4544,-11.6407,-11.8998,-11.8669,-11.9131,-12.0284,-11.9723,-11.9177,-11.8708,-11.9215,-11.9292,-11.9092,-12.0216,-12.0677,-12.0677,-12.0677,-12.0677,-12.06,-11.9985,-11.9985,-12.01,-11.7984,-11.7792,-11.86,-11.71,-11.6484,-11.6484,-11.6484,-11.6484,-11.6484,-11.6484,-11.6484,-11.6484,-11.6484,-11.6484,-11.6484,-11.6484,-11.6484,-11.6484,-11.6484,-11.6484,-11.6484,-11.6484,-11.6484,-11.6484,-11.6484,-11.6616,-11.667,-11.7007,-11.7112,-11.7411,-11.782,-11.8004,-11.8091,-11.8281,-11.8281,-11.8281,-11.8281,-11.8281,-11.8281,-11.8281,-11.8281,-11.8281,-11.8281,-11.8281,-11.8281,-11.8281,-11.8281,-11.8281,-11.8281,-11.8281,-11.8281,-11.8281,-11.8281,-11.8281,-11.8281,-11.8281,-11.8319,-11.8193,-11.7983,-11.7807,-7.2713,-7.4141,-7.6418,-8.0084,0.0,0.0,-8.9891,-9.1399,-9.3382,-9.9879,-10.1384,-10.2595,-10.6302,-10.7514,-10.8321,-10.9496,-11.001,-11.0414,-11.1111,-11.1221,-11.1221,-11.1221,-11.1221,-11.1368,-11.1897,-11.1824,-11.1845,-11.1869,-11.2212,-11.2536,-11.2536,-11.4231,-11.6099,-11.7991,-11.79,-11.8277,-11.9215,-11.9184,-11.8684,-11.7977,-11.8799,-11.8915,-11.8638,-11.9408,-11.9792,-11.9792,-11.9792,-11.96,-11.9215,-11.8792,-11.8792,-11.91,-11.76,-11.7407,-11.7907,-11.6907,-11.6484,-11.6484,-11.6484,-11.6484,-11.6484,-11.6484,-11.6484,-11.6484,-11.6484,-11.6484,-11.6484,-11.6484,-11.6484,-11.6484,-11.6484,-11.6484,-11.6484,-11.6484,-11.6484,-11.6484,-11.6484,-11.6484,-11.6573,-11.6789,-11.6898,-11.7103,-11.7603,-11.7807,-11.7983,-11.8319,-11.8281,-11.8281,-11.8281,-11.8281,-11.8281,-11.8281,-11.8281,-11.8281,-11.8281,-11.8281,-11.8281,-11.8281,-11.8281,-11.8281,-11.8281,-11.8281,-11.8281,-11.8281,-11.8281,-11.8281,-11.8281,-11.8281,-11.8281,-11.8281,-11.8107,-11.7983,-7.4669,-7.607,-7.8757,-8.3136,-8.2638,0.0,-9.0602,-9.0474,-9.0592,-9.6539,-9.8741,-9.9989,-10.1384,-10.2999,-10.4614,-10.5972,-10.7477,-10.9019,-11.0928,-11.1221,-11.1221,-11.1221,-11.1221,-11.1221,-11.1221,-11.1824,-11.2007,-11.1295,-11.1897,-11.2264,-11.2536,-11.401,-11.539,-11.6484,-11.7208,-11.7593,-11.7799,-11.8491,-11.7991,-11.6484,-11.8106,-11.8491,-11.7799,-11.86,-11.9023,-11.91,-11.9023,-11.8484,-11.7792,-11.7715,-11.7715,-11.7792,-11.7715,-11.7215,-11.6599,-11.6484,-11.6484,-11.6484,-11.6484,-11.6484,-11.6484,-11.6484,-11.6484,-11.6484,-11.6484,-11.6484,-11.6484,-11.6484,-11.6484,-11.6484,-11.6484,-11.6484,-11.6484,-11.6484,-11.6484,-11.6484,-11.6484,-11.6484,-11.6484,-11.6484,-11.6711,-11.6987,-11.7284,-11.7582,-11.7878,-11.8198,-11.8281,-11.8281,-11.8281,-11.8281,-11.8281,-11.8281,-11.8281,-11.8281,-11.8281,-11.8281,-11.8281,-11.8281,-11.8281,-11.8281,-11.8281,-11.8281,-11.8281,-11.8281,-11.8281,-11.8281,-11.8281,-11.8281,-11.8281,-11.8281,-11.8281,-11.8193,-7.8778,-7.9318,-8.0429,-7.9796,-8.2787,0.0,-8.2782,-8.3951,-8.6261,-8.883,-8.8573,-8.9344,-9.4116,-9.6832,-9.8227,-9.7897,-10.2301,-10.711,-11.0707,-11.1221,-11.1221,-11.1221,-11.1221,-11.1221,-11.1221,-11.1295,-11.1368,-11.1221,-11.1295,-11.175,-11.2536,-11.279,-11.4092,-11.64,-11.5977,-11.6407,-11.7799,-11.7298,-11.6792,-11.6484,-11.6792,-11.7298,-11.7799,-11.7991,-11.8369,-11.91,-11.8407,-11.7984,-11.7715,-11.6984,-11.7215,-11.7715,-11.6984,-11.71,-11.7484,-11.6792,-11.6484,-11.6484,-11.6484,-11.6484,-11.6484,-11.6484,-11.6484,-11.6484,-11.6484,-11.6484,-11.6484,-11.6484,-11.6484,-11.6484,-11.6484,-11.6484,-11.6484,-11.6484,-11.6484,-11.6484,-11.6484,-11.6484,-11.6484,-11.6484,-11.6573,-11.6709,-11.7025,-11.7284,-11.7603,-11.7917,-11.8189,-11.8281,-11.8281,-11.8281,-11.8281,-11.8281,-11.8281,-11.8281,-11.8281,-11.8281,-11.8281,-11.8281,-11.8281,-11.8281,-11.8281,-11.8281,-11.8281,-11.8281,-11.8281,-11.8281,-11.8281,-11.8281,-11.8281,-11.8281,-11.8281,-11.8281,-8.1866,-8.1832,-8.2782,-8.2203,-8.3512,0.0,0.0,-8.3799,-8.4824,-8.8686,-8.7509,-8.7031,-9.1106,-9.2831,-9.3932,-9.4777,-9.8961,-10.2999,-10.5422,-10.8248,-10.9996,-10.9981,-10.9981,-11.0252,-11.0582,-11.0582,-11.0766,-11.1221,-11.1221,-11.1368,-11.1824,-11.2264,-11.3147,-11.4515,-11.4999,-11.5638,-11.6484,-11.6099,-11.5907,-11.583,-11.5362,-11.5362,-11.5907,-11.5907,-11.6138,-11.6477,-11.6477,-11.6522,-11.6522,-11.6484,-11.6792,-11.71,-11.6676,-11.6792,-11.71,-11.6676,-11.6484,-11.6484,-11.6484,-11.6484,-11.6484,-11.6484,-11.6484,-11.6484,-11.6484,-11.6484,-11.6484,-11.6484,-11.6484,-11.6484,-11.6484,-11.6484,-11.6484,-11.6484,-11.6484,-11.6484,-11.6484,-11.6484,-11.6484,-11.6484,-11.6484,-11.6582,-11.693,-11.7217,-11.7508,-11.7794,-11.8107,-11.8281,-11.8281,-11.8281,-11.8281,-11.8281,-11.8281,-11.8281,-11.8281,-11.8281,-11.8281,-11.8281,-11.8281,-11.8281,-11.8281,-11.8281,-11.8281,-11.8281,-11.8281,-11.8281,-11.8281,-11.8281,-11.8281,-11.8281,-11.8281,-11.8281,-8.5892,-8.5655,-8.6602,-8.596,-8.5515,-8.5437,0.0,0.0,0.0,-8.8874,-8.7735,-8.6664,-8.861,-8.9124,-8.9784,-9.1473,-9.5107,-9.7713,-9.775,-10.277,-10.6572,-10.7109,-10.7731,-10.8281,-10.8991,-10.8793,-10.9196,-11.0582,-11.0252,-11.0054,-11.0928,-11.1824,-11.2264,-11.2536,-11.3892,-11.4809,-11.4901,-11.4901,-11.49,-11.4894,-11.4206,-11.3886,-11.3886,-11.3886,-11.3886,-11.3886,-11.4588,-11.4897,-11.4978,-11.5907,-11.6215,-11.6292,-11.6407,-11.6484,-11.6484,-11.6484,-11.6484,-11.6484,-11.6484,-11.6484,-11.6484,-11.6484,-11.6484,-11.6484,-11.6484,-11.6484,-11.6484,-11.6484,-11.6484,-11.6484,-11.6484,-11.6484,-11.6484,-11.6484,-11.6484,-11.6484,-11.6484,-11.6484,-11.6484,-11.6484,-11.6484,-11.662,-11.6902,-11.7103,-11.7425,-11.7779,-11.8006,-11.82,-11.8281,-11.8281,-11.8281,-11.8281,-11.8281,-11.8281,-11.8281,-11.8281,-11.8281,-11.8281,-11.8281,-11.8281,-11.8281,-11.8281,-11.8281,-11.8281,-11.8281,-11.8281,-11.8281,-11.8281,-11.8281,-11.8281,-11.8281,-11.8281,-9.3368,-9.3402,-9.3131,-8.7245,-9.004,-9.1611,-8.1725,0.0,-8.6186,-8.2501,0.0,-8.281,-8.3104,0.0,0.0,-8.27,-8.8206,-9.1657,-8.8904,-9.4042,-9.8882,-10.0985,-10.3777,-10.5583,-10.5583,-10.4422,-10.5049,-10.883,-10.6356,-10.6283,-10.9871,-11.0928,-11.175,-11.2536,-11.2675,-11.3211,-11.401,-11.3972,-11.3974,-11.4021,-11.3947,-11.3947,-11.3947,-11.3947,-11.3947,-11.3947,-11.4021,-11.4048,-11.4132,-11.4978,-11.5285,-11.5362,-11.6215,-11.6484,-11.6484,-11.6484,-11.6484,-11.6484,-11.6484,-11.6484,-11.6484,-11.6484,-11.6484,-11.6484,-11.6484,-11.6484,-11.6484,-11.6484,-11.6484,-11.6484,-11.6484,-11.6484,-11.6484,-11.6484,-11.6484,-11.6484,-11.6484,-11.6484,-11.6484,-11.6484,-11.6484,-11.6529,-11.6611,-11.6788,-11.7103,-11.7403,-11.7701,-11.7999,-11.828,-11.8281,-11.8281,-11.8281,-11.8281,-11.8281,-11.8281,-11.8281,-11.8281,-11.8281,-11.8281,-11.8281,-11.8281,-11.8281,-11.8281,-11.8281,-11.8281,-11.8281,-11.8281,-11.8281,-11.8281,-11.8281,-11.8281,-11.8281,-9.4485,-9.4349,-9.418,-9.0019,-9.0138,-8.98,-8.4253,-8.3341,-8.3812,-8.4541,0.0,0.0,0.0,0.0,0.0,0.0,-8.5343,-8.6995,-8.5196,-8.8463,-9.2647,-9.6966,-9.876,-10.0326,-10.2061,-10.1745,-10.2568,-10.5692,-10.4228,-10.4801,-10.8376,-10.9797,-11.0928,-11.175,-11.2191,-11.2724,-11.3094,-11.3094,-11.3112,-11.3051,-11.261,-11.2264,-11.2264,-11.2264,-11.2264,-11.2375,-11.2904,-11.311,-11.3169,-11.4066,-11.4405,-11.4516,-11.5362,-11.6099,-11.6484,-11.6484,-11.6484,-11.6484,-11.6484,-11.6484,-11.6484,-11.6484,-11.6484,-11.6484,-11.6484,-11.6484,-11.6484,-11.6484,-11.6484,-11.6484,-11.6484,-11.6484,-11.6484,-11.6484,-11.6484,-11.6484,-11.6484,-11.6484,-11.6484,-11.6484,-11.6484,-11.6484,-11.6484,-11.6789,-11.712,-11.7396,-11.7693,-11.7983,-11.8319,-11.8281,-11.8281,-11.8281,-11.8281,-11.8281,-11.8281,-11.8281,-11.8281,-11.8281,-11.8281,-11.8281,-11.8281,-11.8281,-11.8281,-11.8281,-11.8281,-11.8281,-11.8281,-11.8281,-11.8281,-11.8281,-11.8281,-11.8281,-9.5905,-9.5635,-9.533,-9.1609,-8.9647,-8.7871,-8.5307,-8.3632,-8.3311,-8.5856,-8.5419,0.0,0.0,0.0,-8.3508,-8.3434,0.0,-8.4095,-8.2627,-8.4315,-8.7509,-9.228,-9.4039,-9.5936,-9.8692,-9.7943,-9.8823,-10.2286,-10.083,-10.1816,-10.6729,-10.8156,-10.9614,-11.0766,-11.175,-11.2081,-11.2081,-11.2081,-11.2081,-11.2081,-11.1478,-11.1221,-11.1221,-11.1221,-11.1221,-11.1221,-11.1897,-11.2081,-11.2191,-11.3051,-11.3524,-11.3594,-11.4526,-11.5396,-11.6215,-11.6407,-11.6484,-11.6484,-11.6484,-11.6484,-11.6484,-11.6484,-11.6484,-11.6484,-11.6484,-11.6484,-11.6484,-11.6484,-11.6484,-11.6484,-11.6484,-11.6484,-11.6484,-11.6484,-11.6484,-11.6484,-11.6484,-11.6484,-11.6484,-11.6484,-11.6484,-11.6484,-11.6484,-11.6709,-11.7003,-11.7206,-11.7605,-11.7884,-11.8189,-11.8319,-11.8281,-11.8281,-11.8281,-11.8281,-11.8281,-11.8281,-11.8281,-11.8281,-11.8281,-11.8281,-11.8281,-11.8281,-11.8281,-11.8281,-11.8281,-11.8281,-11.8281,-11.8281,-11.8281,-11.8281,-11.8281,-11.8281,-9.9728,-9.9457,-9.8307,-9.0966,-8.9647,-8.8429,-8.1935,-8.394,-8.6489,-8.3772,-8.7728,-9.0876,-8.8129,-8.7194,-8.6114,-8.3801,-8.4095,0.0,0.0,-8.1305,-8.3287,-8.582,-9.0291,-9.3823,-9.5468,-9.2045,-9.239,-9.8768,-9.4816,-9.5961,-10.4703,-10.5984,-10.7592,-10.9981,-11.0766,-11.1221,-11.1221,-11.1221,-11.1221,-11.1221,-11.1221,-11.1221,-11.1221,-11.1221,-11.1221,-11.1221,-11.1221,-11.1221,-11.1295,-11.2191,-11.2551,-11.2601,-11.3572,-11.4474,-11.5285,-11.6215,-11.6484,-11.6484,-11.6484,-11.6484,-11.6484,-11.6484,-11.6484,-11.6484,-11.6484,-11.6484,-11.6484,-11.6484,-11.6484,-11.6484,-11.6484,-11.6484,-11.6484,-11.6484,-11.6484,-11.6484,-11.6484,-11.6484,-11.6484,-11.6484,-11.6484,-11.6484,-11.6484,-11.6529,-11.6586,-11.7003,-11.7206,-11.7508,-11.7884,-11.8107,-11.8281,-11.8281,-11.8281,-11.8281,-11.8281,-11.8281,-11.8281,-11.8281,-11.8281,-11.8281,-11.8281,-11.8281,-11.8281,-11.8281,-11.8281,-11.8281,-11.8281,-11.8281,-11.8281,-11.8281,-11.8281,-11.8281,-10.0758,-10.1183,-10.0303,-9.4315,-9.1846,-8.9545,-8.4336,-8.4788,-8.5754,-8.3486,-8.6612,-8.9364,-8.7879,-8.6629,-8.5446,-8.4327,-8.3104,-8.1489,0.0,-7.991,-8.0901,-8.1709,-8.6109,-8.9084,-8.9055,-8.8763,-9.025,-9.4049,-9.3785,-9.6168,-10.2382,-10.511,-10.7342,-10.9086,-10.9981,-11.0692,-11.1221,-11.1221,-11.1221,-11.1221,-11.1221,-11.1221,-11.1221,-11.1221,-11.1221,-11.1221,-11.1221,-11.1221,-11.1221,-11.1478,-11.1552,-11.175,-11.261,-11.3251,-11.3624,-11.5128,-11.6022,-11.6484,-11.6484,-11.6484,-11.6484,-11.6484,-11.6484,-11.6484,-11.6484,-11.6484,-11.6484,-11.6484,-11.6484,-11.6484,-11.6484,-11.6484,-11.6484,-11.6484,-11.6484,-11.6484,-11.6484,-11.6484,-11.6484,-11.6484,-11.6484,-11.6484,-11.6484,-11.6484,-11.6624,-11.6891,-11.7089,-11.7323,-11.7781,-11.8014,-11.8097,-11.8281,-11.8281,-11.8281,-11.8281,-11.8281,-11.8281,-11.8281,-11.8281,-11.8281,-11.8281,-11.8281,-11.8281,-11.8281,-11.8281,-11.8281,-11.8281,-11.8281,-11.8281,-11.8281,-11.8281,-11.8281,-10.0686,-10.1578,-10.1318,-9.6345,-9.3977,-9.1575,-8.6569,-8.6839,-8.7498,-8.5207,-8.7294,-8.9553,-8.9907,-8.7801,-8.5865,-8.5228,-8.3056,-8.0645,0.0,-7.8846,-7.936,-7.936,-8.3141,-8.5642,-8.5394,-8.5778,-8.7512,-9.1165,-9.162,-9.4329,-10.0275,-10.3205,-10.5825,-10.8258,-10.9358,-11.0399,-11.1221,-11.1221,-11.1221,-11.1221,-11.1221,-11.1221,-11.1221,-11.1221,-11.1221,-11.1221,-11.1221,-11.1221,-11.1221,-11.1221,-11.1221,-11.1295,-11.1824,-11.2191,-11.2723,-11.4524,-11.583,-11.6484,-11.6484,-11.6484,-11.6484,-11.6484,-11.6484,-11.6484,-11.6484,-11.6484,-11.6484,-11.6484,-11.6484,-11.6484,-11.6484,-11.6484,-11.6484,-11.6484,-11.6484,-11.6484,-11.6484,-11.6484,-11.6484,-11.6484,-11.6484,-11.6484,-11.6484,-11.6484,-11.65,-11.6402,-11.6701,-11.7094,-11.7287,-11.7391,-11.7515,-11.7812,-11.7617,-11.75,-11.7812,-11.7812,-11.8008,-11.8281,-11.8281,-11.8281,-11.8281,-11.8281,-11.8281,-11.8281,-11.8281,-11.8281,-11.8281,-11.8281,-11.8281,-11.8281,-11.8281,-11.8281]},{"header":{"parameterUnit":"m.s-1","parameterCategory":1,"la1":30.6,"la2":29.2853,"lo1":-89.7004,"lo2":-87.6739,"dy":0.0162,"dx":0.0183,"nx":112,"ny":82,"refTime":"2024-09-10T06:00:00:Z","depth":0,"parameterNumber":3,"parameterNumberName":"V-component_of_WINDS"},"data":[0.0,0.0,0.0,0.0,0.0,0.0,0.0,0.0,0.0,0.0,0.0,0.0,0.0,0.0,0.0,0.0,0.0,0.0,0.0,0.0,0.0,0.0,0.0,0.0,0.0,0.0,0.0,0.0,0.0,0.0,0.0,0.0,0.0,0.0,0.0,0.0,0.0,0.0,0.0,0.0,0.0,0.0,0.0,0.0,0.0,0.0,0.0,0.0,0.0,0.0,0.0,0.0,0.0,0.0,0.0,0.0,0.0,0.0,0.0,0.0,0.0,0.0,0.0,0.0,0.0,0.0,0.0,0.0,0.0,0.0,0.0,0.0,0.0,0.0,0.0,0.0,0.0,0.0,0.0,0.0,0.0,0.0,0.0,0.0,0.0,0.0,0.0,0.0,0.0,0.0,3.6741,3.7635,3.7867,3.7889,3.7569,3.6874,3.6941,3.8111,0.0,0.0,0.0,0.0,0.0,0.0,0.0,0.0,0.0,0.0,0.0,0.0,0.0,0.0,0.0,0.0,0.0,0.0,0.0,0.0,0.0,0.0,0.0,0.0,0.0,0.0,0.0,0.0,0.0,0.0,0.0,0.0,0.0,0.0,0.0,0.0,0.0,0.0,0.0,0.0,0.0,0.0,0.0,0.0,0.0,0.0,0.0,0.0,0.0,0.0,0.0,0.0,0.0,0.0,0.0,0.0,0.0,0.0,0.0,0.0,0.0,0.0,0.0,0.0,0.0,0.0,0.0,0.0,0.0,0.0,0.0,0.0,0.0,0.0,0.0,0.0,0.0,0.0,0.0,0.0,0.0,0.0,0.0,0.0,0.0,0.0,0.0,0.0,0.0,0.0,0.0,0.0,0.0,0.0,0.0,0.0,0.0,0.0,0.0,0.0,0.0,0.0,0.0,0.0,3.91,3.8591,3.8829,3.8718,3.8183,3.6914,3.6899,3.8797,0.0,0.0,0.0,0.0,0.0,0.0,0.0,0.0,0.0,0.0,0.0,0.0,0.0,0.0,0.0,0.0,0.0,0.0,0.0,0.0,0.0,0.0,0.0,0.0,0.0,0.0,0.0,0.0,0.0,0.0,0.0,0.0,0.0,0.0,0.0,0.0,0.0,0.0,0.0,0.0,0.0,0.0,0.0,0.0,0.0,0.0,0.0,0.0,0.0,0.0,0.0,0.0,0.0,0.0,0.0,0.0,0.0,0.0,0.0,0.0,0.0,0.0,0.0,0.0,0.0,0.0,0.0,0.0,0.0,0.0,0.0,0.0,0.0,0.0,0.0,0.0,0.0,0.0,0.0,0.0,0.0,0.0,0.0,0.0,0.0,0.0,0.0,0.0,0.0,0.0,0.0,0.0,0.0,0.0,0.0,0.0,0.0,0.0,0.0,0.0,0.0,0.0,0.0,3.8747,3.8269,3.9097,3.9159,3.8905,3.829,3.6914,3.6899,3.8941,3.674,0.0,0.0,0.0,0.0,0.0,0.0,0.0,0.0,0.0,0.0,0.0,0.0,0.0,0.0,0.0,0.0,0.0,0.0,0.0,0.0,0.0,0.0,0.0,0.0,0.0,0.0,0.0,0.0,0.0,0.0,0.0,0.0,0.0,0.0,0.0,0.0,0.0,0.0,0.0,0.0,0.0,0.0,0.0,0.0,0.0,0.0,0.0,0.0,0.0,0.0,0.0,0.0,0.0,0.0,0.0,0.0,0.0,0.0,0.0,0.0,0.0,0.0,0.0,0.0,0.0,0.0,0.0,0.0,0.0,0.0,0.0,0.0,0.0,0.0,0.0,0.0,0.0,0.0,0.0,0.0,0.0,0.0,0.0,0.0,0.0,0.0,0.0,0.0,0.0,0.0,0.0,0.0,0.0,0.0,0.0,0.0,0.0,0.0,0.0,0.0,0.0,0.0,3.8041,3.7569,3.9599,3.9493,3.9012,3.8397,3.666,3.6477,3.8797,3.5777,0.0,0.0,0.0,0.0,0.0,0.0,0.0,0.0,0.0,0.0,0.0,0.0,0.0,0.0,0.0,0.0,0.0,0.0,0.0,0.0,0.0,0.0,0.0,0.0,0.0,0.0,0.0,0.0,0.0,0.0,0.0,0.0,0.0,0.0,0.0,0.0,0.0,0.0,0.0,0.0,0.0,0.0,0.0,0.0,0.0,0.0,0.0,0.0,0.0,0.0,0.0,0.0,0.0,0.0,0.0,0.0,0.0,0.0,0.0,0.0,0.0,0.0,0.0,0.0,0.0,0.0,0.0,0.0,0.0,0.0,0.0,0.0,0.0,0.0,0.0,0.0,0.0,0.0,0.0,0.0,0.0,0.0,0.0,0.0,0.0,0.0,0.0,0.0,0.0,0.0,0.0,0.0,0.0,0.0,0.0,0.0,0.0,0.0,0.0,0.0,0.0,0.0,3.8737,3.9306,4.0294,3.9893,3.9346,3.8731,3.5832,3.5238,3.8179,3.4451,0.0,0.0,0.0,0.0,0.0,0.0,0.0,0.0,0.0,0.0,0.0,0.0,0.0,0.0,0.0,0.0,0.0,0.0,0.0,0.0,0.0,0.0,0.0,0.0,0.0,0.0,0.0,0.0,0.0,0.0,0.0,0.0,0.0,0.0,0.0,0.0,0.0,0.0,0.0,0.0,0.0,0.0,0.0,0.0,0.0,0.0,0.0,0.0,0.0,0.0,0.0,0.0,0.0,0.0,0.0,0.0,0.0,0.0,0.0,0.0,0.0,0.0,0.0,0.0,0.0,0.0,0.0,0.0,0.0,0.0,0.0,0.0,0.0,0.0,0.0,0.0,0.0,0.0,0.0,0.0,0.0,0.0,0.0,0.0,0.0,0.0,0.0,0.0,0.0,0.0,0.0,0.0,0.0,0.0,0.0,0.0,0.0,0.0,0.0,0.0,0.0,0.0,3.8321,3.8865,4.0334,3.996,3.9346,3.8758,3.658,3.6068,3.7909,0.0,0.0,0.0,0.0,0.0,0.0,0.0,0.0,0.0,0.0,0.0,0.0,0.0,0.0,0.0,0.0,0.0,0.0,0.0,0.0,0.0,0.0,0.0,0.0,0.0,0.0,0.0,0.0,0.0,0.0,0.0,0.0,0.0,0.0,0.0,0.0,0.0,0.0,0.0,0.0,0.0,0.0,0.0,0.0,0.0,0.0,0.0,0.0,0.0,0.0,0.0,0.0,0.0,0.0,0.0,0.0,0.0,0.0,0.0,0.0,0.0,0.0,0.0,0.0,0.0,0.0,0.0,0.0,0.0,0.0,0.0,0.0,0.0,0.0,0.0,0.0,0.0,0.0,0.0,0.0,0.0,0.0,0.0,0.0,0.0,0.0,0.0,0.0,0.0,0.0,0.0,0.0,0.0,0.0,0.0,0.0,0.0,0.0,0.0,0.0,0.0,0.0,3.7088,3.7921,3.8905,4.0334,3.996,3.9346,3.8758,3.666,3.6068,3.7575,0.0,0.0,0.0,0.0,0.0,0.0,0.0,0.0,0.0,0.0,0.0,0.0,0.0,0.0,0.0,0.0,0.0,0.0,0.0,0.0,0.0,0.0,0.0,0.0,0.0,0.0,0.0,0.0,0.0,0.0,0.0,0.0,0.0,0.0,0.0,0.0,0.0,0.0,0.0,0.0,0.0,0.0,0.0,0.0,0.0,0.0,0.0,0.0,0.0,0.0,0.0,0.0,0.0,0.0,0.0,0.0,0.0,0.0,0.0,0.0,0.0,0.0,0.0,0.0,0.0,0.0,0.0,0.0,0.0,0.0,0.0,0.0,0.0,0.0,0.0,0.0,0.0,0.0,0.0,0.0,0.0,0.0,0.0,0.0,0.0,0.0,0.0,0.0,0.0,0.0,0.0,0.0,0.0,0.0,0.0,0.0,0.0,0.0,0.0,0.0,0.0,0.0,3.4963,3.7782,3.9813,4.0401,3.996,3.9346,3.8758,3.5765,3.4872,0.0,0.0,0.0,0.0,0.0,0.0,0.0,0.0,0.0,0.0,0.0,0.0,0.0,0.0,0.0,0.0,0.0,0.0,0.0,0.0,0.0,0.0,0.0,0.0,0.0,0.0,0.0,0.0,0.0,0.0,0.0,0.0,0.0,0.0,0.0,0.0,0.0,0.0,0.0,0.0,0.0,0.0,0.0,0.0,0.0,0.0,0.0,0.0,0.0,0.0,0.0,0.0,0.0,0.0,0.0,0.0,0.0,0.0,0.0,0.0,0.0,0.0,0.0,0.0,0.0,0.0,0.0,0.0,0.0,0.0,0.0,0.0,0.0,0.0,0.0,0.0,0.0,0.0,0.0,0.0,0.0,0.0,0.0,0.0,0.0,0.0,0.0,0.0,0.0,0.0,0.0,0.0,0.0,0.0,0.0,0.0,0.0,0.0,0.0,0.0,0.0,0.0,0.0,3.4963,3.7782,3.9813,4.0401,3.996,3.9346,3.8758,3.65,3.4895,3.4696,0.0,0.0,0.0,0.0,0.0,0.0,0.0,0.0,0.0,0.0,0.0,0.0,0.0,0.0,0.0,0.0,0.0,0.0,0.0,0.0,0.0,0.0,0.0,0.0,0.0,0.0,0.0,0.0,0.0,0.0,0.0,0.0,0.0,0.0,0.0,0.0,0.0,0.0,0.0,0.0,0.0,0.0,0.0,0.0,0.0,0.0,0.0,0.0,0.0,0.0,0.0,0.0,0.0,0.0,0.0,0.0,0.0,0.0,0.0,0.0,0.0,0.0,0.0,0.0,0.0,0.0,0.0,0.0,0.0,0.0,0.0,0.0,0.0,0.0,0.0,0.0,0.0,0.0,0.0,0.0,0.0,0.0,0.0,0.0,0.0,0.0,0.0,0.0,0.0,0.0,0.0,0.0,0.0,0.0,0.0,0.0,0.0,0.0,0.0,0.0,0.0,0.0,3.5124,3.7849,3.9813,4.0401,3.996,3.9346,3.8758,3.6941,3.5267,3.4071,0.0,0.0,0.0,0.0,0.0,0.0,0.0,0.0,0.0,0.0,0.0,0.0,0.0,0.0,0.0,0.0,0.0,0.0,0.0,0.0,0.0,0.0,0.0,0.0,0.0,0.0,0.0,0.0,0.0,0.0,0.0,0.0,0.0,0.0,0.0,0.0,0.0,0.0,0.0,0.0,0.0,0.0,0.0,0.0,0.0,0.0,0.0,0.0,0.0,0.0,0.0,0.0,0.0,0.0,0.0,0.0,0.0,0.0,0.0,0.0,0.0,0.0,0.0,0.0,0.0,0.0,0.0,0.0,0.0,0.0,0.0,0.0,0.0,0.0,0.0,0.0,0.0,0.0,0.0,0.0,0.0,0.0,0.0,0.0,0.0,0.0,0.0,0.0,0.0,0.0,0.0,0.0,0.0,0.0,0.0,0.0,0.0,0.0,0.0,0.0,0.0,0.0,3.5364,3.7702,3.9535,4.0361,3.9893,3.9346,3.8758,3.7088,3.5677,3.442,0.0,0.0,0.0,0.0,0.0,0.0,0.0,0.0,0.0,0.0,0.0,0.0,0.0,0.0,0.0,0.0,0.0,0.0,0.0,0.0,0.0,0.0,0.0,0.0,0.0,0.0,0.0,0.0,0.0,0.0,0.0,0.0,0.0,0.0,0.0,0.0,0.0,0.0,0.0,0.0,0.0,0.0,0.0,0.0,0.0,0.0,0.0,0.0,0.0,0.0,0.0,0.0,0.0,0.0,0.0,0.0,0.0,0.0,0.0,0.0,0.1403,0.1341,0.0,0.0,0.0,0.0,0.0,0.0,0.0,0.0,0.0,0.0,0.0,0.0,0.0,0.0,0.0,0.0,0.0,0.0,0.0,0.0,0.0,0.0,0.0,0.0,0.0,0.0,0.0,0.0,0.0,0.0,0.0,0.0,0.0,0.0,0.0,0.0,0.0,0.0,0.0,0.0,3.4927,3.5649,3.679,3.9827,3.9599,3.9118,3.8758,3.7088,3.5415,3.3769,3.2166,0.0,0.0,0.0,0.0,0.0,0.0,0.0,0.0,0.0,0.0,0.0,0.0,0.0,0.0,0.0,0.0,0.0,0.0,0.0,0.0,0.0,0.0,0.0,0.0,0.0,0.0,0.0,0.0,0.0,0.0,0.0,0.0,0.0,0.0,0.0,0.0,0.0,0.0,0.0,0.0,0.0,0.0,0.0,0.0,0.0,0.0,0.0,0.0,0.0,0.0,0.0,0.0,0.0,0.0,0.0,0.0,0.0,0.0,0.0,0.0,0.0,0.0,0.0,0.0,0.0,0.0,0.0,0.0,0.0,0.0,0.0,0.0,0.0,0.0,0.0,0.0,0.0,0.0,0.0,0.0,0.0,0.0,0.0,0.0,0.0,0.0,0.0,0.0,0.0,0.0,0.0,0.0,0.0,0.0,0.0,0.0,0.0,0.0,0.0,0.0,0.0,3.3106,3.4113,3.525,3.7252,3.8414,3.8838,3.8504,3.7128,3.5591,3.3961,3.2353,0.0,0.0,0.0,0.0,0.0,0.0,0.0,0.0,0.0,0.0,0.0,0.0,0.0,0.0,0.0,0.0,0.0,0.0,0.0,0.0,0.0,0.0,0.0,0.0,0.0,0.0,0.0,0.0,0.0,0.0,0.0,0.0,0.0,0.0,0.0,0.0,0.0,0.0,0.0,0.0,0.0,0.0,0.0,0.0,0.0,0.0,0.0,0.0,0.0,0.0,0.0,0.0,0.0,0.0942,0.0,0.0,0.0,0.0,0.0,0.0,0.0,0.0,0.0,0.0,0.0,0.0,0.0,0.0,0.0,0.0,0.0,0.0,0.0,0.0,0.0,0.0,0.0,0.0,0.0,0.0,0.0,0.0,0.0,0.0,0.0,1.595,1.6157,1.7008,1.796,1.7635,0.0,0.0,0.0,0.0,0.0,0.0,0.0,0.0,0.0,0.0,0.0,3.0396,3.1904,3.3213,3.4645,3.6714,3.8042,3.829,3.7235,3.6019,3.471,3.3053,3.1947,0.0,0.0,0.0,0.0,0.0,0.0,0.0,0.0,0.0,0.0,0.0,0.0,0.0,0.0,0.0,0.0,0.0,0.0,0.0,0.0,0.0,0.0,0.0,0.0,0.0,0.0,0.0,0.0,0.0,0.0,0.0,0.0,0.0777,0.0795,0.0,0.0,0.0,0.0,0.0,0.0,0.0,0.0,0.0,0.0,0.0,0.0,0.0,0.0232,0.0476,0.025,0.0256,0.0514,0.0265,0.0,0.0,0.0,0.0,0.0,0.0,0.0,0.0,0.0,0.0,0.0,0.0,0.0,0.0,0.0,0.0,0.0,0.0,0.0,0.0,0.0,0.0,0.0,0.0,0.0,0.0,0.0,0.0,0.0,0.0,0.0,1.4265,1.3963,1.6284,1.8308,1.8129,1.7127,1.6565,1.8184,1.8183,1.8322,0.0,0.0,0.0,0.0,0.0,0.0,2.7277,2.6649,2.7894,3.3905,3.4404,3.5218,3.8034,3.7422,3.658,3.5885,3.467,3.3507,3.2881,3.2535,0.0,0.0,0.0,0.0,0.0,0.0,0.0,0.0,0.0,0.0,0.0,0.0,0.0,0.0,0.0,0.0,0.0,0.0,0.0,0.0,0.0,0.0,0.0,0.0,0.0,0.0,0.0,0.0,0.0,0.0,0.0,0.0,0.0,0.0,0.0,0.0,0.0,0.0,0.0,0.0,0.0,0.0,0.0,0.0,0.0,0.0,0.0,0.0,0.0,0.0,0.0,0.0,0.0,0.0,0.0,0.0,0.0,0.0,0.0,0.0,0.0,0.0,0.0,0.0,0.0,0.0,0.1497,0.1725,0.2689,0.2917,0.3086,0.4144,0.0,0.0,0.0,0.0,0.0,0.0,0.0,0.9075,0.8255,1.0869,1.3879,1.4085,1.6823,1.9271,1.9203,1.8498,1.7765,1.7705,1.7673,1.7817,1.8578,1.9381,0.0,0.0,0.0,2.1766,2.4397,2.4615,2.6087,3.0794,3.2373,3.4439,3.7556,3.7261,3.6687,3.6112,3.5591,3.483,3.3774,3.3434,3.2957,0.0,0.0,0.0,0.0,0.0,0.0,0.0,0.0,0.0,0.0,0.0,0.0,0.0,0.0,0.0,0.0,0.0,0.0,0.0,0.0,0.0,0.0,0.0,0.0,0.0,0.0,0.0,0.0,0.0,0.0,0.0,0.0,0.0,0.0,0.0,0.0,0.0,0.0,0.0,0.0,0.0,0.0,0.0,0.0,0.0,0.0,0.0,0.0,0.0,0.0,0.0,0.0,0.0,0.0,0.0,0.0,0.0,0.0,0.0,0.0,0.0,0.0,0.0,0.0,0.0,0.0,0.0,0.0,0.0,0.024,0.1862,0.2723,0.3303,0.4949,0.0,0.0,0.0,0.0,0.6581,0.6152,0.8873,1.1937,1.3218,1.6093,1.8922,1.9675,1.9766,1.9203,1.7812,1.7704,1.7746,1.7672,1.834,0.0,2.1273,2.0952,2.0856,2.1772,2.2568,2.4299,2.7225,3.0218,3.2984,3.5995,3.659,3.662,3.6099,3.6072,3.5618,3.4589,3.4122,3.366,3.3386,0.0,0.0,0.0,0.0,0.0,0.0,0.0,0.0,0.0,0.0,0.0,0.0,0.0,0.0,0.0,0.0,0.0,0.0,0.0,0.0,0.0,0.0,0.0,0.0,0.0,0.0,0.0,0.0,0.0,0.0,0.0,0.0,0.0,0.0,0.0,0.0,0.0,0.0,0.0,0.0,0.0,0.0,0.0,0.0,0.0,0.0,0.0,0.0,0.0,0.0,0.0,0.0,0.0,0.0,0.0,0.0,0.0,0.0,0.0,0.0,0.0,0.0,0.0,0.0,0.0,0.0,0.0,0.0,0.0,0.0,0.1694,0.3499,0.3663,0.559,0.0,0.0,0.3859,0.349,0.0955,0.2914,0.6148,0.9416,1.2726,1.6054,1.9332,2.0085,1.9875,1.9217,1.8654,1.8124,1.7589,0.0,1.7607,1.7738,1.8198,1.8733,1.9338,1.9571,2.0867,2.4138,2.6844,2.9561,3.276,3.5259,3.6393,3.6086,3.6072,3.5792,3.5177,3.5124,3.4402,3.309,3.2973,0.0,0.0,0.0,0.0,0.0,0.0,0.0,0.0,0.0,0.0,0.0,0.0,0.0,0.0,0.0,0.0,0.0,0.0,0.0,0.0,0.0,0.0,0.0,0.0,0.0,0.0,0.0,0.0,0.0,0.0,0.0,0.0,0.0,0.0,0.0,0.0,0.0,0.0,0.0,0.0,0.0,0.0,0.0,0.0,0.0,0.0,0.0,0.0,0.0,0.0,0.0,0.0,0.0,0.0,0.0,0.0,0.0,0.0,0.0,0.0,0.0,0.0,0.0,0.0,0.0,0.0,0.0,0.0,0.0,0.0495,0.1212,0.1205,0.1913,0.2616,0.144,0.1446,0.1212,0.0246,0.2472,0.5711,0.9497,1.2825,1.6201,1.96,2.0383,2.0315,2.0098,1.9657,1.9061,1.8233,1.8355,1.8423,1.8002,1.8409,1.883,1.904,1.9203,2.0375,2.3407,2.4516,2.7199,3.2075,3.3123,3.4284,3.5604,3.5792,3.5444,3.4656,3.4817,3.4389,3.328,3.2831,3.1455,0.0,0.0,0.0,0.0,0.0,0.0,0.0,0.0,0.0,0.0,0.0,0.0,0.0,0.0,0.0,0.0,0.0,0.0,0.0,0.0,0.0,0.0,0.0,0.0,0.0,0.0,0.0,0.0,0.0,0.0,0.0,0.0,0.0,0.0,0.0,0.0,0.0,0.0,0.0,0.0,0.0,0.0,0.0,0.0,0.0,0.0,0.0,0.0,0.0,0.0,0.0,0.0,0.0,0.0,0.0,0.0,0.0,0.0,0.0,0.0,0.0,0.0,0.0,0.0,0.0,0.0,0.0,0.0,0.0,0.0,0.0,0.0,0.0,0.0,0.0,0.0,0.0,0.1503,0.4267,0.779,1.1142,1.4794,1.9509,2.056,2.0526,2.0471,2.0227,1.9786,1.904,1.9203,1.9237,1.8708,1.8918,1.9128,1.9128,1.9128,1.9761,2.1611,2.2777,2.5012,2.8891,3.0752,3.235,3.3966,3.4452,3.467,3.4189,3.4162,3.3828,3.3133,3.2358,3.1049,2.9192,0.0,0.0,0.0,0.0,0.0,0.0,0.0,0.0,0.0,0.0,0.0,0.0,0.0,0.0,0.0,0.0,0.0,0.0,0.0,0.0,0.0,0.0,0.0,-0.0467,0.0,-0.0253,-0.0251,-0.0264,-0.0269,-0.026,0.0,0.0,0.0,0.0,0.0,0.0,0.0,0.0,0.0,0.0,0.0,0.0,0.0,0.0,0.0,0.0,0.0,0.0,0.0,0.0,0.0,0.0,0.0,0.0,0.0,0.0,0.0,0.0,0.0,0.0,0.0,0.0,0.0,0.0,0.0,0.0,0.0,0.0,0.0,0.0,0.0,0.0,0.0,0.0,0.0,0.0,0.0,0.0764,0.4289,0.7883,1.2071,1.8795,2.0319,2.0485,2.0343,2.0329,2.0275,2.0119,1.9976,1.982,1.9678,1.9522,0.0,1.9427,1.9169,1.8993,1.8993,2.1603,2.3233,2.3056,2.7778,3.0632,3.0822,3.2379,3.3547,3.3855,3.3307,3.2866,3.2599,3.145,3.0715,3.059,0.0,0.0,0.0,0.0,0.0,0.0,0.0,0.0,0.0,0.0,0.0,0.0,0.0,0.0,0.0,0.0,0.0,0.0,0.0,0.0,0.0,-0.7092,-0.7165,-0.0995,-0.2329,-0.4278,-0.4337,-0.4164,-0.421,-0.417,-0.1691,0.0,0.0,0.0,0.0,0.0,0.0,0.0,0.0,0.0,0.0,0.0,0.0,0.0,0.0,0.0,0.0,0.0,0.0,0.0,0.0,0.0,0.0,0.0,0.0,0.0,0.0,0.0,0.0,0.0,0.0,0.0,0.0,0.0,0.0,0.0,0.0,0.0,0.0,0.0,0.0,0.0,0.0,0.0,0.0,0.0,0.0,0.0765,0.4319,0.7657,1.1544,1.5824,1.8597,2.0349,2.0193,2.0173,2.0119,1.9963,1.9908,1.982,1.9678,1.9434,1.9271,1.9271,1.9006,1.883,1.883,2.1525,2.3233,2.3056,2.7924,3.0667,3.0317,3.2162,3.3454,3.3534,3.3374,3.336,3.3521,3.2772,3.2887,0.0,0.0,0.0,0.0,0.0,0.0,0.0,0.0,0.0,0.0,0.0,0.0,0.0,0.0,0.0,0.0,0.0,0.0,0.0,0.0,0.0,0.0,-1.0783,-1.127,-0.5603,-0.6804,-0.8324,-0.8192,-0.8281,-0.833,-0.833,-0.462,-0.3185,-0.4631,-0.1745,-0.0583,-0.2332,-0.0875,0.0,0.0,0.0,0.0,0.0,0.0,0.0,0.0,0.0,0.0,0.0,0.0,0.0,0.0,0.0,0.0,0.0,0.0,0.0,0.0,0.0,0.0,0.0,0.0,0.0,0.0,0.0,0.0,0.0,0.0,0.0,0.0,0.0,0.0,0.0,0.0,0.0,0.0,0.0,0.0,0.0512,0.255,0.665,1.0769,1.2771,1.6793,2.0275,2.0139,2.0051,0.0,1.9888,1.9875,1.9841,1.9766,1.9434,1.9203,1.9203,1.8938,1.8762,1.8762,2.0363,2.1424,2.1261,2.5913,0.0,0.0,0.0,3.3414,3.3414,3.3414,0.0,0.0,0.0,0.0,0.0,3.6054,0.0,0.0,3.6608,3.7536,0.0,0.0,0.0,0.0,0.0,0.0,0.0,0.0,0.0,0.0,0.0,0.0,0.0,0.0,0.0,0.0,-1.4579,-1.6056,-1.3367,-1.2777,-1.2784,-1.2364,-1.2149,-1.2185,-1.2185,-0.8712,-0.7844,-1.132,-0.4946,-0.2041,-0.5525,-0.2041,0.0,0.0,0.0,0.0,0.0,0.0,0.0,0.0,0.0,0.0,0.0,0.0,0.0,0.0,0.0,0.0,0.0,0.0,0.0,0.0,0.0,0.0,0.0,0.0,0.0,0.0,0.0,0.0,0.0,0.0,0.0,0.0,0.0,0.0,0.0,0.0,0.0,0.0,0.0,0.0,0.0,0.0,0.4866,0.9756,1.0261,1.5311,1.9779,2.0132,1.9997,1.9895,1.9888,1.9875,1.9854,1.9875,1.9501,1.9217,1.9217,1.8972,1.8782,1.8782,1.9022,0.0,1.8552,2.3249,2.6186,2.593,3.0474,3.3316,3.3761,3.3855,3.4269,3.5044,3.5378,3.6166,3.7422,3.7742,3.8076,3.8506,3.9256,3.951,0.0,0.0,0.0,0.0,0.0,0.0,0.0,0.0,0.0,0.0,0.0,0.0,0.0,0.0,0.0,-1.5995,-1.9146,-2.117,-2.1038,-2.1087,-1.9929,-1.679,-1.6233,-1.6243,-1.6243,-1.2767,-1.0744,-1.1609,-0.7266,-0.4946,-0.5815,-0.2041,0.0,0.0,0.0,0.0,0.0,0.0,0.0,0.0,0.0,0.0,0.0,0.0,0.0,0.0,0.0,0.0,0.0,0.0,0.0,0.0,0.0,0.0,0.0,0.0,0.0,0.0,0.0,0.0,0.0,0.0,0.0,0.0,0.0,0.0,0.0,0.0,0.0,0.0,0.0,0.0,0.0,0.0,0.3087,0.6936,0.9434,1.3217,1.6972,1.9621,2.0078,2.0051,2.0051,1.9854,1.9752,1.9854,1.959,1.9379,1.9379,1.9128,1.8938,1.8938,2.1239,2.1564,1.8781,2.3822,2.5846,2.3101,2.8326,3.3019,3.5683,3.658,3.6941,3.6874,3.7382,3.7676,3.7742,3.829,3.8691,3.8972,3.8988,3.8981,0.0,0.0,0.0,0.0,0.0,0.0,0.0,0.0,0.0,0.0,0.0,-1.0966,-1.2938,0.0,-1.737,-1.9285,-2.1553,-2.2886,-2.3185,-2.3219,-2.2356,-2.0593,-2.0299,-2.0299,-2.0299,-1.683,-1.5377,-1.7402,-1.0161,-0.6685,-0.8717,-0.3205,0.0,0.0,0.0,0.0,0.0,0.0,0.0,0.0,0.0,0.0,0.0,0.0,0.0,0.0,0.0,0.0,0.0,0.0,0.0,0.0,0.0,0.0,0.0,0.0,0.0,0.0,0.0,0.0,0.0,0.0,0.0,0.0,0.0,0.0,0.0,0.0,0.0,0.0,0.0,0.0,0.0,0.0,0.2577,0.5652,0.7168,1.1456,1.5719,1.7189,1.8892,2.0098,2.0105,1.9983,1.9875,1.9875,1.9624,1.9434,1.9434,1.9237,1.9094,1.9094,2.043,2.0562,1.9104,2.2777,2.5891,2.725,3.0296,3.3649,3.7144,3.7823,3.8103,3.825,3.8691,3.8945,3.8945,3.9386,3.9666,3.9813,3.9666,3.9519,0.0,0.0,0.0,0.0,0.0,0.0,0.0,-1.1212,-1.1437,-1.2284,-1.2548,-1.3736,-1.6558,-1.7754,-1.8932,-2.2034,-2.2778,-2.3097,-2.3205,-2.3219,-2.3205,-2.3185,-2.3205,-2.3219,-2.3219,-2.0305,-1.9729,-2.2925,-1.3923,-0.93,-1.2503,-0.5242,-0.1168,-0.1169,-0.0292,0.0,0.0,0.0,0.0,0.0,0.0,0.0,0.0,0.0,0.0,0.0,0.0,0.0,0.0,0.0,0.0,0.0,0.0,0.0,0.0,0.0,0.0,0.0,0.0,0.0,0.0,0.0,0.0,0.0,0.0,0.0,0.0,0.0,0.0,0.0,0.0,0.0,0.0,0.0,0.2062,0.4379,0.489,0.9465,1.3484,1.4754,1.7732,2.0207,2.0187,2.0173,2.0085,1.9908,1.9678,1.9501,1.9481,1.9345,1.9257,1.9257,1.9149,1.9128,1.9271,2.1413,2.5156,3.0822,3.1807,3.3803,3.7399,3.8353,3.8865,3.9412,3.964,3.9893,4.0107,4.0361,4.0481,4.0481,4.0481,4.0361,-1.461,-1.4635,-1.5015,-1.5899,-1.5854,-1.6374,0.0,-1.8588,-1.8431,-1.9417,-1.9894,-2.0234,-2.0864,-2.1327,-2.2054,-2.2676,-2.2995,-2.3205,-2.3219,-2.3219,-2.3171,-2.3049,-2.3151,-2.3219,-2.3219,-2.2925,-2.2631,-2.3219,-1.8859,-1.6281,-1.6968,-0.9322,-0.5249,-0.528,-0.1754,0.0,0.0,0.0,0.0,0.0,0.0,0.0,0.0,0.0,0.0,0.0,0.0,0.0,0.0,0.0,0.0,0.0,0.0,0.0,0.0,0.0,0.0,0.0,0.0,0.0,0.0,0.0,0.0,0.0,0.0,0.0,0.0,0.0,0.0,0.0,0.0,0.0,0.0,0.0,0.0258,0.1289,0.4379,0.5658,0.7703,1.2813,1.7454,2.056,2.0505,2.0383,2.0207,1.9908,1.9841,1.9786,1.9644,1.9501,1.9413,1.9413,1.9393,1.9447,1.959,1.9846,2.1578,2.5303,2.8376,3.1741,3.514,3.8125,4.0,4.0334,4.0361,4.0401,4.0441,4.0468,4.0481,4.0481,4.0481,4.0468,-1.6659,-1.6883,-1.708,-1.7704,-1.8111,-1.862,-1.9698,-1.9888,-2.0064,-2.0756,-2.1285,-2.1638,-2.1774,-2.2167,-2.2534,-2.2744,-2.2961,-2.3097,-2.3097,-2.3029,-2.2886,-2.2642,-2.2676,-2.2818,-2.3083,-2.3097,-2.313,-2.3219,-1.9723,-1.7432,-1.7468,-1.2203,-0.8146,-0.5837,-0.4374,-0.2332,0.0,0.0,0.0,0.0,0.0,0.0,0.0,0.0,0.0,0.0,0.0,0.0,0.0,0.0,0.0,0.0,0.0,0.0,0.0,0.0,0.0,0.0,0.0,0.0,0.0,0.0,0.0,0.0,0.0,0.0,0.0,0.0,0.0,0.0,0.0,0.0,0.0,0.0,0.0,0.0516,0.1805,0.3605,0.5915,0.8224,1.3354,1.7454,1.735,1.9147,2.0309,1.9929,1.9875,1.982,1.9678,1.961,1.9535,1.9447,1.9522,1.959,1.9664,1.982,2.1436,2.4771,2.6415,2.9776,3.5042,3.6541,3.8356,4.0468,4.0481,4.0481,4.0481,4.0481,4.0481,4.0481,4.0481,4.0481,-1.7412,-1.7772,-1.8091,-1.8511,-1.9237,-1.9908,-2.0105,-2.0404,-2.075,-2.1157,-2.1584,-2.1882,-2.1882,-2.2181,-2.2479,-2.2642,-2.2784,-2.2886,-2.2886,-2.2744,-2.2554,-2.2249,-2.2181,-2.2303,-2.2656,-2.2852,-2.3008,-2.3151,-2.0581,-1.8876,-1.9192,-1.539,-1.1909,-0.9028,-0.7849,-0.5525,-0.1749,-0.1457,-0.1167,0.0,0.0,0.0,0.0,0.0,0.0,0.0,0.0,0.0,0.0,0.0,0.0,0.0,0.0,0.0,0.0,0.0,0.0,0.0,0.0,0.0,0.0,0.0,0.0,0.0,0.0,0.0,0.0,0.0,0.0,0.0,0.0,0.0,0.0,0.0,0.0,0.0,0.0,0.2062,0.3605,0.3603,0.8475,1.3332,1.6072,1.7916,1.9393,1.9796,1.9963,1.9875,1.9678,1.9664,1.9624,1.9556,1.9657,1.9732,1.9786,2.001,2.1206,2.3832,2.4964,2.7771,3.2495,3.4491,3.6723,3.8983,3.9969,4.0481,4.0481,4.0481,4.0481,4.0481,4.0481,4.0481,-1.6897,-1.7528,-1.8477,-1.9217,-1.9854,-2.0505,-2.1231,-2.1408,-2.1496,-2.1794,-2.1862,-2.1882,-2.1882,-2.2025,-2.2181,-2.2323,-2.2479,-2.2574,-2.2574,-2.2445,-2.2235,-2.1937,-2.1774,-2.176,-2.1903,-2.2445,-2.2852,-2.3008,-2.3151,-2.2998,-2.3139,-1.9504,-1.7163,-1.7279,-1.3392,-0.9584,-0.5525,-0.5525,-0.3784,0.0,0.0,0.0,0.0,0.0,0.0,0.0,0.0,0.0,0.0,0.0,0.0,0.0,0.0,0.0,0.0,0.0,0.0,0.0,0.0,0.0,0.0,0.0,0.0,0.0,0.0,0.0,0.0,0.0,0.0,0.0,0.0,0.0,0.0,0.0,0.0,0.0,0.0,0.0,0.0258,0.0257,0.3087,0.8489,1.8546,1.7744,1.6645,1.9826,2.0187,1.9997,1.9698,1.9664,1.9712,1.9841,1.9854,1.9929,2.0085,2.0227,2.0383,2.0526,2.3795,2.5542,2.5784,3.199,3.5474,3.5731,3.8957,4.0481,4.0481,4.0481,4.0481,4.0481,4.0481,4.0481,-1.7914,-1.864,-1.9359,-2.001,-2.0539,-2.1001,-2.1353,-2.1441,-2.1441,-2.1441,-2.1441,-2.1408,-2.1319,-2.1421,-2.1638,-2.1991,-2.2167,-2.2289,-2.2391,-2.2445,-2.2215,-2.153,-2.1652,-2.1672,-2.1333,-2.1828,-2.2378,-2.2818,-2.2907,-2.3042,-2.3293,-2.2088,-2.004,-1.7458,-1.6267,-1.3634,-0.9584,-0.9584,-0.9002,-0.7558,-0.7558,-0.7558,-0.7558,-0.7558,-0.6689,-0.4946,-0.4328,-0.2302,0.0,0.0,0.0,0.0,0.0,0.0,0.0,0.0,0.0,0.0,0.0,0.0,0.0,0.0,0.0,0.0,0.0,0.0,0.0,0.0,0.0,0.0,0.0,0.0,0.0,0.0,0.0,0.0,0.0,0.0,0.0,0.0,0.2833,0.6174,0.9772,1.4922,1.8994,2.0104,2.0207,2.0031,1.982,1.98,1.982,1.9875,1.9875,1.9888,1.9942,2.0187,2.0349,2.0397,2.1484,2.329,2.5533,2.7771,3.0999,3.5462,3.6711,3.8227,4.0481,4.0481,4.0481,4.0481,4.0481,4.0481,-1.8782,-1.94,-1.9908,-2.0614,-2.1034,-2.1319,-2.1421,-2.1353,-2.1231,-2.1014,-2.0845,-2.0682,-2.0539,-2.056,-2.077,-2.1387,-2.1618,-2.1828,-2.2127,-2.2255,-2.2079,-2.1462,-2.1584,-2.1597,-2.1265,-2.1584,-2.2038,-2.2588,-2.2784,-2.2974,-2.3205,-2.3219,-2.2056,-1.9435,-1.9435,-1.7695,-1.3634,-1.3634,-1.306,-1.1609,-1.1609,-1.1609,-1.1609,-1.1609,-1.0744,-0.901,-0.8087,-0.5754,-0.2011,-0.199,-0.1131,0.0,0.0,0.0,0.0,0.0,0.0,0.0,0.0,0.0,0.0,0.0,0.0,0.0,0.0,0.0,0.0,0.0,0.0,0.0,0.0,0.0,0.0,0.0,0.0,0.0,0.0,0.0,0.0,0.0,0.1805,0.3348,0.3344,1.1823,1.8708,1.8498,1.9483,2.0207,2.0051,1.9942,1.9888,1.9942,1.9908,1.9888,1.9942,2.0139,2.0295,2.0397,2.0438,2.1477,2.3542,2.4795,2.7539,3.1753,3.4222,3.6466,3.8727,3.9982,4.0481,4.0481,4.0481,4.0481,-1.94,-1.98,-2.0139,-2.1001,-2.1319,-2.1421,-2.1408,-2.1157,-2.0858,-2.0539,-2.0119,-1.9752,-1.959,-1.9481,-1.9712,-2.0594,-2.0892,-2.1231,-2.1828,-2.1916,-2.1862,-2.1706,-2.1584,-2.155,-2.1672,-2.1706,-2.1903,-2.2323,-2.2744,-2.3063,-2.3219,-2.3219,-2.3219,-2.3219,-2.3219,-2.148,-1.77,-1.77,-1.595,-1.2185,-1.2185,-1.2185,-1.2185,-1.2185,-1.2192,-1.2185,-1.1822,-0.9461,-0.5991,-0.5667,-0.338,0.0,0.0,0.0,0.0,0.0,0.0,0.0,0.0,0.0,0.0,0.0,0.0,0.0,0.0,0.0,0.0,0.0,0.0,0.0,0.0,0.0,0.0,0.0,0.0,0.0,0.0,0.0,0.0,0.0,0.0,0.0,0.0257,0.8466,1.4823,1.5112,1.8068,2.0232,2.0329,2.0064,1.9942,2.0085,1.9963,1.9942,2.0085,2.0098,2.0241,2.0526,2.0417,2.0397,2.0539,2.3542,2.5282,2.5542,3.1742,3.5228,3.5474,3.8727,4.0212,4.0481,4.0481,4.0481,-1.98,-2.0417,-2.0933,-2.1157,-2.1245,-2.1211,-2.1001,-2.0539,-2.0051,-1.9624,-1.9094,-1.864,-1.8375,-1.883,-1.9481,-2.0153,-2.0858,-2.1543,-2.2147,-2.2411,-2.2411,-2.2038,-2.2255,-2.2269,-2.1862,-2.2133,-2.2378,-2.2486,-2.2608,-2.2832,-2.3205,-2.3219,-2.3219,-2.3219,-2.3219,-2.2631,-2.1762,-2.1762,-2.1186,-2.0317,-2.0317,-2.0317,-2.0317,-2.0317,-2.0329,-2.0064,-1.4133,-1.0069,-0.6898,-0.3128,-0.0849,0.0,0.0,0.0,0.0,0.0,0.0,0.0,0.0,0.0,0.0,0.0,0.0,0.0,0.0,0.0,0.0,0.0,0.0,0.0,0.0,0.0,0.0,0.0,0.0,0.0,0.0,0.0,0.0,0.0,0.0,0.0774,0.3344,0.5917,0.9497,1.4564,1.6126,1.7639,1.9943,2.0085,2.0064,2.0098,1.9963,1.9942,2.0085,2.0207,2.0349,2.0526,2.0505,2.0505,2.0539,2.1294,2.3053,2.5533,2.7271,3.0492,3.5474,3.6478,3.7957,4.0481,4.0481,4.0481,-2.0315,-2.0804,-2.1123,-2.1123,-2.1021,-2.077,-2.0207,-1.9712,-1.9149,-1.8301,-1.7914,-1.7602,-1.7161,-1.7914,-1.8816,-1.9413,-2.0438,-2.1408,-2.2127,-2.25,-2.2608,-2.2432,-2.2622,-2.2642,-2.2303,-2.25,-2.2676,-2.2744,-2.2744,-2.2886,-2.3205,-2.3219,-2.3219,-2.3219,-2.3219,-2.3219,-2.3219,-2.3219,-2.3219,-2.3219,-2.3219,-2.3219,-2.3219,-2.3219,-2.3239,-2.2958,-1.8457,-1.3781,-0.9166,-0.6239,-0.3101,0.0,0.0,0.0,0.0,0.0,0.0,0.0,0.0,0.0,0.0,0.0,0.0,0.0,0.0,0.0,0.0,0.0,0.0,0.0,0.0,0.0,0.0,0.0,0.0,0.0,0.0,0.0,0.0,0.0,0.0,0.0516,0.2577,0.4121,0.6427,1.0227,1.3319,1.6083,1.7607,1.9096,2.0085,2.001,1.9922,1.9942,2.0085,2.0173,2.0315,2.0526,2.0485,2.0471,2.0539,2.0539,2.1294,2.3298,2.4787,2.728,3.1009,3.3987,3.6454,3.8239,3.9726,4.0481,-2.0845,-2.1034,-2.1021,-2.098,-2.0702,-2.022,-1.9325,-1.8816,-1.8179,-1.6897,-1.6707,-1.6605,-1.6062,-1.6937,-1.7968,-1.8654,-1.9854,-2.1055,-2.2038,-2.2391,-2.2622,-2.2818,-2.2832,-2.2832,-2.2832,-2.2832,-2.2907,-2.3063,-2.3063,-2.3117,-2.3219,-2.3219,-2.3219,-2.3219,-2.3219,-2.3219,-2.3219,-2.3219,-2.3219,-2.3219,-2.3219,-2.3219,-2.3219,-2.3219,-2.3219,-2.3219,-2.2478,-1.86,-1.224,-1.1021,-0.6718,-0.0555,-0.0276,0.0,0.0,0.0,0.0,0.0,0.0,0.0,0.0,0.0,0.0,0.0,0.0,0.0,0.0,0.0,0.0,0.0,0.0,0.0,0.0,0.0,0.0,0.0,0.0,0.0,0.0,0.0,0.0,0.0,0.0,0.2577,0.4624,0.4848,1.0486,1.4818,1.5112,1.81,2.0064,1.9922,1.9908,1.9963,2.0119,2.0139,2.0241,2.0526,2.0417,2.0417,2.0539,2.0539,2.0539,2.0539,2.3298,2.5039,2.5542,3.1247,3.4714,3.5486,3.8458,3.9969,-2.1068,-2.1177,-2.1123,-2.0878,-2.0404,-1.9746,-1.885,-1.8036,-1.7188,-1.6212,-1.5832,-1.5615,-1.5384,-1.632,-1.7494,-1.8586,-1.9698,-2.0892,-2.2289,-2.252,-2.2696,-2.3097,-2.3151,-2.3151,-2.3151,-2.3151,-2.3205,-2.3361,-2.3381,-2.3327,-2.3219,-2.3219,-2.3219,-2.3219,-2.3219,-2.3219,-2.3219,-2.3219,-2.3219,-2.3219,-2.3219,-2.3219,-2.3219,-2.3219,-2.3219,-2.2911,-1.9777,-1.7379,-1.5641,-0.9281,-0.5873,-0.4184,-0.1104,0.0,0.0,0.0,0.0,0.0,0.0,0.0,0.0,0.0,0.0,0.0,0.0,0.0,0.0,0.0,0.0,0.0,0.0,0.0,0.0,0.0,0.0,0.0,0.0,0.0,0.0,0.0,0.0,0.0,0.0,0.0516,0.1804,0.4624,0.8475,1.2031,1.471,1.824,2.0227,2.0085,2.0064,2.0119,2.0275,2.0295,2.0363,2.0526,2.0526,2.0526,2.0539,2.0539,2.0539,2.0539,2.1047,2.2792,2.5542,2.6788,3.0015,3.5474,3.6209,3.797,-2.1163,-2.1163,-2.1034,-2.0736,-2.0085,-1.9223,-1.8091,-1.7263,-1.6415,-1.5276,-1.512,-1.5086,-1.478,-1.5832,-1.6958,-1.7609,-1.8728,-2.0064,-2.1638,-2.1916,-2.2289,-2.3117,-2.3219,-2.3259,-2.3327,-2.3347,-2.3395,-2.3558,-2.3571,-2.3537,-2.347,-2.347,-2.3415,-2.3347,-2.3347,-2.3307,-2.3219,-2.3219,-2.3219,-2.3219,-2.3219,-2.3219,-2.3219,-2.3219,-2.3219,-2.3198,-2.0982,-1.9139,-1.6777,-1.2962,-0.9225,-0.5284,-0.3595,-0.1656,0.0,0.0,0.0,0.0,0.0,0.0,0.0,0.0,0.0,0.0,0.0,0.0,0.0,0.0,0.0,0.0,0.0,0.0,0.0,0.0,0.0,0.0,0.0,0.0,0.0,0.0,0.0,0.0,0.0,0.0,0.0516,0.2319,0.5405,0.8711,1.22,1.5544,1.8308,1.9883,2.0173,2.0241,2.0329,2.0397,2.0471,2.0539,2.0539,2.0539,2.0539,2.0614,2.0627,2.0539,2.0702,2.1456,2.2792,2.4641,2.7128,3.0264,3.3964,3.6478,-2.1405,-2.1089,-2.0912,-2.0573,-1.98,-1.8762,-1.7446,-1.6639,-1.5811,-1.4557,-1.4584,-1.4726,-1.4407,-1.5357,-1.632,-1.6734,-1.7792,-1.9183,-2.0933,-2.1353,-2.1916,-2.3042,-2.3239,-2.3307,-2.3436,-2.3483,-2.3558,-2.3714,-2.3754,-2.3754,-2.368,-2.368,-2.3626,-2.3503,-2.3503,-2.3436,-2.3273,-2.3273,-2.3259,-2.3219,-2.3219,-2.3219,-2.3219,-2.3219,-2.3219,-2.3219,-2.3063,-2.1204,-1.8201,-1.7515,-1.3434,-0.7762,-0.6091,-0.3871,-0.1103,-0.0276,0.0,0.0,0.0,0.0,0.0,0.0,0.0,0.0,0.0,0.0,0.0,0.0,0.0,0.0,0.0,0.0,0.0,0.0,0.0,0.0,0.0,0.0,0.0,0.0,0.0,0.0,0.0,0.0,0.0,0.0,0.2835,0.6164,0.8673,1.2031,1.5596,1.8699,1.9799,2.0383,2.0383,2.0471,2.056,2.0594,2.0594,2.0614,2.0627,2.0756,2.077,2.0648,2.0845,2.0824,2.0594,2.3236,2.4959,2.5542,3.1101,3.4077,-2.1021,-2.1021,-2.0899,-2.0451,-1.9569,-1.8477,-1.7277,-1.6327,-1.5432,-1.4496,-1.4333,-1.4387,-1.4475,-1.4835,-1.552,-1.6761,-1.7514,-1.8674,-2.0736,-2.1387,-2.1991,-2.292,-2.3273,-2.3436,-2.3449,-2.3571,-2.3714,-2.3856,-2.3999,-2.3965,-2.37,-2.368,-2.368,-2.3666,-2.3666,-2.3592,-2.3429,-2.3429,-2.3361,-2.3219,-2.3219,-2.3219,-2.3219,-2.3219,-2.3219,-2.3219,-2.3063,-2.263,-2.1912,-1.8362,-1.6552,-1.5041,-0.8316,-0.528,-0.4742,-0.139,0.0,0.0,0.0,0.0,0.0,0.0,0.0,0.0,0.0,0.0,0.0,0.0,0.0,0.0,0.0,0.0,0.0,0.0,0.0,0.0,0.0,0.0,0.0,0.0,0.0,0.0,0.0,0.0,0.0,0.0,0.2835,0.5147,0.5401,0.8731,1.2059,1.5378,1.8708,2.0526,2.0526,2.0539,2.0594,2.0736,2.0756,2.0811,2.0946,2.0967,2.0967,2.0967,2.0845,2.077,2.0756,2.102,2.2703,2.5542,2.6389,2.9879,-2.1144,-2.1192,-2.0777,-2.0424,-1.9542,-1.8443,-1.7249,-1.6286,-1.5384,-1.4482,-1.4299,-1.4319,-1.4373,-1.4557,-1.5018,-1.6015,-1.6442,-1.7324,-1.9237,-1.9908,-2.0716,-2.2167,-2.2676,-2.3117,-2.366,-2.3768,-2.3877,-2.4012,-2.4087,-2.4066,-2.3944,-2.3944,-2.391,-2.3802,-2.3802,-2.37,-2.3449,-2.3449,-2.3381,-2.3219,-2.3219,-2.3219,-2.3219,-2.3219,-2.3219,-2.3219,-2.3171,-2.3063,-2.29,-2.1047,-1.8923,-1.6258,-1.1146,-0.7524,-0.5033,-0.1398,0.0,0.0,0.0,0.0,0.0,0.0,0.0,0.0,0.0,0.0,0.0,0.0,0.0,0.0,0.0,0.0,0.0,0.0,0.0,0.0,0.0,0.0,0.0,0.0,0.0,0.0,0.0,0.0,0.0,0.0,0.1032,0.2835,0.489,0.6431,0.9247,1.4897,1.6689,1.8224,2.0278,2.0627,2.0702,2.077,2.0858,2.0933,2.1001,2.1089,2.1089,2.1001,2.1123,2.1089,2.0912,2.1001,2.173,2.286,2.512,2.74,-2.1033,-2.0944,-2.0634,-2.0539,-1.9963,-1.8913,-1.7415,-1.6252,-1.5194,-1.4482,-1.4299,-1.4299,-1.4299,-1.4414,-1.4746,-1.5459,-1.5805,-1.6619,-1.8409,-1.9094,-1.9997,-2.1638,-2.2181,-2.2744,-2.3558,-2.3836,-2.3999,-2.4121,-2.4121,-2.4121,-2.4121,-2.4121,-2.4053,-2.389,-2.389,-2.3748,-2.3449,-2.3449,-2.3381,-2.3219,-2.3219,-2.3219,-2.3219,-2.3219,-2.3219,-2.3219,-2.3219,-2.313,-2.3008,-2.2886,-2.131,-1.8302,-1.4291,-1.0626,-0.6708,-0.3079,-0.0841,0.0,0.0,0.0,0.0,0.0,0.0,0.0,0.0,0.0,0.0,0.0,0.0,0.0,0.0,0.0,0.0,0.0,0.0,0.0,0.0,0.0,0.0,0.0,0.0,0.0,0.0,0.0,0.0,0.0,0.0,0.0774,0.3348,0.3605,0.5915,1.1811,1.3354,1.5663,2.0024,2.0648,2.0736,2.0845,2.0946,2.1034,2.1123,2.1231,2.1231,2.1143,2.1279,2.1265,2.1068,2.1157,2.1157,2.1075,2.3584,2.5437,-2.0556,-2.0464,-2.0438,-2.0505,-2.0295,-1.9583,-1.7495,-1.5971,-1.499,-1.4482,-1.4299,-1.4299,-1.4299,-1.4414,-1.4706,-1.5316,-1.5913,-1.6931,-1.8728,-1.9501,-2.0315,-2.153,-2.1937,-2.2357,-2.2961,-2.368,-2.4121,-2.4121,-2.4121,-2.4121,-2.4121,-2.4121,-2.4053,-2.389,-2.389,-2.3748,-2.3449,-2.3449,-2.3381,-2.3219,-2.3219,-2.3219,-2.3219,-2.3219,-2.3219,-2.3219,-2.3219,-2.313,-2.3008,-2.3008,-2.2832,-2.2261,-1.8318,-1.4593,-1.0603,-0.6989,-0.3079,0.0,0.0,0.0,0.0,0.0,0.0,0.0,0.0,0.0,0.0,0.0,0.0,0.0,0.0,0.0,0.0,0.0,0.0,0.0,0.0,0.0,0.0,0.0,0.0,0.0,0.0,0.0,0.0,0.0,0.0,0.0,0.0,0.0,0.1289,0.489,0.8224,1.3094,2.0031,2.0539,2.0661,2.098,2.1001,2.1123,2.1421,2.1441,2.1441,2.1441,2.1285,2.1211,2.1211,2.1211,2.1211,2.1211,2.153,2.3517,-1.9796,-2.011,-2.0407,-2.0507,-2.0073,-1.9486,-1.8104,-1.6731,-1.5289,-1.459,-1.4448,-1.4448,-1.4448,-1.457,-1.5031,-1.6144,-1.6578,-1.729,-1.8782,-1.9678,-2.0526,-2.1408,-2.2676,-2.3558,-2.3748,-2.3978,-2.4155,-2.4263,-2.4175,-2.4175,-2.4277,-2.4175,-2.41,-2.4053,-2.4053,-2.391,-2.3612,-2.3612,-2.3483,-2.3219,-2.3219,-2.3219,-2.3219,-2.3219,-2.3219,-2.3219,-2.3219,-2.3205,-2.3151,-2.3049,-2.2961,-2.2556,-1.866,-1.6371,-1.469,-1.0925,-0.7006,-0.3945,-0.3926,-0.2222,0.0,0.0,0.0,0.0,0.0,0.0,0.0,0.0,0.0,0.0,0.0,0.0,0.0,0.0,0.0,0.0,0.0,0.0,0.0,0.0,0.0,0.0,0.0,0.0,0.0,0.0,0.0,0.0,0.0,0.0,0.1289,0.4633,0.6174,0.9506,1.6429,1.935,2.079,2.098,2.1089,2.1231,2.1441,2.1441,2.1387,2.1285,2.1333,2.1319,2.1211,2.1319,2.1421,2.153,2.1509,2.334,-1.8344,-1.8494,-1.81,-1.8102,-1.7832,-1.7646,-1.7561,-1.618,-1.4899,-1.4543,-1.4613,-1.4634,-1.4682,-1.4638,-1.5092,-1.6157,-1.6598,-1.7297,-1.8708,-1.9624,-2.0539,-2.1564,-2.292,-2.3788,-2.3788,-2.3978,-2.4155,-2.4263,-2.4175,-2.4155,-2.4263,-2.4175,-2.4121,-2.4121,-2.4066,-2.3924,-2.368,-2.3626,-2.3503,-2.3307,-2.3259,-2.3219,-2.3219,-2.3219,-2.3219,-2.3219,-2.3219,-2.3219,0.0,-2.313,-2.3063,-2.2704,-2.0177,-1.8401,-1.6712,-1.4287,-1.0918,-0.7589,-0.6158,-0.4168,-0.1929,-0.055,0.0,0.0,0.0,0.0,0.0,0.0,0.0,0.0,0.0,0.0,0.0,0.0,0.0,0.0,0.0,0.0,0.0,0.0,0.0,0.0,0.0,0.0,0.0,0.0,0.0,0.0,0.0,0.0,0.0774,0.2835,0.4379,0.7464,1.3151,1.6789,1.9477,2.098,2.1089,2.1231,2.1441,2.1387,2.1319,2.1211,2.1299,2.1299,2.1211,2.1421,2.1584,2.1672,2.1564,2.2573,0.0,-1.5522,-1.44,-1.4267,-1.427,-1.4562,-1.5691,-1.5133,0.0,-1.4222,-1.4496,-1.4558,-1.4924,-1.4874,-1.4997,-1.5488,-1.6273,-1.7161,-1.864,-1.9535,-2.0594,-2.2038,-2.2852,-2.3293,-2.3293,-2.3802,-2.4121,-2.4155,-2.4141,-2.4121,-2.4141,-2.4121,-2.4121,-2.4121,-2.3978,-2.3822,-2.368,-2.3558,-2.347,-2.3429,-2.3293,-2.3239,-2.3219,-2.3219,-2.3219,-2.3219,-2.3219,-2.3219,-2.3219,-2.3219,-2.313,-2.2995,-2.2832,-2.0703,-1.7462,-1.7058,-1.4786,-1.117,-0.7543,-0.6125,-0.5254,-0.1651,-0.0271,0.0,0.0,0.0,0.0,0.0,0.0,0.0,0.0,0.0,0.0,0.0,0.0,0.0,0.0,0.0,0.0,0.0,0.0,0.0,0.0,0.0,0.0,0.0,0.0,0.0,0.0,0.0,0.0,0.0,0.2835,0.619,0.9856,1.3407,1.7062,2.0734,2.1021,2.1143,2.1408,2.1285,2.1211,2.1197,2.1211,2.1211,2.1231,2.1509,2.1652,2.1652,2.1652,2.1652,-1.4801,0.0,-1.4228,-1.4261,-1.428,-1.4287,0.0,-1.4497,-1.4355,-1.4323,-1.4283,-1.4464,-1.4682,-1.502,-1.5375,-1.5568,-1.6756,-1.8301,-1.9447,-2.0858,-2.2147,-2.3185,-2.3666,-2.3965,-2.4066,-2.41,-2.4209,-2.444,-2.4243,-2.4175,-2.4297,-2.4189,-2.4121,-2.4121,-2.3978,-2.3822,-2.368,-2.3754,-2.3612,-2.3273,-2.3361,-2.3327,-2.3219,-2.3219,-2.3219,-2.3219,-2.3219,-2.3219,-2.3219,-2.3219,-2.313,-2.2995,-2.2832,-2.2187,-2.1265,-2.1017,-1.8753,-1.5445,-1.4526,-1.222,-0.9376,-0.5463,-0.2435,0.0,0.0,0.0,0.0,0.0,0.0,0.0,0.0,0.0,0.0,0.0,0.0,0.0,0.0,0.0,0.0,0.0,0.0,0.0,0.0,0.0,0.0,0.0,0.0,0.0,0.0,0.0,0.0,0.0,0.0774,0.2579,0.6188,1.1882,1.718,2.0875,2.1157,2.1197,2.1265,2.1231,2.1157,2.1055,2.1157,2.1265,2.1387,2.1455,2.1496,2.1496,2.1496,2.1496,-1.4299,-1.4302,-1.4248,-1.4388,-1.4258,-1.4329,-1.4362,-1.4249,-1.433,-1.4249,-1.4236,-1.4256,-1.4525,-1.5214,-1.5893,-1.5637,-1.6435,-1.7891,-2.0118,-2.1774,-2.2907,-2.3592,-2.3944,-2.4175,-2.4331,-2.4277,-2.4297,-2.4453,-2.4317,-2.4229,-2.4243,-2.4175,-2.4121,-2.4121,-2.3978,-2.3856,-2.3788,-2.3714,-2.3571,-2.3327,-2.3347,-2.3307,-2.3219,-2.3219,-2.3219,-2.3219,-2.3219,-2.3219,-2.3219,-2.3151,-2.3117,-2.3083,-2.2873,-2.2784,-2.2744,-2.252,-2.1036,-1.9071,-1.7315,-1.4411,-1.0435,-0.6802,-0.4046,-0.2142,-0.0536,0.0,0.0,0.0,0.0,0.0,0.0,0.0,0.0,0.0,0.0,0.0,0.0,0.0,0.0,0.0,0.0,0.0,0.0,0.0,0.0,0.0,0.0,0.0,0.0,0.0,0.0,0.0,0.0,0.1549,0.4911,0.8812,1.3013,1.8362,2.0214,2.1034,2.1109,2.1109,2.1109,2.1109,2.1109,2.1231,2.1441,2.1441,2.1441,2.1441,2.1441,2.1441,-1.4441,-1.4903,-1.5499,-1.4932,-1.4765,-1.4811,-1.4358,-1.4348,-1.4367,-1.4367,-1.4222,-1.4256,-1.4298,-1.5635,-1.6453,-1.6131,-1.6358,-1.7618,-2.0521,-2.2107,-2.3151,-2.3646,-2.3965,-2.4175,-2.4331,-2.4331,-2.4331,-2.4351,-2.4331,-2.4263,-2.4121,-2.4121,-2.41,-2.4087,-2.3944,-2.3856,-2.3822,-2.3626,-2.3483,-2.3415,-2.3327,-2.3273,-2.3219,-2.3219,-2.3219,-2.3219,-2.3219,-2.3205,-2.3185,-2.3063,-2.3049,-2.3097,-2.2852,-2.273,-2.2696,-2.2567,-2.2445,-2.1771,-1.8667,-1.4913,-1.1201,-0.814,-0.671,-0.558,-0.1862,-0.0794,-0.0789,-0.0263,0.0,0.0,0.0,0.0,0.0,0.0,0.0,0.0,0.0,0.0,0.0,0.0,0.0,0.0,0.0,0.0,0.0,0.0,0.0,0.0,0.0,0.0,0.0,0.0,0.0,0.1293,0.4412,0.4932,0.8041,1.4501,1.8178,2.0342,2.1001,2.098,2.1034,2.1211,2.1089,2.1157,2.1441,2.1441,2.1441,2.1441,2.1441,2.1441,-1.5065,-1.8083,-2.0585,-1.7924,-1.7304,-1.6837,-1.4705,-1.4362,-1.4302,-1.4302,-1.4303,-1.4336,-1.4319,-1.5731,-1.7209,-1.8059,-1.8313,-1.9363,-2.1585,-2.2302,-2.3042,-2.3768,-2.4012,-2.4175,-2.4331,-2.4229,-2.4209,-2.4331,-2.4229,-2.4141,-2.4121,-2.4121,-2.4066,-2.3931,-2.3788,-2.3646,-2.3524,-2.3714,-2.3626,-2.3259,-2.3503,-2.347,-2.3219,-2.3219,-2.3219,-2.3219,-2.3219,-2.3151,-2.3042,-2.3029,-2.2873,-2.2656,-2.2608,-2.252,-2.2411,-2.2378,-2.2357,-2.2316,-2.1632,-1.8713,-1.5548,-1.4818,-1.2277,-0.9015,-0.5539,-0.4195,-0.3651,-0.0783,0.0,0.0,0.0,0.0,0.0,0.0,0.0,0.0,0.0,0.0,0.0,0.0,0.0,0.0,0.0,0.0,0.0,0.0,0.0,0.0,0.0,0.0,0.0,0.0,0.0,0.0258,0.0775,0.3353,0.6952,1.0798,1.4562,1.8078,2.0994,2.0878,2.0933,2.1211,2.1197,2.1265,2.1441,2.1441,2.1441,2.1441,2.1441,2.1441,-1.8467,-2.0736,-2.3277,-2.4458,-2.3461,-2.1107,-1.592,-1.4848,-1.4878,-1.4872,-1.4777,-1.508,-1.5577,-2.2221,-2.6116,-2.1533,-2.7686,-3.3645,-3.4706,-2.7964,-2.3171,-2.3687,-2.3965,-2.4175,-2.4331,-2.4277,-2.4277,-2.4351,-2.4277,-2.4209,-2.4121,-2.4053,-2.3965,-2.389,-2.368,-2.3524,-2.3449,-2.3592,-2.3503,-2.3219,-2.3361,-2.3361,-2.3219,-2.3219,-2.3219,-2.3219,-2.3219,-2.313,-2.3008,-2.292,-2.2798,-2.2676,-2.2588,-2.252,-2.2445,-2.2378,-2.2289,-2.2201,-2.2038,-2.0799,-1.8992,-1.6593,-1.4843,-1.2633,-0.9157,-0.7795,-0.7496,-0.5946,-0.2847,0.0,0.0,0.0,0.0,0.0,0.0,0.0,0.0,0.0,0.0,0.0,0.0,0.0,0.0,0.0,0.0,0.0,0.0,0.0,0.0,0.0,0.0,0.0,0.0,0.0,0.0,0.1547,0.5401,1.2579,1.6527,1.9214,2.0878,2.0736,2.0824,2.1211,2.1143,2.1211,2.1441,2.153,2.1564,2.1564,2.1564,2.1597,-2.1359,-2.2954,-2.5452,-2.92,-2.8278,-2.5531,-2.128,-2.0372,-2.0217,-2.0207,-1.7968,-1.6034,-1.7093,-2.8743,-3.5796,-2.8552,-3.7678,-4.5671,-4.5657,-3.6077,-2.7651,-2.4127,-2.4124,-2.4053,-2.4175,-2.4229,-2.4229,-2.4189,-2.4229,-2.4189,-2.4066,-2.3965,-2.3877,-2.3843,-2.3592,-2.3429,-2.3395,-2.3395,-2.3347,-2.3219,-2.3259,-2.3259,-2.3219,-2.3219,-2.3219,-2.3219,-2.3219,-2.3117,-2.294,-2.2832,-2.2744,-2.2656,-2.2554,-2.25,-2.2479,-2.2337,-2.2215,-2.2079,-2.1903,-2.176,-2.1089,-1.8112,-1.7148,-1.65,-1.275,-1.162,-1.1296,-1.0531,-0.6437,-0.2323,-0.2319,-0.1804,-0.1289,-0.1289,-0.0516,0.0,0.0,0.0,0.0,0.0,0.0,0.0,0.0,0.0,0.0,0.0,0.0,0.0,0.0,0.0,0.0,0.0,0.0,0.0,0.0,0.0774,0.489,1.3601,1.7454,1.9842,2.077,2.0627,2.075,2.1211,2.1068,2.1157,2.1496,2.1618,2.1692,2.1726,2.1726,2.1774,-2.2109,-2.4985,-2.7909,-2.8463,-2.8295,-2.9366,-3.4263,-3.5382,-3.5404,-3.5362,-2.5987,-1.7672,-1.7812,-3.1071,-4.192,-4.2363,-4.4249,-4.5652,-4.5643,-4.584,-4.0276,-2.57,-2.414,-2.3966,-2.398,-2.3822,-2.3877,-2.3734,-2.3856,-2.3924,-2.391,-2.389,-2.3843,-2.37,-2.3537,-2.3381,-2.3239,-2.3239,-2.3239,-2.3219,-2.3361,-2.3361,-2.3219,-2.3219,-2.3219,-2.3219,-2.3219,-2.3063,-2.2798,-2.2784,-2.2622,-2.2378,-2.2357,-2.2357,-2.2337,-2.2181,-2.2127,-2.2072,-2.1774,-2.1672,-2.1618,-2.1042,-2.0848,-1.9915,-1.6377,-1.5233,-1.4377,-1.1296,-1.0065,-0.9588,-0.9522,-0.7199,-0.4633,-0.4633,-0.2319,0.0,0.0,0.0,0.0,0.0,0.0,0.0,0.0,0.0,0.0,0.0,0.0,0.0,0.0,0.0,0.0,0.0,0.0,0.0,0.0,0.2835,0.6431,1.0528,1.3861,1.7256,2.077,2.0627,2.075,2.1211,2.1068,2.1211,2.1652,2.1672,2.174,2.1862,2.1862,2.1862,-2.5977,-2.8482,-3.0894,-3.1018,-3.2124,-3.3819,-3.6086,-3.751,-3.8834,-3.9941,-3.5917,-3.1719,-3.1039,-3.6407,-4.1792,-4.3654,-4.5009,-4.5697,-4.5671,-4.6001,-4.4141,-3.8335,-3.8058,-3.4878,-2.4673,-2.3835,-2.3612,-2.368,-2.3802,-2.3856,-2.3768,-2.3768,-2.37,-2.3537,-2.3381,-2.3273,-2.3219,-2.3219,-2.3219,-2.3219,-2.3273,-2.3273,-2.3219,-2.3219,-2.3219,-2.3219,-2.313,-2.2974,-2.2784,-2.2676,-2.252,-2.2337,-2.2337,-2.2337,-2.2323,-2.216,-2.2059,-2.1937,-2.174,-2.1597,-2.1496,-2.1285,-2.1177,-2.0821,-1.927,-1.8969,-1.8717,-1.7342,-1.6888,-1.5892,-1.159,-0.928,-0.8012,-0.5667,-0.4121,-0.2577,-0.0516,0.0,0.0,0.0,0.0,0.0,0.0,0.0,0.0,0.0,0.0,0.0,0.0,0.0,0.0,0.0,0.0,0.0,0.0,0.1289,0.3348,0.694,1.2327,1.6967,2.0372,2.0668,2.0804,2.1068,2.1109,2.1265,2.153,2.1618,2.174,2.1882,2.1882,2.1991,-2.8698,-3.0515,-3.2492,-3.2879,-3.4469,-3.6206,-3.7235,-3.8546,-4.0055,-4.2425,-4.1738,-4.0561,-3.9551,-3.982,-4.1165,-4.3514,-4.5036,-4.5562,-4.5657,-4.5671,-4.5617,-4.5585,-4.6556,-4.2738,-3.182,-2.6238,-2.3368,-2.3456,-2.3646,-2.3714,-2.3612,-2.3612,-2.3558,-2.3449,-2.3307,-2.3219,-2.3219,-2.3219,-2.3219,-2.3219,-2.3171,-2.3185,-2.3219,-2.3171,-2.3185,-2.3205,-2.3029,-2.2886,-2.2764,-2.2622,-2.2466,-2.2337,-2.2289,-2.2269,-2.2249,-2.2038,-2.1903,-2.1794,-2.1652,-2.153,-2.1421,-2.1319,-2.1245,-2.1177,-2.0967,-2.0946,-2.098,-2.0878,-2.0946,-1.9948,-1.5035,-1.2945,-1.14,-0.9011,-0.669,-0.4379,-0.2062,-0.0774,0.0,0.0,0.0,0.0,0.0,0.0,0.0,0.0,0.0,0.0,0.0,0.0,0.0,0.0,0.0,0.0,0.0,0.0,0.1547,0.489,0.9531,1.4154,1.8746,2.0223,2.0892,2.1001,2.1143,2.1319,2.1509,2.1618,2.1774,2.195,2.195,2.2093,-2.9913,-3.0982,-3.2398,-3.3587,-3.479,-3.6366,-3.9012,-3.9386,-4.0132,-4.3338,-4.3106,-4.1853,-4.0691,-4.0516,-4.1196,-4.3532,-4.5025,-4.5723,-4.5718,-4.5745,-4.5564,-4.5816,-4.5591,-4.5801,-4.5774,-3.248,-2.3703,-2.3265,-2.3259,-2.3449,-2.3449,-2.3449,-2.3449,-2.3449,-2.3307,-2.3219,-2.3219,-2.3219,-2.3219,-2.3219,-2.3083,-2.3083,-2.3219,-2.3083,-2.3083,-2.3205,-2.2907,-2.2784,-2.2764,-2.2608,-2.2466,-2.2323,-2.216,-2.2113,-2.2079,-2.1774,-2.1672,-2.1652,-2.1496,-2.1441,-2.1441,-2.1441,-2.1333,-2.1211,-2.1211,-2.1109,-2.1001,-2.1001,-2.1109,-2.1177,-2.1034,-1.8273,-1.5536,-1.5429,-1.0022,-0.5147,-0.5147,-0.2319,0.0,0.0,0.0,0.0,0.0,0.0,0.0,0.0,0.0,0.0,0.0,0.0,0.0,0.0,0.0,0.0,0.0,0.0,0.1547,0.489,0.5183,0.8286,1.5158,1.9018,2.1001,2.1001,2.1143,2.1374,2.1672,2.1672,2.1815,2.2113,2.2113,2.2181,-2.9526,-3.1116,-3.3213,-3.4002,-3.6326,-3.8798,-4.0214,-4.0345,-4.1216,-4.4391,-4.4268,-4.2908,-4.0836,-4.1844,-4.3386,-4.4833,-4.5482,-4.5723,-4.5718,-4.5745,-4.5772,-4.5564,-4.5657,-4.5816,-4.5764,-4.1838,-3.4748,-2.4125,-2.3259,-2.3395,-2.3293,-2.3395,-2.3395,-2.3293,-2.3239,-2.3219,-2.3219,-2.3117,-2.3083,-2.3063,-2.292,-2.292,-2.3063,-2.292,-2.2873,-2.2907,-2.271,-2.2622,-2.2608,-2.2466,-2.2323,-2.2181,-2.2127,-2.2038,-2.1937,-2.174,-2.1672,-2.1652,-2.1496,-2.1509,-2.1584,-2.1475,-2.1475,-2.1475,-2.1157,-2.1177,-2.1265,-2.1055,-2.1177,-2.1319,-2.1068,-2.0181,-1.8797,-1.6061,-1.2111,-0.7967,-0.5658,-0.2319,0.0,0.0,0.0,0.0,0.0,0.0,0.0,0.0,0.0,0.0,0.0,0.0,0.0,0.0,0.0,0.0,0.0,0.0,0.0516,0.1547,0.3908,0.8349,1.5258,1.6695,1.8409,2.1143,2.1197,2.1319,2.1509,2.1509,2.1652,2.195,2.1848,2.1937,-3.1423,-3.2946,-3.4817,-3.6233,-3.8183,-4.0147,-4.1603,-4.1991,-4.2616,-4.5016,-4.5152,-4.4155,-4.2873,-4.3797,-4.49,-4.5642,-4.5779,-4.5831,-4.5718,-4.5745,-4.5718,-4.5611,-4.5678,-4.5772,-4.5604,-4.583,-3.9436,-2.4315,-2.3171,-2.3327,-2.3219,-2.3307,-2.3307,-2.3219,-2.3171,-2.313,-2.313,-2.2995,-2.292,-2.292,-2.2764,-2.2744,-2.2818,-2.273,-2.273,-2.2784,-2.2622,-2.252,-2.2466,-2.2303,-2.2201,-2.2093,-2.1991,-2.1882,-2.1774,-2.1638,-2.1584,-2.1564,-2.1475,-2.1496,-2.1564,-2.1475,-2.1509,-2.153,-2.1265,-2.1299,-2.1408,-2.1231,-2.1299,-2.1408,-2.1231,-2.1123,-2.0481,-1.8148,-1.3907,-0.9762,-0.7713,-0.3348,0.0,0.0,0.0,0.0,0.0,0.0,0.0,0.0,0.0,0.0,0.0,0.0,0.0,0.0,0.0,0.0,0.0,0.0,0.0,0.0,0.209,0.5769,1.1208,1.4169,1.6864,1.9004,2.0384,2.1265,2.1353,2.1408,2.1597,2.1882,2.1794,2.1916,-3.4376,-3.5498,-3.6687,-3.9346,-4.0174,-4.0909,-4.3127,-4.3744,-4.4222,-4.5105,-4.5587,-4.5828,-4.5819,-4.5655,-4.5655,-4.5603,-4.5585,-4.5745,-4.5718,-4.5718,-4.5611,-4.5629,-4.5505,-4.5571,-4.5629,-4.5579,-3.9333,-2.4394,-2.3286,-2.3205,-2.3185,-2.3185,-2.3205,-2.3205,-2.3083,-2.3008,-2.3008,-2.2852,-2.2764,-2.2764,-2.2588,-2.252,-2.2534,-2.2534,-2.2608,-2.273,-2.2588,-2.2445,-2.2303,-2.2147,-2.2079,-2.2038,-2.1774,-2.1672,-2.1638,-2.1496,-2.1441,-2.1441,-2.1441,-2.1455,-2.1455,-2.1441,-2.1455,-2.1455,-2.1421,-2.1421,-2.1441,-2.1421,-2.1421,-2.1441,-2.1421,-2.1299,-2.1089,-2.0661,-1.5418,-1.0794,-1.0271,-0.5147,-0.0258,0.0,0.0,0.0,0.0,0.0,0.0,0.0,0.0,0.0,0.0,0.0,0.0,0.0,0.0,0.0,0.0,0.0,0.0,0.0,0.0,0.158,0.4734,1.1614,1.5584,1.5745,1.926,2.1177,2.1211,2.1353,2.1564,2.1862,2.1862,2.2004,-3.2973,-3.4563,-3.666,-3.9092,-4.1243,-4.302,-4.3995,-4.4329,-4.4516,-4.5105,-4.5347,-4.5806,-4.5791,-4.5791,-4.5791,-4.5652,-4.5718,-4.5678,-4.5723,-4.5723,-4.5629,-4.5644,-4.501,-4.4714,-4.5604,-4.5604,-3.9581,-2.4357,-2.3073,-2.33,-2.3183,-2.3286,-2.3069,-2.3069,-2.3029,-2.3008,-2.3008,-2.2744,-2.2608,-2.2608,-2.2344,-2.2269,-2.2391,-2.2391,-2.2411,-2.2425,-2.2269,-2.2181,-2.2147,-2.1991,-2.1862,-2.176,-2.1692,-2.1597,-2.1496,-2.1455,-2.1441,-2.1441,-2.1441,-2.1509,-2.1597,-2.1475,-2.153,-2.1584,-2.1333,-2.1353,-2.1421,-2.1299,-2.1353,-2.1408,-2.1299,-2.1157,-2.098,-2.077,-1.7604,-1.3696,-1.0798,-0.694,-0.309,-0.0516,0.0,0.0,0.0,0.0,0.0,0.0,0.0,0.0,0.0,0.0,0.0,0.0,0.0,0.0,0.0,0.0,0.0,0.0,0.0,0.0262,0.1054,0.7892,1.2908,1.5862,1.913,2.098,2.1211,2.1245,2.1421,2.1726,2.1726,2.176,-3.3814,-3.5538,-3.7569,-4.0361,-4.2191,-4.3487,-4.4075,-4.3995,-4.3928,-4.4382,-4.5105,-4.5482,-4.5629,-4.567,-4.567,-4.567,-4.567,-4.5603,-4.5739,-4.5117,-4.497,-4.4984,-4.4488,-4.4206,-4.4716,-4.4813,-3.8877,-2.4247,-2.286,-2.2778,-2.2778,-2.2852,-2.2907,-2.319,-2.3121,-2.2805,-2.2798,-2.2567,-2.2411,-2.2344,-2.2181,-2.2113,-2.2127,-2.2201,-2.2235,-2.2215,-2.2072,-2.2004,-2.1991,-2.1848,-2.174,-2.1672,-2.1584,-2.1509,-2.1441,-2.1441,-2.1441,-2.1441,-2.1441,-2.1496,-2.155,-2.1455,-2.1496,-2.153,-2.1367,-2.1367,-2.1421,-2.1353,-2.1319,-2.1319,-2.1231,-2.1109,-2.0967,-2.0811,-1.8118,-1.4947,-1.3107,-0.874,-0.4633,-0.2835,-0.1032,0.0,0.0,0.0,0.0,0.0,0.0,0.0,0.0,0.0,0.0,0.0,0.0,0.0,0.0,0.0,0.0,0.0,0.0,0.0,0.0,0.4973,0.9437,1.3187,1.649,1.9117,2.1109,2.1177,2.1374,2.1672,2.1672,2.1706,-3.4523,-3.658,-3.8651,-4.179,-4.2806,-4.3167,-4.3714,-4.3461,-4.3233,-4.3754,-4.4342,-4.5038,-4.5414,-4.5455,-4.5495,-4.5482,-4.5482,-4.5441,-4.5347,-4.4716,-4.3982,-4.3957,-4.409,-4.3889,-4.3997,-4.3938,-3.928,-2.7542,-2.4015,-2.2181,-2.2335,-2.2656,-2.2676,-2.271,-2.2874,-2.2819,-2.2554,-2.2391,-2.2235,-2.2113,-2.2079,-2.1991,-2.1848,-2.1971,-2.2038,-2.2059,-2.1916,-2.1848,-2.1828,-2.1686,-2.1638,-2.1618,-2.1496,-2.1441,-2.1441,-2.1441,-2.1421,-2.1408,-2.1408,-2.1408,-2.1408,-2.1408,-2.1421,-2.1441,-2.1441,-2.1421,-2.1408,-2.1408,-2.1299,-2.1177,-2.1177,-2.1068,-2.0933,-2.0811,-1.8577,-1.6168,-1.5403,-1.0528,-0.5915,-0.5147,-0.2319,0.0,0.0,0.0,0.0,0.0,0.0,0.0,0.0,0.0,0.0,0.0,0.0,0.0,0.0,0.0,0.0,0.0,0.0,0.0,0.0,0.2605,0.574,0.9437,1.3329,1.7021,2.0247,2.0868,2.1333,2.1638,2.1652,2.1726,-3.1864,-3.5164,-3.8838,-4.1603,-4.2512,-4.2806,-4.3127,-4.3167,-4.3127,-4.3207,-4.3714,-4.4195,-4.4729,-4.4984,-4.4877,-4.4272,-4.4259,-4.4101,-4.4195,-4.4115,-4.3901,-4.3941,-4.3913,-4.4008,-4.3949,-4.4035,-4.3199,-4.1419,-2.9458,-2.2249,-2.2283,-2.2407,-2.2276,-2.2391,-2.2661,-2.2709,-2.2554,-2.2289,-2.2127,-2.2113,-2.1971,-2.1828,-2.1706,-2.1726,-2.1794,-2.1903,-2.176,-2.1706,-2.1686,-2.153,-2.1475,-2.1475,-2.1441,-2.1441,-2.1441,-2.1441,-2.1353,-2.1245,-2.1245,-2.1245,-2.1245,-2.1245,-2.1333,-2.1441,-2.1441,-2.1353,-2.1245,-2.1245,-2.1143,-2.1034,-2.1034,-2.0912,-2.079,-2.077,-2.0399,-1.8988,-1.6168,-1.2319,-0.874,-0.5658,-0.2319,0.0,0.0,0.0,0.0,0.0,0.0,0.0,0.0,0.0,0.0,0.0,0.0,0.0,0.0,0.0,0.0,0.0,0.0,0.0,0.0,0.0522,0.2347,0.5731,1.2143,1.585,1.6677,1.9496,2.1177,2.1475,2.1597,2.1618,-3.328,-3.5912,-3.8437,-4.1269,-4.1964,-4.2071,-4.2699,-4.2592,-4.2445,-4.2766,-4.2953,-4.314,-4.3896,-4.407,-4.4178,-4.3915,-4.3901,-4.407,-4.4103,-4.3487,-4.308,-4.3113,-4.3086,-4.3113,-4.2987,-4.3474,-4.3741,-4.3095,-2.9896,-2.1692,-2.1862,-2.1679,-2.1725,-2.1792,-2.2072,-2.2113,-2.2188,-2.2045,-2.1937,-2.1862,-2.1706,-2.1597,-2.155,-2.155,-2.1618,-2.176,-2.1597,-2.155,-2.153,-2.1475,-2.1441,-2.1441,-2.1441,-2.1441,-2.1441,-2.1441,-2.1333,-2.1211,-2.1211,-2.1157,-2.1089,-2.1089,-2.1143,-2.1197,-2.1197,-2.1197,-2.1197,-2.1123,-2.1055,-2.098,-2.0892,-2.0756,-2.0648,-2.0648,-2.0594,-2.0018,-1.8485,-1.5663,-1.1551,-0.6174,-0.2319,0.0,0.0,0.0,0.0,0.0,0.0,0.0,0.0,0.0,0.0,0.0,0.0,0.0,0.0,0.0,0.0,0.0,0.0,0.0,0.0,0.0,0.0779,0.2084,0.6995,1.1682,1.5709,1.7298,1.926,2.1319,2.1387,2.1374,-3.3627,-3.5431,-3.6914,-4.0,-4.0802,-4.1056,-4.2084,-4.2004,-4.179,-4.2218,-4.2151,-4.2151,-4.2861,-4.3156,-4.3385,-4.3684,-4.367,-4.363,-4.3467,-4.2859,-4.2253,-4.2187,-4.2121,-4.216,-4.2088,-4.3116,-4.31,-4.2363,-2.9188,-2.134,-2.1364,-2.1377,-2.1411,-2.1498,-2.1774,-2.1815,-2.1882,-2.1815,-2.1706,-2.155,-2.1441,-2.1387,-2.1387,-2.1421,-2.1509,-2.1597,-2.1496,-2.1441,-2.1441,-2.1441,-2.1441,-2.1441,-2.1408,-2.1387,-2.1367,-2.1333,-2.1231,-2.1109,-2.1109,-2.1034,-2.0946,-2.0946,-2.0967,-2.1001,-2.1001,-2.1055,-2.1068,-2.0967,-2.0912,-2.0858,-2.0736,-2.0627,-2.0539,-2.0539,-2.0539,-2.0278,-1.9509,-1.6429,-1.2327,-0.6174,-0.2319,0.0,0.0,0.0,0.0,0.0,0.0,0.0,0.0,0.0,0.0,0.0,0.0,0.0,0.0,0.0,0.0,0.0,0.0,0.0,0.0,0.0,0.0,0.0,0.2599,0.6752,1.3009,1.4095,1.6277,1.9827,1.9827,2.0364,-3.0461,-3.1917,-3.3641,-3.7155,-3.8651,-3.9626,-4.1082,-4.1376,-4.1376,-4.1416,-4.1416,-4.1416,-4.1416,-4.2312,-4.2815,-4.31,-4.2788,-4.2332,-4.2325,-4.2258,-4.2151,-4.2175,-4.2169,-4.2305,-4.2284,-4.2191,-4.2231,-4.2284,-2.9179,-2.136,-2.1274,-2.1308,-2.1446,-2.1455,-2.1455,-2.133,-2.1327,-2.133,-2.1387,-2.1231,-2.1231,-2.1231,-2.1231,-2.1367,-2.1441,-2.1455,-2.1441,-2.1441,-2.1441,-2.1441,-2.1441,-2.1421,-2.1279,-2.1231,-2.1211,-2.1068,-2.0933,-2.079,-2.079,-2.079,-2.079,-2.079,-2.0878,-2.1001,-2.1001,-2.0912,-2.079,-2.079,-2.0682,-2.056,-2.056,-2.0539,-2.0539,-2.0539,-2.0539,-1.9516,-1.6429,-1.3094,-0.9506,-0.5915,-0.2319,0.0,0.0,0.0,0.0,0.0,0.0,0.0,0.0,0.0,0.0,0.0,0.0,0.0,0.0,0.0,0.0,0.0,0.0,0.0,0.0,0.0,0.0,0.0,0.0258,0.2077,0.604,0.9121,1.277,1.6261,1.6261,1.7847,-3.0529,-3.1236,-3.2412,-3.5391,-3.6941,-3.8023,-3.9132,-4.0107,-4.0842,-4.1016,-4.1056,-4.1122,-4.131,-4.167,-4.1964,-4.1978,-4.2242,-4.2175,-4.2237,-4.1657,-4.1078,-4.1234,-4.1705,-4.1826,-4.1182,-4.175,-4.2122,-4.2257,-3.7684,-3.0565,-2.1353,-2.0926,-2.0788,-2.0888,-2.1245,-2.1387,-2.1323,-2.1489,-2.1408,-2.1353,-2.1353,-2.1299,-2.1211,-2.1367,-2.1387,-2.1299,-2.1408,-2.1441,-2.1441,-2.1333,-2.1353,-2.1421,-2.1177,-2.1123,-2.1197,-2.1055,-2.0899,-2.077,-2.077,-2.0702,-2.0627,-2.0627,-2.0661,-2.0702,-2.0702,-2.0736,-2.0756,-2.0648,-2.0648,-2.0668,-2.056,-2.0539,-2.0539,-2.0539,-2.0539,-2.0278,-1.9007,-1.5913,-1.2574,-0.899,-0.5658,-0.2577,-0.0258,0.0,0.0,0.0,0.0,0.0,0.0,0.0,0.0,0.0,0.0,0.0,0.0,0.0,0.0,0.0,0.0,0.0,0.0,0.0,0.0,0.0,0.0,0.181,0.5187,0.6491,0.9103,1.2507,1.2507,1.4322,-3.0803,-3.1236,-3.2239,-3.4393,-3.5257,-3.6126,-3.8103,-3.9025,-3.964,-4.0321,-4.0548,-4.0695,-4.0989,-4.1056,-4.1122,-4.1323,-4.1638,-4.1872,-4.175,-4.0929,-4.0382,-4.0382,-4.1136,-4.1216,-4.0487,-4.147,-4.2088,-4.1646,-4.1514,-3.5496,-2.1379,-2.0439,-2.0573,-2.0467,-2.1143,-2.1272,-2.1374,-2.1374,-2.1319,-2.1218,-2.1319,-2.1279,-2.1143,-2.1353,-2.1387,-2.1299,-2.1387,-2.1441,-2.1441,-2.1333,-2.1319,-2.1333,-2.1089,-2.1021,-2.1055,-2.0892,-2.079,-2.0702,-2.0702,-2.0627,-2.0539,-2.0539,-2.0539,-2.0539,-2.0539,-2.0614,-2.0668,-2.0573,-2.0614,-2.0668,-2.0573,-2.0539,-2.0539,-2.0539,-2.0539,-2.0539,-2.0539,-1.7721,-1.4637,-1.2574,-0.8224,-0.4379,-0.2062,-0.0774,0.0,0.0,0.0,0.0,0.0,0.0,0.0,0.0,0.0,0.0,0.0,0.0,0.0,0.0,0.0,0.0,0.0,0.0,0.0,0.0,0.0,0.1032,0.3348,0.3623,0.5442,0.8797,0.8797,1.112,0.0,0.0,0.0,-3.3946,-3.3534,-3.3975,-3.8036,-3.8103,-3.7702,-3.9239,-3.9746,-4.004,-4.0401,-4.0481,-4.0655,-4.0969,-4.1296,-4.0969,-4.0663,-4.0624,-4.0624,-4.0624,-4.0398,-4.0424,-4.0448,-4.1584,-4.1611,-4.0526,-4.0513,-3.4857,-2.1829,-2.0811,-2.0526,-2.0448,-2.1123,-2.1466,-2.148,-2.148,-2.1322,-2.1054,-2.1075,-2.1136,-2.1021,-2.1299,-2.1441,-2.1441,-2.1441,-2.1441,-2.1441,-2.1421,-2.1333,-2.1197,-2.1055,-2.0892,-2.0756,-2.0594,-2.0539,-2.0539,-2.0539,-2.0539,-2.0539,-2.0539,-2.0539,-2.0539,-2.0539,-2.0539,-2.0539,-2.0539,-2.0539,-2.0539,-2.0539,-2.0539,-2.0539,-2.0539,-2.0539,-2.0539,-2.0539,-1.7975,-1.5403,-1.5403,-1.0022,-0.5405,-0.5147,-0.2319,0.0,0.0,0.0,0.0,0.0,0.0,0.0,0.0,0.0,0.0,0.0,0.0,0.0,0.0,0.0,0.0,0.0,0.0,0.0,0.0,0.0,0.0,0.0,0.0,0.1805,0.489,0.5147,0.874,-3.3362,0.0,0.0,0.0,0.0,0.0,-3.4314,-3.4629,-3.5458,-3.7569,-3.7889,-3.829,-3.9853,-4.0147,-4.0281,-4.0655,-4.0722,-4.0695,-4.0601,-4.0575,-4.0575,-4.0575,-4.0508,-4.0601,-4.0431,-4.0829,-4.1087,-4.1588,-4.0863,-3.8966,-3.5156,-2.5656,-2.0526,-2.0448,-2.1192,-2.1274,-2.148,-2.0841,-2.1014,-2.1199,-2.1021,-2.1034,-2.1267,-2.1197,-2.1279,-2.1279,-2.1279,-2.1279,-2.1265,-2.1157,-2.1157,-2.1177,-2.0804,-2.077,-2.0912,-2.0648,-2.0539,-2.0539,-2.0539,-2.0539,-2.0539,-2.0539,-2.0539,-2.0539,-2.0539,-2.0539,-2.0539,-2.0539,-2.0539,-2.0539,-2.0539,-2.0539,-2.0539,-2.0539,-2.0539,-2.0539,-2.0539,-1.9776,-1.8479,-1.5924,-1.3861,-1.1047,-0.5917,-0.4379,-0.2835,-0.0258,0.0,0.0,0.0,0.0,0.0,0.0,0.0,0.0,0.0,0.0,0.0,0.0,0.0,0.0,0.0,0.0,0.0,0.0,0.0,0.0,0.0,0.0,0.0516,0.1547,0.3862,0.6174,-3.6253,-3.6362,-3.686,-3.5447,0.0,0.0,-3.4731,-3.4173,-3.3988,-3.6353,-3.6901,-3.7342,-3.8691,-3.9132,-3.9426,-3.9853,-4.004,-4.0187,-4.0441,-4.0481,-4.0481,-4.0481,-4.0481,-4.0535,-4.0451,-4.0424,-4.0708,-4.1548,-4.0842,-4.0405,-4.0405,-2.7688,-2.0471,-2.054,-2.1054,-2.1388,-2.1021,-2.0747,-2.066,-2.1068,-2.068,-2.07,-2.0919,-2.1055,-2.1123,-2.1123,-2.1123,-2.1089,-2.1021,-2.0946,-2.0946,-2.1001,-2.0736,-2.0702,-2.079,-2.0614,-2.0539,-2.0539,-2.0539,-2.0539,-2.0539,-2.0539,-2.0539,-2.0539,-2.0539,-2.0539,-2.0539,-2.0539,-2.0539,-2.0539,-2.0539,-2.0539,-2.0539,-2.0539,-2.0539,-2.0539,-2.0539,-2.0539,-2.0031,-1.7975,-1.6429,-1.3601,-0.8224,-0.6174,-0.3862,-0.0516,0.0,0.0,0.0,0.0,0.0,0.0,0.0,0.0,0.0,0.0,0.0,0.0,0.0,0.0,0.0,0.0,0.0,0.0,0.0,0.0,0.0,0.0,0.0,0.0,0.2062,0.3862,-4.0121,-4.0234,-4.0998,-3.9654,-3.7009,0.0,-3.7066,-3.4956,-3.2973,-3.5137,-3.5939,-3.6393,-3.6901,-3.7489,-3.8076,-3.8571,-3.9118,-3.968,-4.0374,-4.0481,-4.0481,-4.0481,-4.0481,-4.0481,-4.0481,-4.0424,-4.0491,-4.0508,-4.0451,-4.0584,-4.0405,-2.922,-2.2168,-2.0539,-2.0931,-2.0999,-2.0506,-2.0627,-2.054,-2.0539,-2.056,-2.0627,-2.0506,-2.0912,-2.0987,-2.1001,-2.0987,-2.0892,-2.077,-2.0756,-2.0756,-2.077,-2.0756,-2.0668,-2.056,-2.0539,-2.0539,-2.0539,-2.0539,-2.0539,-2.0539,-2.0539,-2.0539,-2.0539,-2.0539,-2.0539,-2.0539,-2.0539,-2.0539,-2.0539,-2.0539,-2.0539,-2.0539,-2.0539,-2.0539,-2.0539,-2.0539,-2.0539,-2.0539,-2.0539,-1.7964,-1.4883,-1.1551,-0.7964,-0.4631,-0.1032,-0.0258,0.0,0.0,0.0,0.0,0.0,0.0,0.0,0.0,0.0,0.0,0.0,0.0,0.0,0.0,0.0,0.0,0.0,0.0,0.0,0.0,0.0,0.0,0.0,0.0,0.1547,-4.4798,-4.4876,-4.4812,-4.1539,-3.9932,0.0,-3.4713,-3.2436,-3.1396,-3.2332,-3.2238,-3.2519,-3.4255,-3.5244,-3.5752,-3.5631,-3.7235,-3.8985,-4.0294,-4.0481,-4.0481,-4.0481,-4.0481,-4.0481,-4.0481,-4.0508,-4.0535,-4.0481,-4.0508,-4.0398,-4.0405,-3.8013,-3.1641,-2.0786,-2.0711,-2.0526,-2.0506,-2.0419,-2.0594,-2.0539,-2.0594,-2.0419,-2.0506,-2.054,-2.0872,-2.1001,-2.0878,-2.0804,-2.0756,-2.0627,-2.0668,-2.0756,-2.0627,-2.0648,-2.0716,-2.0594,-2.0539,-2.0539,-2.0539,-2.0539,-2.0539,-2.0539,-2.0539,-2.0539,-2.0539,-2.0539,-2.0539,-2.0539,-2.0539,-2.0539,-2.0539,-2.0539,-2.0539,-2.0539,-2.0539,-2.0539,-2.0539,-2.0539,-2.0539,-2.0539,-2.0031,-1.8485,-1.4887,-1.1551,-0.8224,-0.4633,-0.1805,0.0,0.0,0.0,0.0,0.0,0.0,0.0,0.0,0.0,0.0,0.0,0.0,0.0,0.0,0.0,0.0,0.0,0.0,0.0,0.0,0.0,0.0,0.0,0.0,0.0258,-4.7266,-4.7246,-4.7554,-4.5801,-4.3706,0.0,0.0,-3.4711,-3.2561,-3.2498,-3.1851,-3.1677,-3.316,-3.3788,-3.4189,-3.4496,-3.6019,-3.7489,-3.837,-3.9399,-4.0307,-4.0574,-4.0574,-4.0401,-4.0522,-4.0522,-4.0589,-4.0481,-4.0481,-4.0535,-4.0424,-4.0584,-3.731,-3.0684,-2.392,-2.039,-2.0539,-2.0471,-2.0438,-2.0424,-2.0601,-2.0601,-2.0438,-2.0438,-2.0478,-2.08,-2.08,-2.0546,-2.0546,-2.0539,-2.0594,-2.0648,-2.0573,-2.0594,-2.0648,-2.0573,-2.0539,-2.0539,-2.0539,-2.0539,-2.0539,-2.0539,-2.0539,-2.0539,-2.0539,-2.0539,-2.0539,-2.0539,-2.0539,-2.0539,-2.0539,-2.0539,-2.0539,-2.0539,-2.0539,-2.0539,-2.0539,-2.0539,-2.0539,-2.0539,-2.0539,-1.9509,-1.5913,-1.2579,-0.899,-0.5658,-0.2062,0.0,0.0,0.0,0.0,0.0,0.0,0.0,0.0,0.0,0.0,0.0,0.0,0.0,0.0,0.0,0.0,0.0,0.0,0.0,0.0,0.0,0.0,0.0,0.0,0.0,-4.959,-4.9453,-5.0,-4.9629,-4.7158,-4.4239,0.0,0.0,0.0,-3.3671,-3.2367,-3.1543,-3.2251,-3.2438,-3.2679,-3.3293,-3.4616,-3.5565,-3.5578,-3.7659,-3.9317,-3.978,-4.0011,-4.0215,-4.0209,-4.0406,-4.0555,-4.0522,-4.0401,-4.0601,-4.0374,-4.0424,-4.0584,-4.0405,-2.9985,-2.3097,-2.0519,-2.0519,-2.1815,-2.4421,-2.4275,-2.4467,-2.4467,-2.4467,-2.4467,-2.4467,-2.4356,-2.2854,-2.0532,-2.0438,-2.0492,-2.0505,-2.0526,-2.0539,-2.0539,-2.0539,-2.0539,-2.0539,-2.0539,-2.0539,-2.0539,-2.0539,-2.0539,-2.0539,-2.0539,-2.0539,-2.0539,-2.0539,-2.0539,-2.0539,-2.0539,-2.0539,-2.0539,-2.0539,-2.0539,-2.0539,-2.0539,-2.0539,-2.0539,-2.0539,-2.0539,-1.9516,-1.695,-1.3601,-1.0015,-0.6688,-0.309,-0.0774,0.0,0.0,0.0,0.0,0.0,0.0,0.0,0.0,0.0,0.0,0.0,0.0,0.0,0.0,0.0,0.0,0.0,0.0,0.0,0.0,0.0,0.0,0.0,0.0,-5.3906,-5.3926,-5.3769,-5.0371,-4.9142,-4.7436,-4.2317,0.0,-3.5479,-3.3963,0.0,-3.014,-3.0247,0.0,0.0,-3.01,-3.2104,-3.336,-3.2358,-3.4229,-3.6235,-3.7757,-3.8543,-3.8952,-3.8952,-3.9823,-4.0588,-4.0419,-4.056,-4.0532,-4.0533,-4.0374,-4.0398,-4.0405,-3.9072,-3.2463,-2.0616,-2.0609,-2.6575,-3.8151,-3.8126,-3.8126,-3.8126,-3.8126,-3.8126,-3.8126,-3.8151,-3.136,-2.0381,-2.0532,-2.0587,-2.0601,-2.0492,-2.0539,-2.0539,-2.0539,-2.0539,-2.0539,-2.0539,-2.0539,-2.0539,-2.0539,-2.0539,-2.0539,-2.0539,-2.0539,-2.0539,-2.0539,-2.0539,-2.0539,-2.0539,-2.0539,-2.0539,-2.0539,-2.0539,-2.0539,-2.0539,-2.0539,-2.0539,-2.0539,-2.0539,-2.0285,-2.0037,-1.7194,-1.3601,-1.0271,-0.6684,-0.3348,-0.0516,0.0,0.0,0.0,0.0,0.0,0.0,0.0,0.0,0.0,0.0,0.0,0.0,0.0,0.0,0.0,0.0,0.0,0.0,0.0,0.0,0.0,0.0,0.0,-5.4551,-5.4473,-5.4375,-5.1973,-5.0738,-4.9011,-4.4563,-4.1552,-3.886,-3.5668,0.0,0.0,0.0,0.0,0.0,0.0,-3.1062,-3.1664,-3.1009,-3.2198,-3.395,-3.6013,-3.6679,-3.751,-3.8667,-3.9056,-3.8094,-3.4597,-3.7422,-3.9705,-4.052,-4.0506,-4.0374,-4.0398,-4.0557,-3.7717,-3.2162,-3.2162,-3.4852,-4.059,-4.0431,-4.0584,-4.0584,-4.0584,-4.0584,-4.0624,-4.0537,-3.7298,-3.2184,-3.217,-2.7466,-2.045,-2.0601,-2.0471,-2.0539,-2.0539,-2.0539,-2.0539,-2.0539,-2.0539,-2.0539,-2.0539,-2.0539,-2.0539,-2.0539,-2.0539,-2.0539,-2.0539,-2.0539,-2.0539,-2.0539,-2.0539,-2.0539,-2.0539,-2.0539,-2.0539,-2.0539,-2.0539,-2.0539,-2.0539,-2.0539,-2.0539,-2.0539,-1.7715,-1.4121,-1.0787,-0.7456,-0.3862,-0.0516,0.0,0.0,0.0,0.0,0.0,0.0,0.0,0.0,0.0,0.0,0.0,0.0,0.0,0.0,0.0,0.0,0.0,0.0,0.0,0.0,0.0,0.0,0.0,-5.5371,-5.5215,-5.5039,-5.2891,-5.1758,-5.0222,-4.6318,-4.4234,-4.222,-3.8901,-3.6699,0.0,0.0,0.0,-3.0394,-3.0368,0.0,-3.0608,-3.0074,-3.0688,-3.1851,-3.3815,-3.4693,-3.5869,-3.7637,-3.7842,-3.5481,-3.0299,-3.4719,-3.8321,-3.9904,-4.0438,-4.0439,-4.0589,-4.0398,-4.0517,-4.0517,-4.0517,-4.0517,-4.0517,-4.0575,-4.0481,-4.0481,-4.0481,-4.0481,-4.0481,-4.0451,-4.0517,-4.0557,-4.059,-3.4708,-2.5964,-2.5915,-2.374,-2.0492,-2.0526,-2.0539,-2.0539,-2.0539,-2.0539,-2.0539,-2.0539,-2.0539,-2.0539,-2.0539,-2.0539,-2.0539,-2.0539,-2.0539,-2.0539,-2.0539,-2.0539,-2.0539,-2.0539,-2.0539,-2.0539,-2.0539,-2.0539,-2.0539,-2.0539,-2.0539,-2.0539,-2.0539,-1.8485,-1.5663,-1.2319,-0.874,-0.5405,-0.1805,-0.0516,0.0,0.0,0.0,0.0,0.0,0.0,0.0,0.0,0.0,0.0,0.0,0.0,0.0,0.0,0.0,0.0,0.0,0.0,0.0,0.0,0.0,0.0,-5.7578,-5.7422,-5.6758,-5.2519,-5.1758,-5.1055,-4.7067,-4.6051,-4.5263,-4.3377,-4.0908,-3.8341,-3.6504,-3.3689,-3.1343,-3.0501,-3.0608,0.0,0.0,-2.9593,-3.0314,-3.1236,-3.2196,-3.3455,-3.522,-3.5333,-3.3856,-3.0196,-3.3343,-3.6356,-3.8627,-3.9889,-4.0495,-4.0574,-4.0589,-4.0481,-4.0481,-4.0481,-4.0481,-4.0481,-4.0481,-4.0481,-4.0481,-4.0481,-4.0481,-4.0481,-4.0481,-4.0481,-4.0508,-4.0557,-4.0133,-3.9874,-3.9939,-3.2016,-2.0587,-2.0492,-2.0539,-2.0539,-2.0539,-2.0539,-2.0539,-2.0539,-2.0539,-2.0539,-2.0539,-2.0539,-2.0539,-2.0539,-2.0539,-2.0539,-2.0539,-2.0539,-2.0539,-2.0539,-2.0539,-2.0539,-2.0539,-2.0539,-2.0539,-2.0539,-2.0539,-2.0539,-2.0539,-2.0285,-1.9248,-1.5663,-1.2319,-0.899,-0.5405,-0.2062,0.0,0.0,0.0,0.0,0.0,0.0,0.0,0.0,0.0,0.0,0.0,0.0,0.0,0.0,0.0,0.0,0.0,0.0,0.0,0.0,0.0,0.0,-5.876,-5.8418,-5.791,-5.4453,-5.3027,-5.1699,-4.8691,-4.8216,-4.729,-4.3924,-4.3656,-4.2385,-3.7303,-3.5221,-3.3443,-3.111,-3.0247,-2.9659,0.0,-2.9085,-2.9446,-2.974,-3.1128,-3.2204,-3.2854,-3.2967,-3.1959,-3.0105,-3.3211,-3.524,-3.5253,-3.7738,-3.9601,-4.0515,-4.0574,-4.0562,-4.0481,-4.0481,-4.0481,-4.0481,-4.0481,-4.0481,-4.0481,-4.0481,-4.0481,-4.0481,-4.0481,-4.0481,-4.0481,-4.0575,-4.0601,-4.0398,-4.0431,-3.7619,-3.2581,-2.3685,-2.0458,-2.0539,-2.0539,-2.0539,-2.0539,-2.0539,-2.0539,-2.0539,-2.0539,-2.0539,-2.0539,-2.0539,-2.0539,-2.0539,-2.0539,-2.0539,-2.0539,-2.0539,-2.0539,-2.0539,-2.0539,-2.0539,-2.0539,-2.0539,-2.0539,-2.0539,-2.0539,-2.0539,-1.9255,-1.5908,-1.4377,-1.1555,-0.5915,-0.4121,-0.2577,-0.0258,0.0,0.0,0.0,0.0,0.0,0.0,0.0,0.0,0.0,0.0,0.0,0.0,0.0,0.0,0.0,0.0,0.0,0.0,0.0,0.0,-6.1098,-5.9834,-5.8496,-5.5625,-5.4258,-5.2871,-4.998,-5.0137,-5.0009,-4.6746,-4.6415,-4.5629,-4.1686,-3.8177,-3.5128,-3.3143,-3.1053,-2.9352,0.0,-2.8698,-2.8885,-2.8885,-3.0261,-3.1383,-3.1715,-3.1009,-3.0561,-3.0503,-3.3347,-3.5034,-3.4772,-3.68,-3.8517,-3.9939,-4.0344,-4.0455,-4.0481,-4.0481,-4.0481,-4.0481,-4.0481,-4.0481,-4.0481,-4.0481,-4.0481,-4.0481,-4.0481,-4.0481,-4.0481,-4.0481,-4.0481,-4.0508,-4.0424,-4.0557,-3.8814,-2.5389,-2.0424,-2.0539,-2.0539,-2.0539,-2.0539,-2.0539,-2.0539,-2.0539,-2.0539,-2.0539,-2.0539,-2.0539,-2.0539,-2.0539,-2.0539,-2.0539,-2.0539,-2.0539,-2.0539,-2.0539,-2.0539,-2.0539,-2.0539,-2.0539,-2.0539,-2.0539,-2.0539,-2.0539,-1.9757,-1.7396,-1.6142,-1.3341,-0.7687,-0.5895,-0.3847,-0.0257,0.0,0.0,0.0,0.0,0.0,0.0,0.0,0.0,0.0,0.0,0.0,0.0,0.0,0.0,0.0,0.0,0.0,0.0,0.0,0.0]}]]